<?xml version='1.0' encoding='UTF-8'?><gpx version="1.1" creator="JPX - https://github.com/jenetics/jpx" xmlns="http://www.topografix.com/GPX/1/1"><trk><trkseg><trkpt lat="43.725436443244405" lon="11.3450666244395"><ele>162.0</ele><time>2026-05-03T09:37:37.001Z</time></trkpt><trkpt lat="43.72531139671615" lon="11.34508706668388"><ele>162.0</ele><time>2026-05-03T09:37:39.001Z</time></trkpt><trkpt lat="43.725237360931466" lon="11.345096647971348"><ele>162.0</ele><time>2026-05-03T09:37:40.001Z</time></trkpt><trkpt lat="43.72516477340879" lon="11.345111673288837"><ele>162.0</ele><time>2026-05-03T09:37:41.001Z</time></trkpt><trkpt lat="43.72509164588712" lon="11.345131917408551"><ele>162.0</ele><time>2026-05-03T09:37:42.001Z</time></trkpt><trkpt lat="43.725031944877394" lon="11.345085806216403"><ele>162.0</ele><time>2026-05-03T09:37:43.001Z</time></trkpt><trkpt lat="43.7249626624001" lon="11.345100886356608"><ele>161.4</ele><time>2026-05-03T09:37:44.001Z</time></trkpt><trkpt lat="43.72485613880572" lon="11.345141746808636"><ele>160.79999999999998</ele><time>2026-05-03T09:37:46.001Z</time></trkpt><trkpt lat="43.724804659330474" lon="11.345223189395597"><ele>160.2</ele><time>2026-05-03T09:37:47.001Z</time></trkpt><trkpt lat="43.72476575409905" lon="11.345324068916161"><ele>159.6</ele><time>2026-05-03T09:37:49.001Z</time></trkpt><trkpt lat="43.72472537935003" lon="11.345396145550204"><ele>159.0</ele><time>2026-05-03T09:37:54.001Z</time></trkpt><trkpt lat="43.724599515612134" lon="11.345287472275665"><ele>159.0</ele><time>2026-05-03T09:37:55.001Z</time></trkpt><trkpt lat="43.72467777458404" lon="11.34532056174388"><ele>159.0</ele><time>2026-05-03T09:38:03.001Z</time></trkpt><trkpt lat="43.72476430537769" lon="11.345310352454966"><ele>159.0</ele><time>2026-05-03T09:38:06.001Z</time></trkpt><trkpt lat="43.724677620656266" lon="11.345367584070653"><ele>159.0</ele><time>2026-05-03T09:38:12.001Z</time></trkpt><trkpt lat="43.72462213992967" lon="11.345551009747714"><ele>159.0</ele><time>2026-05-03T09:38:14.001Z</time></trkpt><trkpt lat="43.72458908059502" lon="11.345672832844748"><ele>159.25</ele><time>2026-05-03T09:38:15.001Z</time></trkpt><trkpt lat="43.724554670449066" lon="11.345824620741855"><ele>159.5</ele><time>2026-05-03T09:38:17.001Z</time></trkpt><trkpt lat="43.72448042473719" lon="11.34583333046079"><ele>159.75</ele><time>2026-05-03T09:38:18.001Z</time></trkpt><trkpt lat="43.72436337327797" lon="11.345822629174654"><ele>160.0</ele><time>2026-05-03T09:38:20.001Z</time></trkpt><trkpt lat="43.72420650740898" lon="11.345915933940324"><ele>162.5</ele><time>2026-05-03T09:38:22.001Z</time></trkpt><trkpt lat="43.72414068347721" lon="11.345943871573265"><ele>165.0</ele><time>2026-05-03T09:38:23.001Z</time></trkpt><trkpt lat="43.724039118412165" lon="11.34601161380948"><ele>167.5</ele><time>2026-05-03T09:38:25.001Z</time></trkpt><trkpt lat="43.72397947337476" lon="11.346047067708737"><ele>170.0</ele><time>2026-05-03T09:38:26.001Z</time></trkpt><trkpt lat="43.723907236733865" lon="11.346098169730386"><ele>172.5</ele><time>2026-05-03T09:38:27.001Z</time></trkpt><trkpt lat="43.723852035762725" lon="11.346148431650372"><ele>175.0</ele><time>2026-05-03T09:38:28.001Z</time></trkpt><trkpt lat="43.723844952150635" lon="11.346274572228468"><ele>178.0</ele><time>2026-05-03T09:38:29.001Z</time></trkpt><trkpt lat="43.723750480637506" lon="11.346436985301544"><ele>181.0</ele><time>2026-05-03T09:38:31Z</time></trkpt><trkpt lat="43.72367903433787" lon="11.346506262728234"><ele>184.0</ele><time>2026-05-03T09:38:32Z</time></trkpt><trkpt lat="43.72361084430043" lon="11.346560589048359"><ele>187.0</ele><time>2026-05-03T09:38:33Z</time></trkpt><trkpt lat="43.723519042759506" lon="11.346638422083455"><ele>190.0</ele><time>2026-05-03T09:38:34Z</time></trkpt><trkpt lat="43.723447055231965" lon="11.346701988192578"><ele>190.5</ele><time>2026-05-03T09:38:35Z</time></trkpt><trkpt lat="43.723362620263686" lon="11.34680934643743"><ele>191.0</ele><time>2026-05-03T09:38:37Z</time></trkpt><trkpt lat="43.72331818739243" lon="11.346946594290367"><ele>191.5</ele><time>2026-05-03T09:38:39Z</time></trkpt><trkpt lat="43.72331058238432" lon="11.347144294796518"><ele>192.0</ele><time>2026-05-03T09:38:41Z</time></trkpt><trkpt lat="43.72331640877747" lon="11.347270480390327"><ele>194.0</ele><time>2026-05-03T09:38:42Z</time></trkpt><trkpt lat="43.72334074380812" lon="11.347369918635101"><ele>196.0</ele><time>2026-05-03T09:38:43Z</time></trkpt><trkpt lat="43.72337549965099" lon="11.347453944981474"><ele>198.0</ele><time>2026-05-03T09:38:44Z</time></trkpt><trkpt lat="43.72342729202559" lon="11.347516039014808"><ele>200.0</ele><time>2026-05-03T09:38:46Z</time></trkpt><trkpt lat="43.723514220379386" lon="11.347516155012086"><ele>202.0</ele><time>2026-05-03T09:38:48Z</time></trkpt><trkpt lat="43.7235748742328" lon="11.347459481527526"><ele>204.0</ele><time>2026-05-03T09:38:49Z</time></trkpt><trkpt lat="43.72367752499733" lon="11.347458804865147"><ele>204.0</ele><time>2026-05-03T09:38:52Z</time></trkpt><trkpt lat="43.72374229503442" lon="11.347440897775018"><ele>204.0</ele><time>2026-05-03T09:38:56Z</time></trkpt><trkpt lat="43.72381375090903" lon="11.347421142232202"><ele>204.0</ele><time>2026-05-03T09:38:59Z</time></trkpt><trkpt lat="43.72379096932835" lon="11.347834125044274"><ele>204.0</ele><time>2026-05-03T09:39:03Z</time></trkpt><trkpt lat="43.72380902378285" lon="11.347937907635416"><ele>204.0</ele><time>2026-05-03T09:39:07Z</time></trkpt><trkpt lat="43.723784627313435" lon="11.34804117868061"><ele>204.0</ele><time>2026-05-03T09:39:13Z</time></trkpt><trkpt lat="43.72368334219416" lon="11.348114727426543"><ele>204.0</ele><time>2026-05-03T09:39:15Z</time></trkpt><trkpt lat="43.72363867781591" lon="11.34817869963847"><ele>204.0</ele><time>2026-05-03T09:39:16Z</time></trkpt><trkpt lat="43.72360347965168" lon="11.348326009846994"><ele>204.0</ele><time>2026-05-03T09:39:18Z</time></trkpt><trkpt lat="43.72355394064746" lon="11.348499655049427"><ele>207.2</ele><time>2026-05-03T09:39:20Z</time></trkpt><trkpt lat="43.72352487725336" lon="11.348590015432269"><ele>210.39999999999998</ele><time>2026-05-03T09:39:21Z</time></trkpt><trkpt lat="43.7235035464652" lon="11.348676387551063"><ele>213.6</ele><time>2026-05-03T09:39:22Z</time></trkpt><trkpt lat="43.72345563700863" lon="11.348839579021549"><ele>216.8</ele><time>2026-05-03T09:39:24Z</time></trkpt><trkpt lat="43.72339176016848" lon="11.348969866497358"><ele>220.0</ele><time>2026-05-03T09:39:26Z</time></trkpt><trkpt lat="43.72334605912174" lon="11.349086352063733"><ele>223.16666666666666</ele><time>2026-05-03T09:39:28Z</time></trkpt><trkpt lat="43.72330661536285" lon="11.34919305113068"><ele>226.33333333333331</ele><time>2026-05-03T09:39:30Z</time></trkpt><trkpt lat="43.72326180816038" lon="11.34930027535681"><ele>229.5</ele><time>2026-05-03T09:39:32Z</time></trkpt><trkpt lat="43.72323534864221" lon="11.349385632766607"><ele>232.66666666666669</ele><time>2026-05-03T09:39:33Z</time></trkpt><trkpt lat="43.72316357937796" lon="11.349498247983144"><ele>235.83333333333334</ele><time>2026-05-03T09:39:35Z</time></trkpt><trkpt lat="43.723118656856194" lon="11.349611225621668"><ele>239.0</ele><time>2026-05-03T09:39:37.001Z</time></trkpt><trkpt lat="43.72306749537297" lon="11.349726742494656"><ele>242.50000000000003</ele><time>2026-05-03T09:39:45.001Z</time></trkpt><trkpt lat="43.72300563272123" lon="11.349803536573898"><ele>246.0</ele><time>2026-05-03T09:39:47.001Z</time></trkpt><trkpt lat="43.722960084341906" lon="11.349868280478091"><ele>249.5</ele><time>2026-05-03T09:40:27.001Z</time></trkpt><trkpt lat="43.72302942118497" lon="11.349907940302364"><ele>253.0</ele><time>2026-05-03T09:42:00.001Z</time></trkpt><trkpt lat="43.72312198187695" lon="11.349878896772168"><ele>256.5</ele><time>2026-05-03T09:42:01.001Z</time></trkpt><trkpt lat="43.72321080448565" lon="11.349870723219956"><ele>260.0</ele><time>2026-05-03T09:42:02.001Z</time></trkpt><trkpt lat="43.72331210044904" lon="11.34983867450164"><ele>260.0</ele><time>2026-05-03T09:42:03.001Z</time></trkpt><trkpt lat="43.723410454074966" lon="11.349847038164887"><ele>260.0</ele><time>2026-05-03T09:42:04.001Z</time></trkpt><trkpt lat="43.723476581238366" lon="11.349862386471678"><ele>260.0</ele><time>2026-05-03T09:42:06.001Z</time></trkpt><trkpt lat="43.723461485198776" lon="11.350064757914375"><ele>260.0</ele><time>2026-05-03T09:42:08.001Z</time></trkpt><trkpt lat="43.72340649755818" lon="11.35012520565751"><ele>260.0</ele><time>2026-05-03T09:42:09.001Z</time></trkpt><trkpt lat="43.72334053974436" lon="11.350202804564088"><ele>260.0</ele><time>2026-05-03T09:42:10.001Z</time></trkpt><trkpt lat="43.72327523575894" lon="11.350260884122369"><ele>260.0</ele><time>2026-05-03T09:42:11.001Z</time></trkpt><trkpt lat="43.723200846530254" lon="11.350307762331056"><ele>260.0</ele><time>2026-05-03T09:42:13.001Z</time></trkpt><trkpt lat="43.72313505206419" lon="11.350336393228583"><ele>260.0</ele><time>2026-05-03T09:42:15.001Z</time></trkpt><trkpt lat="43.723051962865405" lon="11.350329882675336"><ele>260.0</ele><time>2026-05-03T09:42:17.001Z</time></trkpt><trkpt lat="43.72294369034506" lon="11.35035061506091"><ele>260.0</ele><time>2026-05-03T09:42:19.001Z</time></trkpt><trkpt lat="43.722659946452055" lon="11.350444806508442"><ele>264.0</ele><time>2026-05-03T09:42:21.001Z</time></trkpt><trkpt lat="43.72253081458835" lon="11.350633400054475"><ele>268.0</ele><time>2026-05-03T09:42:23.001Z</time></trkpt><trkpt lat="43.722816873309824" lon="11.35084923663185"><ele>268.0</ele><time>2026-05-03T09:42:32.001Z</time></trkpt><trkpt lat="43.72273782859131" lon="11.350852743621203"><ele>268.0</ele><time>2026-05-03T09:42:38.001Z</time></trkpt><trkpt lat="43.72280237515444" lon="11.350864353402606"><ele>268.0</ele><time>2026-05-03T09:42:57Z</time></trkpt><trkpt lat="43.72274476004249" lon="11.350962833902631"><ele>268.0</ele><time>2026-05-03T09:43:09Z</time></trkpt><trkpt lat="43.7227052357009" lon="11.351079152146962"><ele>268.0</ele><time>2026-05-03T09:43:11Z</time></trkpt><trkpt lat="43.722665891396595" lon="11.35115153624421"><ele>268.0</ele><time>2026-05-03T09:43:12Z</time></trkpt><trkpt lat="43.72262556312981" lon="11.351301401013611"><ele>268.0</ele><time>2026-05-03T09:43:14Z</time></trkpt><trkpt lat="43.72259938405743" lon="11.351410370744574"><ele>268.0</ele><time>2026-05-03T09:43:16Z</time></trkpt><trkpt lat="43.72258649672673" lon="11.351497605132705"><ele>268.0</ele><time>2026-05-03T09:43:32Z</time></trkpt><trkpt lat="43.72263913073445" lon="11.35139196624874"><ele>268.0</ele><time>2026-05-03T09:44:57Z</time></trkpt><trkpt lat="43.72266176656776" lon="11.351256311650316"><ele>268.0</ele><time>2026-05-03T09:45:00Z</time></trkpt><trkpt lat="43.72270197863507" lon="11.351167103865139"><ele>268.0</ele><time>2026-05-03T09:45:02Z</time></trkpt><trkpt lat="43.72276234344991" lon="11.35110474247005"><ele>270.66666666666663</ele><time>2026-05-03T09:45:06Z</time></trkpt><trkpt lat="43.722797563677865" lon="11.350983283989779"><ele>273.3333333333333</ele><time>2026-05-03T09:45:09Z</time></trkpt><trkpt lat="43.722857719017334" lon="11.35090365645425"><ele>276.0</ele><time>2026-05-03T09:45:11Z</time></trkpt><trkpt lat="43.72290123241627" lon="11.350840622318618"><ele>278.6666666666667</ele><time>2026-05-03T09:45:13Z</time></trkpt><trkpt lat="43.72297618191984" lon="11.350755205020617"><ele>281.33333333333337</ele><time>2026-05-03T09:45:16Z</time></trkpt><trkpt lat="43.723035158754" lon="11.350689788625145"><ele>284.0</ele><time>2026-05-03T09:45:18Z</time></trkpt><trkpt lat="43.72308285999014" lon="11.35060800248914"><ele>280.0</ele><time>2026-05-03T09:45:20Z</time></trkpt><trkpt lat="43.723133044895675" lon="11.350530685822362"><ele>276.0</ele><time>2026-05-03T09:45:22Z</time></trkpt><trkpt lat="43.72319559818225" lon="11.350449904804998"><ele>272.0</ele><time>2026-05-03T09:45:25Z</time></trkpt><trkpt lat="43.723236405898106" lon="11.350356223456174"><ele>268.0</ele><time>2026-05-03T09:45:28Z</time></trkpt><trkpt lat="43.723292159778296" lon="11.350291539772778"><ele>264.0</ele><time>2026-05-03T09:45:30Z</time></trkpt><trkpt lat="43.72336806272058" lon="11.350276840185195"><ele>260.0</ele><time>2026-05-03T09:45:33Z</time></trkpt><trkpt lat="43.723485633182165" lon="11.350254483108959"><ele>259.4</ele><time>2026-05-03T09:45:36Z</time></trkpt><trkpt lat="43.723599941363986" lon="11.350242970164933"><ele>258.8</ele><time>2026-05-03T09:45:38Z</time></trkpt><trkpt lat="43.7236989945488" lon="11.350231578771872"><ele>258.2</ele><time>2026-05-03T09:45:40Z</time></trkpt><trkpt lat="43.72380811227629" lon="11.350225990229825"><ele>257.6</ele><time>2026-05-03T09:45:42Z</time></trkpt><trkpt lat="43.72386301781621" lon="11.350268951444319"><ele>257.0</ele><time>2026-05-03T09:45:45Z</time></trkpt><trkpt lat="43.72394819111229" lon="11.350282360659216"><ele>257.0</ele><time>2026-05-03T09:45:47Z</time></trkpt><trkpt lat="43.72401853091208" lon="11.350326407152162"><ele>257.0</ele><time>2026-05-03T09:45:48Z</time></trkpt><trkpt lat="43.724144022098166" lon="11.350355554729619"><ele>257.0</ele><time>2026-05-03T09:45:50Z</time></trkpt><trkpt lat="43.72423315799908" lon="11.350436674732446"><ele>257.0</ele><time>2026-05-03T09:45:53Z</time></trkpt><trkpt lat="43.72430244367084" lon="11.350473375993403"><ele>257.0</ele><time>2026-05-03T09:45:55.001Z</time></trkpt><trkpt lat="43.724368890444744" lon="11.350447370590054"><ele>255.75</ele><time>2026-05-03T09:45:57.001Z</time></trkpt><trkpt lat="43.72452629420132" lon="11.350401234029496"><ele>254.5</ele><time>2026-05-03T09:45:59.001Z</time></trkpt><trkpt lat="43.72458899440549" lon="11.35037364498272"><ele>253.25</ele><time>2026-05-03T09:46:00.001Z</time></trkpt><trkpt lat="43.72471951598752" lon="11.350306566741056"><ele>252.0</ele><time>2026-05-03T09:46:02.001Z</time></trkpt><trkpt lat="43.72482457878176" lon="11.35030951339524"><ele>252.0</ele><time>2026-05-03T09:46:03.001Z</time></trkpt><trkpt lat="43.72490121100384" lon="11.350306842940947"><ele>252.0</ele><time>2026-05-03T09:46:05.001Z</time></trkpt><trkpt lat="43.72499348884866" lon="11.350370295207195"><ele>252.0</ele><time>2026-05-03T09:46:07.001Z</time></trkpt><trkpt lat="43.72507052112577" lon="11.350472841651344"><ele>252.0</ele><time>2026-05-03T09:46:09.001Z</time></trkpt><trkpt lat="43.72511364427865" lon="11.350601318783127"><ele>252.0</ele><time>2026-05-03T09:46:11.001Z</time></trkpt><trkpt lat="43.72515253195471" lon="11.35071619540774"><ele>251.66666666666666</ele><time>2026-05-03T09:46:13.001Z</time></trkpt><trkpt lat="43.72518613118092" lon="11.350832292722295"><ele>251.33333333333331</ele><time>2026-05-03T09:46:15.001Z</time></trkpt><trkpt lat="43.72528061175145" lon="11.350860761745537"><ele>251.0</ele><time>2026-05-03T09:46:17.001Z</time></trkpt><trkpt lat="43.72536107016709" lon="11.350868908228676"><ele>250.66666666666666</ele><time>2026-05-03T09:46:18.001Z</time></trkpt><trkpt lat="43.725444820457575" lon="11.350835818519853"><ele>250.33333333333331</ele><time>2026-05-03T09:46:19.001Z</time></trkpt><trkpt lat="43.72552991324024" lon="11.350818248589"><ele>250.0</ele><time>2026-05-03T09:46:20.001Z</time></trkpt><trkpt lat="43.725603861249624" lon="11.350882835731568"><ele>250.0</ele><time>2026-05-03T09:46:22.001Z</time></trkpt><trkpt lat="43.72566715158067" lon="11.350961631660889"><ele>250.0</ele><time>2026-05-03T09:46:23.001Z</time></trkpt><trkpt lat="43.72571992590563" lon="11.351050722996176"><ele>250.0</ele><time>2026-05-03T09:46:24.001Z</time></trkpt><trkpt lat="43.72575394809795" lon="11.351126616675105"><ele>250.0</ele><time>2026-05-03T09:46:25.001Z</time></trkpt><trkpt lat="43.72578727864289" lon="11.35120313730123"><ele>250.0</ele><time>2026-05-03T09:46:26.001Z</time></trkpt><trkpt lat="43.72581181481667" lon="11.351303662200403"><ele>250.0</ele><time>2026-05-03T09:46:27.001Z</time></trkpt><trkpt lat="43.72583140779243" lon="11.35139367216426"><ele>250.0</ele><time>2026-05-03T09:46:28.001Z</time></trkpt><trkpt lat="43.72583915214142" lon="11.351491251155302"><ele>252.6</ele><time>2026-05-03T09:46:29.001Z</time></trkpt><trkpt lat="43.72585228155209" lon="11.351653138888217"><ele>255.2</ele><time>2026-05-03T09:46:31.001Z</time></trkpt><trkpt lat="43.72590497630829" lon="11.35179239910288"><ele>257.8</ele><time>2026-05-03T09:46:33.001Z</time></trkpt><trkpt lat="43.72597327268065" lon="11.351895103878492"><ele>260.4</ele><time>2026-05-03T09:46:35.001Z</time></trkpt><trkpt lat="43.72603303050666" lon="11.352032659711112"><ele>263.0</ele><time>2026-05-03T09:46:37.001Z</time></trkpt><trkpt lat="43.72605365354016" lon="11.352196271504614"><ele>264.0</ele><time>2026-05-03T09:46:39.001Z</time></trkpt><trkpt lat="43.72601140042953" lon="11.352346531719974"><ele>265.0</ele><time>2026-05-03T09:46:41.001Z</time></trkpt><trkpt lat="43.72597655240806" lon="11.352425064654927"><ele>266.0</ele><time>2026-05-03T09:46:42.001Z</time></trkpt><trkpt lat="43.72593348522698" lon="11.352520094449783"><ele>267.0</ele><time>2026-05-03T09:46:43.001Z</time></trkpt><trkpt lat="43.72590646146571" lon="11.35263081667804"><ele>268.0</ele><time>2026-05-03T09:46:44.001Z</time></trkpt><trkpt lat="43.72588911599441" lon="11.352792261913828"><ele>268.0</ele><time>2026-05-03T09:46:45.001Z</time></trkpt><trkpt lat="43.72588131400961" lon="11.352918807680224"><ele>268.0</ele><time>2026-05-03T09:46:46.001Z</time></trkpt><trkpt lat="43.72587772102117" lon="11.353038063623357"><ele>268.0</ele><time>2026-05-03T09:46:47.001Z</time></trkpt><trkpt lat="43.72589959183784" lon="11.353125759807217"><ele>268.0</ele><time>2026-05-03T09:46:48.001Z</time></trkpt><trkpt lat="43.72591212566579" lon="11.353212616483356"><ele>268.0</ele><time>2026-05-03T09:46:49.001Z</time></trkpt><trkpt lat="43.725897855536125" lon="11.353382143316965"><ele>268.0</ele><time>2026-05-03T09:46:51.001Z</time></trkpt><trkpt lat="43.72587986602368" lon="11.353476607526748"><ele>269.3333333333333</ele><time>2026-05-03T09:46:52.001Z</time></trkpt><trkpt lat="43.725893323628654" lon="11.353596919951764"><ele>270.66666666666663</ele><time>2026-05-03T09:46:53.001Z</time></trkpt><trkpt lat="43.72586432419863" lon="11.353702785222149"><ele>272.0</ele><time>2026-05-03T09:46:54.001Z</time></trkpt><trkpt lat="43.725864279384616" lon="11.353815673795431"><ele>273.3333333333333</ele><time>2026-05-03T09:46:55Z</time></trkpt><trkpt lat="43.725902266035796" lon="11.353939434053762"><ele>274.6666666666667</ele><time>2026-05-03T09:46:56Z</time></trkpt><trkpt lat="43.725927085949756" lon="11.354038863398788"><ele>276.0</ele><time>2026-05-03T09:46:57Z</time></trkpt><trkpt lat="43.725943913148114" lon="11.354192036568703"><ele>276.8</ele><time>2026-05-03T09:46:58Z</time></trkpt><trkpt lat="43.72595694858711" lon="11.354405162800774"><ele>277.6</ele><time>2026-05-03T09:47:00Z</time></trkpt><trkpt lat="43.72594156860703" lon="11.35451102962045"><ele>278.4</ele><time>2026-05-03T09:47:01Z</time></trkpt><trkpt lat="43.72597304580758" lon="11.35461120914408"><ele>279.2</ele><time>2026-05-03T09:47:02Z</time></trkpt><trkpt lat="43.72597649538845" lon="11.354769428467337"><ele>280.0</ele><time>2026-05-03T09:47:04Z</time></trkpt><trkpt lat="43.725951189507235" lon="11.354871617521255"><ele>280.0</ele><time>2026-05-03T09:47:05Z</time></trkpt><trkpt lat="43.725857115573206" lon="11.354935497349366"><ele>280.0</ele><time>2026-05-03T09:47:07Z</time></trkpt><trkpt lat="43.72575762980018" lon="11.35495596678182"><ele>280.0</ele><time>2026-05-03T09:47:09Z</time></trkpt><trkpt lat="43.725661614294154" lon="11.354981464406302"><ele>280.0</ele><time>2026-05-03T09:47:11Z</time></trkpt><trkpt lat="43.7255993341608" lon="11.354967430374339"><ele>280.0</ele><time>2026-05-03T09:47:12Z</time></trkpt><trkpt lat="43.72551266998274" lon="11.355030002389928"><ele>280.0</ele><time>2026-05-03T09:47:14Z</time></trkpt><trkpt lat="43.72537000602318" lon="11.355126375204911"><ele>280.0</ele><time>2026-05-03T09:47:16Z</time></trkpt><trkpt lat="43.72526786755191" lon="11.355180979795293"><ele>280.0</ele><time>2026-05-03T09:47:18Z</time></trkpt><trkpt lat="43.72518846207135" lon="11.355221660713486"><ele>280.0</ele><time>2026-05-03T09:47:19Z</time></trkpt><trkpt lat="43.7251175354423" lon="11.35526095407817"><ele>280.0</ele><time>2026-05-03T09:47:20Z</time></trkpt><trkpt lat="43.7250252451615" lon="11.355308549633092"><ele>282.2</ele><time>2026-05-03T09:47:21Z</time></trkpt><trkpt lat="43.72495894446119" lon="11.35535356891716"><ele>284.4</ele><time>2026-05-03T09:47:22Z</time></trkpt><trkpt lat="43.72485332113012" lon="11.355450485494904"><ele>286.6</ele><time>2026-05-03T09:47:24Z</time></trkpt><trkpt lat="43.724796401340676" lon="11.355535734085349"><ele>288.8</ele><time>2026-05-03T09:47:25Z</time></trkpt><trkpt lat="43.724734603506114" lon="11.355631636396977"><ele>291.0</ele><time>2026-05-03T09:47:26Z</time></trkpt><trkpt lat="43.72465214634252" lon="11.355743706385777"><ele>291.0</ele><time>2026-05-03T09:47:27Z</time></trkpt><trkpt lat="43.724608347646345" lon="11.355833986560189"><ele>291.0</ele><time>2026-05-03T09:47:28Z</time></trkpt><trkpt lat="43.72453541322307" lon="11.35593221293626"><ele>291.0</ele><time>2026-05-03T09:47:30Z</time></trkpt><trkpt lat="43.724488801748166" lon="11.356019503478914"><ele>291.0</ele><time>2026-05-03T09:47:33Z</time></trkpt><trkpt lat="43.72438586716438" lon="11.356112474931102"><ele>291.0</ele><time>2026-05-03T09:47:36Z</time></trkpt><trkpt lat="43.724282785792724" lon="11.3561646547774"><ele>295.8</ele><time>2026-05-03T09:47:38Z</time></trkpt><trkpt lat="43.72419697774736" lon="11.356191437518358"><ele>300.6</ele><time>2026-05-03T09:47:40Z</time></trkpt><trkpt lat="43.72415617384825" lon="11.35630558614506"><ele>305.4</ele><time>2026-05-03T09:47:42Z</time></trkpt><trkpt lat="43.72417124116858" lon="11.356412132121996"><ele>310.2</ele><time>2026-05-03T09:47:44Z</time></trkpt><trkpt lat="43.72414766051269" lon="11.356519580626047"><ele>315.0</ele><time>2026-05-03T09:47:45Z</time></trkpt><trkpt lat="43.724138500666854" lon="11.356756887409844"><ele>315.0</ele><time>2026-05-03T09:47:47Z</time></trkpt><trkpt lat="43.72411869837173" lon="11.35693916620798"><ele>315.0</ele><time>2026-05-03T09:47:49Z</time></trkpt><trkpt lat="43.72419730894589" lon="11.357023014885362"><ele>315.0</ele><time>2026-05-03T09:47:52Z</time></trkpt><trkpt lat="43.72426349563123" lon="11.357057675857549"><ele>315.0</ele><time>2026-05-03T09:47:53Z</time></trkpt><trkpt lat="43.72441545756521" lon="11.357044408464072"><ele>311.5</ele><time>2026-05-03T09:47:55Z</time></trkpt><trkpt lat="43.72447364315392" lon="11.357000980445338"><ele>308.0</ele><time>2026-05-03T09:47:57Z</time></trkpt><trkpt lat="43.72452517774652" lon="11.357100325249633"><ele>304.5</ele><time>2026-05-03T09:47:59Z</time></trkpt><trkpt lat="43.7245959961654" lon="11.357254809595272"><ele>301.0</ele><time>2026-05-03T09:48:01Z</time></trkpt><trkpt lat="43.724648998328206" lon="11.357334157362505"><ele>297.5</ele><time>2026-05-03T09:48:02Z</time></trkpt><trkpt lat="43.72469058967445" lon="11.357421754086896"><ele>294.0</ele><time>2026-05-03T09:48:03Z</time></trkpt><trkpt lat="43.72472320002501" lon="11.35756108927381"><ele>294.0</ele><time>2026-05-03T09:48:05Z</time></trkpt><trkpt lat="43.72475948737159" lon="11.357718881740029"><ele>294.0</ele><time>2026-05-03T09:48:07Z</time></trkpt><trkpt lat="43.72478070826275" lon="11.357826722842864"><ele>294.0</ele><time>2026-05-03T09:48:09Z</time></trkpt><trkpt lat="43.7247859794574" lon="11.357919107491666"><ele>294.0</ele><time>2026-05-03T09:48:10Z</time></trkpt><trkpt lat="43.7248405457776" lon="11.357993437731865"><ele>294.0</ele><time>2026-05-03T09:48:11Z</time></trkpt><trkpt lat="43.72484768814049" lon="11.358159334323165"><ele>295.0</ele><time>2026-05-03T09:48:13Z</time></trkpt><trkpt lat="43.724859374372926" lon="11.358254648081976"><ele>296.0</ele><time>2026-05-03T09:48:14Z</time></trkpt><trkpt lat="43.72487211327818" lon="11.358342059285828"><ele>297.0</ele><time>2026-05-03T09:48:15Z</time></trkpt><trkpt lat="43.72490335028345" lon="11.358525657306457"><ele>298.0</ele><time>2026-05-03T09:48:17.001Z</time></trkpt><trkpt lat="43.724912771900314" lon="11.35862044491975"><ele>299.0</ele><time>2026-05-03T09:48:18.001Z</time></trkpt><trkpt lat="43.72493495873093" lon="11.358736929345373"><ele>300.0</ele><time>2026-05-03T09:48:19.001Z</time></trkpt><trkpt lat="43.72497165663573" lon="11.358874894352482"><ele>300.57142857142856</ele><time>2026-05-03T09:48:20.001Z</time></trkpt><trkpt lat="43.724990045000396" lon="11.358967678390824"><ele>301.1428571428571</ele><time>2026-05-03T09:48:21.001Z</time></trkpt><trkpt lat="43.72500425765059" lon="11.359070206577925"><ele>301.71428571428567</ele><time>2026-05-03T09:48:22.001Z</time></trkpt><trkpt lat="43.725025168073614" lon="11.35916350857487"><ele>302.2857142857143</ele><time>2026-05-03T09:48:23.001Z</time></trkpt><trkpt lat="43.725090929081645" lon="11.35917339964457"><ele>302.8571428571429</ele><time>2026-05-03T09:48:24.001Z</time></trkpt><trkpt lat="43.72510900092263" lon="11.359304355643737"><ele>303.4285714285714</ele><time>2026-05-03T09:48:26.001Z</time></trkpt><trkpt lat="43.72517123822108" lon="11.359326500981243"><ele>304.0</ele><time>2026-05-03T09:48:29.001Z</time></trkpt><trkpt lat="43.72527725031484" lon="11.359630342405135"><ele>305.16666666666663</ele><time>2026-05-03T09:49:14Z</time></trkpt><trkpt lat="43.72523952811264" lon="11.359713105341376"><ele>306.3333333333333</ele><time>2026-05-03T09:49:16Z</time></trkpt><trkpt lat="43.72520280713043" lon="11.35979400178065"><ele>307.5</ele><time>2026-05-03T09:49:18Z</time></trkpt><trkpt lat="43.725143640792375" lon="11.359889313574582"><ele>308.6666666666667</ele><time>2026-05-03T09:49:21Z</time></trkpt><trkpt lat="43.725081279689256" lon="11.359987286731267"><ele>309.83333333333337</ele><time>2026-05-03T09:49:23Z</time></trkpt><trkpt lat="43.72504503073485" lon="11.360114068239326"><ele>311.0</ele><time>2026-05-03T09:49:25Z</time></trkpt><trkpt lat="43.725022795866856" lon="11.360227078545543"><ele>311.0</ele><time>2026-05-03T09:49:26Z</time></trkpt><trkpt lat="43.72502241683512" lon="11.360342428337535"><ele>311.0</ele><time>2026-05-03T09:49:29Z</time></trkpt><trkpt lat="43.725005880537715" lon="11.360450004955975"><ele>311.0</ele><time>2026-05-03T09:49:31Z</time></trkpt><trkpt lat="43.724990101943376" lon="11.36055242291921"><ele>311.0</ele><time>2026-05-03T09:49:33Z</time></trkpt><trkpt lat="43.72499652813518" lon="11.36071505304597"><ele>311.0</ele><time>2026-05-03T09:49:35Z</time></trkpt><trkpt lat="43.72499779483458" lon="11.36082744579923"><ele>311.0</ele><time>2026-05-03T09:49:38Z</time></trkpt><trkpt lat="43.72500443905533" lon="11.360916035321234"><ele>313.2857142857143</ele><time>2026-05-03T09:49:41Z</time></trkpt><trkpt lat="43.725011574869704" lon="11.361037899769336"><ele>315.5714285714286</ele><time>2026-05-03T09:49:43Z</time></trkpt><trkpt lat="43.72503146379548" lon="11.36092750192553"><ele>317.8571428571429</ele><time>2026-05-03T09:51:31Z</time></trkpt><trkpt lat="43.725024894498816" lon="11.360839248810173"><ele>320.1428571428571</ele><time>2026-05-03T09:51:34Z</time></trkpt><trkpt lat="43.72502162498746" lon="11.360939862301981"><ele>322.42857142857144</ele><time>2026-05-03T09:53:45Z</time></trkpt><trkpt lat="43.725027782619705" lon="11.361035505908292"><ele>324.7142857142857</ele><time>2026-05-03T09:53:47Z</time></trkpt><trkpt lat="43.72501252370183" lon="11.361128941698196"><ele>327.0</ele><time>2026-05-03T09:55:12Z</time></trkpt><trkpt lat="43.72501905849528" lon="11.361246602604393"><ele>329.20000000000005</ele><time>2026-05-03T09:55:19Z</time></trkpt><trkpt lat="43.72502510704986" lon="11.361386092594426"><ele>331.4</ele><time>2026-05-03T09:55:21Z</time></trkpt><trkpt lat="43.72503701147886" lon="11.361518324944182"><ele>333.6</ele><time>2026-05-03T09:55:23Z</time></trkpt><trkpt lat="43.72504647064313" lon="11.36166359426019"><ele>335.79999999999995</ele><time>2026-05-03T09:55:25Z</time></trkpt><trkpt lat="43.725053498188" lon="11.36182701003163"><ele>338.0</ele><time>2026-05-03T09:55:27Z</time></trkpt><trkpt lat="43.72505628201286" lon="11.361952649031032"><ele>338.0</ele><time>2026-05-03T09:55:29Z</time></trkpt><trkpt lat="43.72502106570051" lon="11.362037491671398"><ele>338.0</ele><time>2026-05-03T09:55:31Z</time></trkpt><trkpt lat="43.72500759411507" lon="11.362162238880552"><ele>338.0</ele><time>2026-05-03T09:55:34Z</time></trkpt><trkpt lat="43.72499188509127" lon="11.36226055574919"><ele>338.0</ele><time>2026-05-03T09:55:36Z</time></trkpt><trkpt lat="43.7249719792743" lon="11.362378858400417"><ele>338.0</ele><time>2026-05-03T09:55:39Z</time></trkpt><trkpt lat="43.72485559088815" lon="11.362673391359396"><ele>339.0</ele><time>2026-05-03T09:55:42Z</time></trkpt><trkpt lat="43.7247585591613" lon="11.362767325665123"><ele>340.0</ele><time>2026-05-03T09:55:44Z</time></trkpt><trkpt lat="43.72466344127046" lon="11.362864941661893"><ele>341.0</ele><time>2026-05-03T09:55:46Z</time></trkpt><trkpt lat="43.724615987522256" lon="11.362964600682757"><ele>342.0</ele><time>2026-05-03T09:55:48Z</time></trkpt><trkpt lat="43.72466523055199" lon="11.362910216066227"><ele>343.0</ele><time>2026-05-03T09:56:02Z</time></trkpt><trkpt lat="43.72457349260079" lon="11.362859032333988"><ele>343.0</ele><time>2026-05-03T09:56:08Z</time></trkpt><trkpt lat="43.72465156363705" lon="11.362890771428514"><ele>343.0</ele><time>2026-05-03T09:56:11Z</time></trkpt><trkpt lat="43.724704574616084" lon="11.36281921579736"><ele>343.0</ele><time>2026-05-03T09:56:22Z</time></trkpt><trkpt lat="43.72474563087241" lon="11.362736528593155"><ele>343.0</ele><time>2026-05-03T09:56:37Z</time></trkpt><trkpt lat="43.72481577970004" lon="11.362659358529653"><ele>343.0</ele><time>2026-05-03T09:57:03Z</time></trkpt><trkpt lat="43.724741398983646" lon="11.362742893488923"><ele>343.0</ele><time>2026-05-03T09:57:27Z</time></trkpt><trkpt lat="43.72470579012674" lon="11.3628362908339"><ele>343.0</ele><time>2026-05-03T09:57:29Z</time></trkpt><trkpt lat="43.72467489162362" lon="11.362928376271014"><ele>343.0</ele><time>2026-05-03T09:57:31Z</time></trkpt><trkpt lat="43.72461961637435" lon="11.363047906674518"><ele>343.0</ele><time>2026-05-03T09:57:34Z</time></trkpt><trkpt lat="43.72459218776108" lon="11.363142548139768"><ele>343.0</ele><time>2026-05-03T09:57:36Z</time></trkpt><trkpt lat="43.72455897733762" lon="11.363258601994369"><ele>343.0</ele><time>2026-05-03T09:57:44Z</time></trkpt><trkpt lat="43.724621475478045" lon="11.363184477859123"><ele>343.0</ele><time>2026-05-03T09:57:57Z</time></trkpt><trkpt lat="43.724642646425764" lon="11.36310198646116"><ele>343.0</ele><time>2026-05-03T09:58:03Z</time></trkpt><trkpt lat="43.72457805515724" lon="11.363200302246312"><ele>343.0</ele><time>2026-05-03T09:58:29Z</time></trkpt><trkpt lat="43.72452779470425" lon="11.363253730969273"><ele>343.0</ele><time>2026-05-03T10:06:44Z</time></trkpt><trkpt lat="43.72446721524357" lon="11.36330803824833"><ele>343.0</ele><time>2026-05-03T10:06:48Z</time></trkpt><trkpt lat="43.72437451460963" lon="11.363323409313018"><ele>343.0</ele><time>2026-05-03T10:06:52Z</time></trkpt><trkpt lat="43.724284000551044" lon="11.363393030665124"><ele>343.0</ele><time>2026-05-03T10:06:54Z</time></trkpt><trkpt lat="43.72422443982005" lon="11.363508894522814"><ele>344.79999999999995</ele><time>2026-05-03T10:06:56Z</time></trkpt><trkpt lat="43.724188953513895" lon="11.363592397465608"><ele>346.6</ele><time>2026-05-03T10:06:57Z</time></trkpt><trkpt lat="43.724145262543324" lon="11.363668942241494"><ele>348.4</ele><time>2026-05-03T10:06:58Z</time></trkpt><trkpt lat="43.724058269104" lon="11.363776730120653"><ele>350.20000000000005</ele><time>2026-05-03T10:07:00Z</time></trkpt><trkpt lat="43.724014868995994" lon="11.363909413660163"><ele>352.0</ele><time>2026-05-03T10:07:02Z</time></trkpt><trkpt lat="43.7239580441678" lon="11.364049208643182"><ele>352.0</ele><time>2026-05-03T10:07:04Z</time></trkpt><trkpt lat="43.72390664018317" lon="11.36415443591893"><ele>352.0</ele><time>2026-05-03T10:07:06Z</time></trkpt><trkpt lat="43.723843426594115" lon="11.364272036684664"><ele>352.0</ele><time>2026-05-03T10:07:08Z</time></trkpt><trkpt lat="43.72375736919845" lon="11.36435303619068"><ele>352.0</ele><time>2026-05-03T10:07:10Z</time></trkpt><trkpt lat="43.72367032374998" lon="11.364379799019407"><ele>352.0</ele><time>2026-05-03T10:07:13Z</time></trkpt><trkpt lat="43.723485342723365" lon="11.364332550477103"><ele>355.3333333333333</ele><time>2026-05-03T10:07:16Z</time></trkpt><trkpt lat="43.72341931120477" lon="11.364310299683092"><ele>358.66666666666663</ele><time>2026-05-03T10:07:18Z</time></trkpt><trkpt lat="43.72331503195706" lon="11.364244371193845"><ele>362.0</ele><time>2026-05-03T10:07:21Z</time></trkpt><trkpt lat="43.7232549563158" lon="11.364215868367802"><ele>365.3333333333333</ele><time>2026-05-03T10:07:23Z</time></trkpt><trkpt lat="43.72317621713313" lon="11.364178510642631"><ele>368.6666666666667</ele><time>2026-05-03T10:07:25Z</time></trkpt><trkpt lat="43.72315563183517" lon="11.36408333095589"><ele>372.0</ele><time>2026-05-03T10:07:29Z</time></trkpt><trkpt lat="43.723248299866505" lon="11.364198034762557"><ele>372.0</ele><time>2026-05-03T10:07:54Z</time></trkpt><trkpt lat="43.72335488076528" lon="11.364251516586172"><ele>372.0</ele><time>2026-05-03T10:07:56Z</time></trkpt><trkpt lat="43.723467594502715" lon="11.364174597162247"><ele>372.0</ele><time>2026-05-03T10:07:58Z</time></trkpt><trkpt lat="43.7235239784277" lon="11.364074471835812"><ele>372.0</ele><time>2026-05-03T10:07:59Z</time></trkpt><trkpt lat="43.72356779842073" lon="11.363978887790202"><ele>372.0</ele><time>2026-05-03T10:08:00Z</time></trkpt><trkpt lat="43.72359790951233" lon="11.363869435210182"><ele>370.3333333333333</ele><time>2026-05-03T10:08:01Z</time></trkpt><trkpt lat="43.723627741416955" lon="11.363788853746428"><ele>368.6666666666667</ele><time>2026-05-03T10:08:02Z</time></trkpt><trkpt lat="43.723651734487184" lon="11.363695522264448"><ele>367.0</ele><time>2026-05-03T10:08:03Z</time></trkpt><trkpt lat="43.723672856437794" lon="11.363561372732212"><ele>365.33333333333337</ele><time>2026-05-03T10:08:04Z</time></trkpt><trkpt lat="43.72369095720448" lon="11.363445865574144"><ele>363.6666666666667</ele><time>2026-05-03T10:08:05Z</time></trkpt><trkpt lat="43.72371764698561" lon="11.363344602440984"><ele>362.0</ele><time>2026-05-03T10:08:06Z</time></trkpt><trkpt lat="43.72368499451264" lon="11.363231868237008"><ele>364.25</ele><time>2026-05-03T10:08:07Z</time></trkpt><trkpt lat="43.723724345868355" lon="11.363024401518553"><ele>366.5</ele><time>2026-05-03T10:08:09Z</time></trkpt><trkpt lat="43.7237968794582" lon="11.362847427873055"><ele>368.75</ele><time>2026-05-03T10:08:11Z</time></trkpt><trkpt lat="43.72389489847732" lon="11.362822765882456"><ele>371.0</ele><time>2026-05-03T10:08:12Z</time></trkpt><trkpt lat="43.72393299262616" lon="11.362745719233166"><ele>371.0</ele><time>2026-05-03T10:08:13Z</time></trkpt><trkpt lat="43.72398205031486" lon="11.362650872158548"><ele>371.0</ele><time>2026-05-03T10:08:14Z</time></trkpt><trkpt lat="43.72400700075868" lon="11.362558050992199"><ele>371.0</ele><time>2026-05-03T10:08:15Z</time></trkpt><trkpt lat="43.724030538064184" lon="11.362370990030572"><ele>371.0</ele><time>2026-05-03T10:08:17Z</time></trkpt><trkpt lat="43.72401769449579" lon="11.362254341005764"><ele>371.0</ele><time>2026-05-03T10:08:18Z</time></trkpt><trkpt lat="43.72394563160787" lon="11.36216380231178"><ele>370.5</ele><time>2026-05-03T10:08:19Z</time></trkpt><trkpt lat="43.723924724085805" lon="11.362037675170495"><ele>370.0</ele><time>2026-05-03T10:08:20Z</time></trkpt><trkpt lat="43.723896454182224" lon="11.361889269009161"><ele>369.5</ele><time>2026-05-03T10:08:21Z</time></trkpt><trkpt lat="43.72387679110256" lon="11.361786045413039"><ele>369.0</ele><time>2026-05-03T10:08:22Z</time></trkpt><trkpt lat="43.723842867754634" lon="11.361680243340798"><ele>368.5</ele><time>2026-05-03T10:08:23Z</time></trkpt><trkpt lat="43.723836396356916" lon="11.36156494614312"><ele>368.0</ele><time>2026-05-03T10:08:24Z</time></trkpt><trkpt lat="43.72381887838381" lon="11.36142631214934"><ele>367.0</ele><time>2026-05-03T10:08:25Z</time></trkpt><trkpt lat="43.7238166890296" lon="11.361311699390713"><ele>366.0</ele><time>2026-05-03T10:08:26Z</time></trkpt><trkpt lat="43.723832721630615" lon="11.361210931561684"><ele>365.0</ele><time>2026-05-03T10:08:27Z</time></trkpt><trkpt lat="43.72383382071806" lon="11.361113090467754"><ele>364.0</ele><time>2026-05-03T10:08:28Z</time></trkpt><trkpt lat="43.723833803136465" lon="11.36102032845272"><ele>363.0</ele><time>2026-05-03T10:08:29Z</time></trkpt><trkpt lat="43.72381670540113" lon="11.36092699516312"><ele>362.0</ele><time>2026-05-03T10:08:30Z</time></trkpt><trkpt lat="43.72380522622207" lon="11.36084043910965"><ele>361.0</ele><time>2026-05-03T10:08:31Z</time></trkpt><trkpt lat="43.723783555750565" lon="11.36072918758474"><ele>361.0</ele><time>2026-05-03T10:08:32Z</time></trkpt><trkpt lat="43.72374315723894" lon="11.36063728319515"><ele>361.0</ele><time>2026-05-03T10:08:33Z</time></trkpt><trkpt lat="43.72368990521596" lon="11.360539711008869"><ele>361.0</ele><time>2026-05-03T10:08:34Z</time></trkpt><trkpt lat="43.723637777950046" lon="11.360450285252856"><ele>361.0</ele><time>2026-05-03T10:08:35Z</time></trkpt><trkpt lat="43.72357898767188" lon="11.36035718632229"><ele>361.0</ele><time>2026-05-03T10:08:36Z</time></trkpt><trkpt lat="43.72351818024552" lon="11.360261413589082"><ele>361.0</ele><time>2026-05-03T10:08:37Z</time></trkpt><trkpt lat="43.72345675041776" lon="11.360162414221518"><ele>364.20000000000005</ele><time>2026-05-03T10:08:38Z</time></trkpt><trkpt lat="43.723397381565825" lon="11.360069020413981"><ele>367.40000000000003</ele><time>2026-05-03T10:08:39Z</time></trkpt><trkpt lat="43.723336502696164" lon="11.359980900192415"><ele>370.6</ele><time>2026-05-03T10:08:40Z</time></trkpt><trkpt lat="43.72327449281638" lon="11.35989356776559"><ele>373.8</ele><time>2026-05-03T10:08:41Z</time></trkpt><trkpt lat="43.7231981912591" lon="11.35978761432491"><ele>377.0</ele><time>2026-05-03T10:08:42Z</time></trkpt><trkpt lat="43.72314697380041" lon="11.35965803903814"><ele>377.0</ele><time>2026-05-03T10:08:44Z</time></trkpt><trkpt lat="43.72318915658958" lon="11.359572043415243"><ele>377.0</ele><time>2026-05-03T10:08:46Z</time></trkpt><trkpt lat="43.7232732457284" lon="11.359501450329233"><ele>377.0</ele><time>2026-05-03T10:08:47Z</time></trkpt><trkpt lat="43.72334535118377" lon="11.359389286132469"><ele>377.0</ele><time>2026-05-03T10:08:48Z</time></trkpt><trkpt lat="43.72337212858906" lon="11.359220548428572"><ele>377.0</ele><time>2026-05-03T10:08:50Z</time></trkpt><trkpt lat="43.72336128771838" lon="11.359121889833984"><ele>377.0</ele><time>2026-05-03T10:08:51Z</time></trkpt><trkpt lat="43.723349098365766" lon="11.359020906419994"><ele>377.0</ele><time>2026-05-03T10:08:52Z</time></trkpt><trkpt lat="43.72335004160984" lon="11.358923433418406"><ele>377.0</ele><time>2026-05-03T10:08:53Z</time></trkpt><trkpt lat="43.72329557259248" lon="11.358770092755758"><ele>377.0</ele><time>2026-05-03T10:08:55Z</time></trkpt><trkpt lat="43.72325736389051" lon="11.358641729880462"><ele>377.0</ele><time>2026-05-03T10:08:57Z</time></trkpt><trkpt lat="43.72322586362014" lon="11.358509292870012"><ele>375.20000000000005</ele><time>2026-05-03T10:08:59Z</time></trkpt><trkpt lat="43.723176952572366" lon="11.35835394331379"><ele>373.4</ele><time>2026-05-03T10:09:01Z</time></trkpt><trkpt lat="43.723134914910666" lon="11.358205893623072"><ele>371.6</ele><time>2026-05-03T10:09:03Z</time></trkpt><trkpt lat="43.7230819163593" lon="11.358135462975381"><ele>369.79999999999995</ele><time>2026-05-03T10:09:04Z</time></trkpt><trkpt lat="43.723031979385965" lon="11.358064274392751"><ele>368.0</ele><time>2026-05-03T10:09:05Z</time></trkpt><trkpt lat="43.72297957829881" lon="11.358003235518597"><ele>366.0</ele><time>2026-05-03T10:09:06Z</time></trkpt><trkpt lat="43.72292380802086" lon="11.357948744471637"><ele>364.0</ele><time>2026-05-03T10:09:07Z</time></trkpt><trkpt lat="43.72287203136289" lon="11.357892333390522"><ele>362.0</ele><time>2026-05-03T10:09:08Z</time></trkpt><trkpt lat="43.722814664349606" lon="11.357833814129224"><ele>360.0</ele><time>2026-05-03T10:09:09Z</time></trkpt><trkpt lat="43.722760732140394" lon="11.357775934806085"><ele>358.0</ele><time>2026-05-03T10:09:10Z</time></trkpt><trkpt lat="43.722680676642916" lon="11.35765319919864"><ele>356.0</ele><time>2026-05-03T10:09:12Z</time></trkpt><trkpt lat="43.722602078877756" lon="11.357560286402576"><ele>355.4</ele><time>2026-05-03T10:09:14Z</time></trkpt><trkpt lat="43.72260327033809" lon="11.357432165183297"><ele>354.8</ele><time>2026-05-03T10:09:16Z</time></trkpt><trkpt lat="43.72269081228466" lon="11.357240220475004"><ele>354.2</ele><time>2026-05-03T10:09:18Z</time></trkpt><trkpt lat="43.72271514050265" lon="11.357152843027205"><ele>353.59999999999997</ele><time>2026-05-03T10:09:20Z</time></trkpt><trkpt lat="43.722754570269615" lon="11.357021611396243"><ele>353.0</ele><time>2026-05-03T10:09:21Z</time></trkpt><trkpt lat="43.72280253859724" lon="11.35686097044343"><ele>353.0</ele><time>2026-05-03T10:09:22Z</time></trkpt><trkpt lat="43.7228365075716" lon="11.356662188512194"><ele>353.0</ele><time>2026-05-03T10:09:23Z</time></trkpt><trkpt lat="43.722845521581114" lon="11.356546422117658"><ele>353.0</ele><time>2026-05-03T10:09:24Z</time></trkpt><trkpt lat="43.72284582360093" lon="11.356434396553588"><ele>353.0</ele><time>2026-05-03T10:09:25Z</time></trkpt><trkpt lat="43.72284121543376" lon="11.356337087483634"><ele>353.0</ele><time>2026-05-03T10:09:26Z</time></trkpt><trkpt lat="43.72283329943859" lon="11.35622218366377"><ele>354.0</ele><time>2026-05-03T10:09:27Z</time></trkpt><trkpt lat="43.72278797413617" lon="11.356010511372213"><ele>355.0</ele><time>2026-05-03T10:09:29Z</time></trkpt><trkpt lat="43.72277253077817" lon="11.355911049735335"><ele>356.0</ele><time>2026-05-03T10:09:30Z</time></trkpt><trkpt lat="43.722758423482254" lon="11.35578931852725"><ele>357.0</ele><time>2026-05-03T10:09:31Z</time></trkpt><trkpt lat="43.72277747791117" lon="11.355693102211426"><ele>358.0</ele><time>2026-05-03T10:09:32Z</time></trkpt><trkpt lat="43.72278270998561" lon="11.355580461227417"><ele>359.5</ele><time>2026-05-03T10:09:33Z</time></trkpt><trkpt lat="43.722821871264145" lon="11.355460173032212"><ele>361.0</ele><time>2026-05-03T10:09:34Z</time></trkpt><trkpt lat="43.722839033382265" lon="11.355343536105677"><ele>362.5</ele><time>2026-05-03T10:09:35Z</time></trkpt><trkpt lat="43.72286640411017" lon="11.35524236168021"><ele>364.0</ele><time>2026-05-03T10:09:37Z</time></trkpt><trkpt lat="43.72287291983396" lon="11.355129340226467"><ele>365.5</ele><time>2026-05-03T10:10:38Z</time></trkpt><trkpt lat="43.72283728433434" lon="11.35503352991427"><ele>367.0</ele><time>2026-05-03T10:10:40Z</time></trkpt><trkpt lat="43.72277751145138" lon="11.35499407028203"><ele>367.8333333333333</ele><time>2026-05-03T10:10:45Z</time></trkpt><trkpt lat="43.722693629474264" lon="11.35497733522842"><ele>368.66666666666663</ele><time>2026-05-03T10:10:51Z</time></trkpt><trkpt lat="43.722636273226826" lon="11.355097254032145"><ele>369.5</ele><time>2026-05-03T10:10:53Z</time></trkpt><trkpt lat="43.722621653087536" lon="11.355225511905717"><ele>370.3333333333333</ele><time>2026-05-03T10:10:54Z</time></trkpt><trkpt lat="43.72262757351436" lon="11.35533119349653"><ele>371.1666666666667</ele><time>2026-05-03T10:10:55Z</time></trkpt><trkpt lat="43.72262280986176" lon="11.355455955223997"><ele>372.0</ele><time>2026-05-03T10:10:57Z</time></trkpt><trkpt lat="43.722553260017726" lon="11.355457471601728"><ele>372.0</ele><time>2026-05-03T10:10:59Z</time></trkpt><trkpt lat="43.72248705132574" lon="11.355431419865857"><ele>372.0</ele><time>2026-05-03T10:11:00Z</time></trkpt><trkpt lat="43.72240421496037" lon="11.355457622174962"><ele>372.0</ele><time>2026-05-03T10:11:02Z</time></trkpt><trkpt lat="43.72232909559297" lon="11.355503684882848"><ele>372.0</ele><time>2026-05-03T10:11:04Z</time></trkpt><trkpt lat="43.72220478061416" lon="11.35555882584602"><ele>372.0</ele><time>2026-05-03T10:11:06Z</time></trkpt><trkpt lat="43.722113289550315" lon="11.355539389928955"><ele>373.6666666666667</ele><time>2026-05-03T10:11:07Z</time></trkpt><trkpt lat="43.72203859307036" lon="11.35561040455067"><ele>375.3333333333333</ele><time>2026-05-03T10:11:10Z</time></trkpt><trkpt lat="43.72196865038422" lon="11.355628385567167"><ele>377.0</ele><time>2026-05-03T10:11:14Z</time></trkpt><trkpt lat="43.721891437112895" lon="11.355683531136547"><ele>378.66666666666663</ele><time>2026-05-03T10:11:18Z</time></trkpt><trkpt lat="43.721807500803024" lon="11.355735087291734"><ele>380.3333333333333</ele><time>2026-05-03T10:11:21Z</time></trkpt><trkpt lat="43.721747493680525" lon="11.355815439951746"><ele>382.0</ele><time>2026-05-03T10:11:24Z</time></trkpt><trkpt lat="43.72168126728093" lon="11.355848025688486"><ele>382.0</ele><time>2026-05-03T10:11:26Z</time></trkpt><trkpt lat="43.72162014340753" lon="11.355872976269183"><ele>382.0</ele><time>2026-05-03T10:11:28Z</time></trkpt><trkpt lat="43.72158387754226" lon="11.355951088515326"><ele>382.0</ele><time>2026-05-03T10:12:05Z</time></trkpt><trkpt lat="43.721616353318936" lon="11.355872995037302"><ele>382.0</ele><time>2026-05-03T10:12:17Z</time></trkpt><trkpt lat="43.721697900171556" lon="11.35586971504716"><ele>382.0</ele><time>2026-05-03T10:12:20Z</time></trkpt><trkpt lat="43.721772881802835" lon="11.355790611197392"><ele>382.0</ele><time>2026-05-03T10:12:23Z</time></trkpt><trkpt lat="43.72185006019679" lon="11.355723273622885"><ele>382.66666666666663</ele><time>2026-05-03T10:12:25Z</time></trkpt><trkpt lat="43.721926044147" lon="11.355687200904336"><ele>383.3333333333333</ele><time>2026-05-03T10:12:27Z</time></trkpt><trkpt lat="43.72199685876775" lon="11.355632598070592"><ele>384.0</ele><time>2026-05-03T10:12:29Z</time></trkpt><trkpt lat="43.72206620253889" lon="11.35562477340982"><ele>384.66666666666663</ele><time>2026-05-03T10:12:31Z</time></trkpt><trkpt lat="43.72213781902541" lon="11.355599938467837"><ele>385.3333333333333</ele><time>2026-05-03T10:12:33Z</time></trkpt><trkpt lat="43.722204921992294" lon="11.355580628054145"><ele>386.0</ele><time>2026-05-03T10:12:35Z</time></trkpt><trkpt lat="43.72228960859386" lon="11.355552209771817"><ele>383.66666666666663</ele><time>2026-05-03T10:12:38Z</time></trkpt><trkpt lat="43.72236901300846" lon="11.355515781393153"><ele>381.3333333333333</ele><time>2026-05-03T10:12:40Z</time></trkpt><trkpt lat="43.7224350137265" lon="11.355483181502379"><ele>379.0</ele><time>2026-05-03T10:12:42Z</time></trkpt><trkpt lat="43.72252254148917" lon="11.355489942692124"><ele>376.66666666666663</ele><time>2026-05-03T10:12:45Z</time></trkpt><trkpt lat="43.72261977375427" lon="11.355475141889663"><ele>374.3333333333333</ele><time>2026-05-03T10:12:47Z</time></trkpt><trkpt lat="43.7226459767901" lon="11.355376756436414"><ele>372.0</ele><time>2026-05-03T10:12:49Z</time></trkpt><trkpt lat="43.72262466381344" lon="11.3552475835036"><ele>372.0</ele><time>2026-05-03T10:12:51Z</time></trkpt><trkpt lat="43.722638398500806" lon="11.35511996438432"><ele>372.0</ele><time>2026-05-03T10:12:53Z</time></trkpt><trkpt lat="43.72266491148558" lon="11.355024310996518"><ele>372.0</ele><time>2026-05-03T10:12:55Z</time></trkpt><trkpt lat="43.722739378986134" lon="11.355058764404852"><ele>372.0</ele><time>2026-05-03T10:13:10Z</time></trkpt><trkpt lat="43.72283992333416" lon="11.355160755189846"><ele>372.0</ele><time>2026-05-03T10:13:13Z</time></trkpt><trkpt lat="43.72280971272076" lon="11.355287545726412"><ele>371.0</ele><time>2026-05-03T10:13:15Z</time></trkpt><trkpt lat="43.72275508220047" lon="11.355384947926684"><ele>370.0</ele><time>2026-05-03T10:13:17Z</time></trkpt><trkpt lat="43.722719310454465" lon="11.355546455169163"><ele>369.0</ele><time>2026-05-03T10:13:19Z</time></trkpt><trkpt lat="43.722698635116714" lon="11.355704002058307"><ele>368.0</ele><time>2026-05-03T10:13:20Z</time></trkpt><trkpt lat="43.72271325827264" lon="11.355837007707276"><ele>367.0</ele><time>2026-05-03T10:13:21Z</time></trkpt><trkpt lat="43.72272943618161" lon="11.355955428089757"><ele>365.7142857142857</ele><time>2026-05-03T10:13:22Z</time></trkpt><trkpt lat="43.72275980535572" lon="11.356057225974888"><ele>364.42857142857144</ele><time>2026-05-03T10:13:23Z</time></trkpt><trkpt lat="43.72277799642651" lon="11.356150445647769"><ele>363.14285714285717</ele><time>2026-05-03T10:13:24Z</time></trkpt><trkpt lat="43.722786676215236" lon="11.356245044439882"><ele>361.8571428571429</ele><time>2026-05-03T10:13:25Z</time></trkpt><trkpt lat="43.72280492940457" lon="11.356336145876979"><ele>360.57142857142856</ele><time>2026-05-03T10:13:26Z</time></trkpt><trkpt lat="43.72281350820129" lon="11.356423020606456"><ele>359.28571428571433</ele><time>2026-05-03T10:13:27Z</time></trkpt><trkpt lat="43.72281884293789" lon="11.356512848053868"><ele>358.0</ele><time>2026-05-03T10:13:28Z</time></trkpt><trkpt lat="43.72281101265139" lon="11.356602572702139"><ele>357.16666666666663</ele><time>2026-05-03T10:13:29Z</time></trkpt><trkpt lat="43.72279251909947" lon="11.356704060318728"><ele>356.3333333333333</ele><time>2026-05-03T10:13:30Z</time></trkpt><trkpt lat="43.72277638838393" lon="11.356809962634928"><ele>355.5</ele><time>2026-05-03T10:13:31Z</time></trkpt><trkpt lat="43.72273988035571" lon="11.356884824516248"><ele>354.6666666666667</ele><time>2026-05-03T10:13:32Z</time></trkpt><trkpt lat="43.72271531432832" lon="11.356988255139946"><ele>353.83333333333337</ele><time>2026-05-03T10:13:33Z</time></trkpt><trkpt lat="43.722671442727744" lon="11.357134859821807"><ele>353.0</ele><time>2026-05-03T10:13:35Z</time></trkpt><trkpt lat="43.722654397646586" lon="11.357240308915529"><ele>353.5</ele><time>2026-05-03T10:13:37Z</time></trkpt><trkpt lat="43.72262866181169" lon="11.357332197298234"><ele>354.0</ele><time>2026-05-03T10:13:38Z</time></trkpt><trkpt lat="43.72258169033964" lon="11.357446674775964"><ele>354.5</ele><time>2026-05-03T10:13:40Z</time></trkpt><trkpt lat="43.7225644659184" lon="11.357537259194924"><ele>355.0</ele><time>2026-05-03T10:13:42Z</time></trkpt><trkpt lat="43.722641845921984" lon="11.357674742342692"><ele>355.5</ele><time>2026-05-03T10:13:44Z</time></trkpt><trkpt lat="43.722697589786215" lon="11.357748830016243"><ele>356.0</ele><time>2026-05-03T10:13:45Z</time></trkpt><trkpt lat="43.722781633890875" lon="11.357821399372385"><ele>356.0</ele><time>2026-05-03T10:13:46Z</time></trkpt><trkpt lat="43.72286156795134" lon="11.357909879991945"><ele>356.0</ele><time>2026-05-03T10:13:47Z</time></trkpt><trkpt lat="43.722931762464654" lon="11.358017030764726"><ele>356.0</ele><time>2026-05-03T10:13:48Z</time></trkpt><trkpt lat="43.72298180283984" lon="11.358072868339258"><ele>356.0</ele><time>2026-05-03T10:13:49Z</time></trkpt><trkpt lat="43.72304941819655" lon="11.35815455691462"><ele>356.0</ele><time>2026-05-03T10:13:50Z</time></trkpt><trkpt lat="43.72312935217619" lon="11.358304167190811"><ele>358.4</ele><time>2026-05-03T10:13:53Z</time></trkpt><trkpt lat="43.72317416574837" lon="11.358437348306136"><ele>360.8</ele><time>2026-05-03T10:13:54Z</time></trkpt><trkpt lat="43.7232065195973" lon="11.358543482923306"><ele>363.2</ele><time>2026-05-03T10:13:55Z</time></trkpt><trkpt lat="43.72325117034175" lon="11.358681898658375"><ele>365.59999999999997</ele><time>2026-05-03T10:13:57Z</time></trkpt><trkpt lat="43.72329203566954" lon="11.358875857508083"><ele>368.0</ele><time>2026-05-03T10:13:58Z</time></trkpt><trkpt lat="43.723322816065995" lon="11.358966908421108"><ele>368.0</ele><time>2026-05-03T10:13:59Z</time></trkpt><trkpt lat="43.72335672429772" lon="11.359098247370195"><ele>368.0</ele><time>2026-05-03T10:14:01Z</time></trkpt><trkpt lat="43.723360509745035" lon="11.359011294470886"><ele>368.0</ele><time>2026-05-03T10:14:13Z</time></trkpt><trkpt lat="43.72332535619361" lon="11.358852589328762"><ele>368.0</ele><time>2026-05-03T10:14:15Z</time></trkpt><trkpt lat="43.72328684016188" lon="11.35871752522438"><ele>368.0</ele><time>2026-05-03T10:14:17Z</time></trkpt><trkpt lat="43.723255851036235" lon="11.35859590726807"><ele>368.0</ele><time>2026-05-03T10:14:19Z</time></trkpt><trkpt lat="43.723231027919596" lon="11.358506199017368"><ele>368.0</ele><time>2026-05-03T10:14:21Z</time></trkpt><trkpt lat="43.72320060074727" lon="11.358405938939459"><ele>368.0</ele><time>2026-05-03T10:14:25Z</time></trkpt><trkpt lat="43.72305867069209" lon="11.358457945713132"><ele>368.0</ele><time>2026-05-03T10:14:26Z</time></trkpt><trkpt lat="43.72301795218874" lon="11.358389152233732"><ele>368.0</ele><time>2026-05-03T10:14:29Z</time></trkpt><trkpt lat="43.72294935713165" lon="11.358314597792056"><ele>368.0</ele><time>2026-05-03T10:14:33Z</time></trkpt><trkpt lat="43.7228613840642" lon="11.358339342590785"><ele>368.0</ele><time>2026-05-03T10:14:35Z</time></trkpt><trkpt lat="43.72278585522988" lon="11.358326389314765"><ele>368.0</ele><time>2026-05-03T10:14:37Z</time></trkpt><trkpt lat="43.72267343688197" lon="11.358318047277828"><ele>368.0</ele><time>2026-05-03T10:14:39Z</time></trkpt><trkpt lat="43.7225954899545" lon="11.358315933897641"><ele>368.0</ele><time>2026-05-03T10:14:41Z</time></trkpt><trkpt lat="43.72265438109218" lon="11.358365665725188"><ele>368.0</ele><time>2026-05-03T10:15:30Z</time></trkpt><trkpt lat="43.72272243254005" lon="11.358370614942467"><ele>368.0</ele><time>2026-05-03T10:15:35Z</time></trkpt><trkpt lat="43.72278831745802" lon="11.358376039305151"><ele>368.0</ele><time>2026-05-03T10:15:40Z</time></trkpt><trkpt lat="43.72286368421907" lon="11.358362804276007"><ele>368.0</ele><time>2026-05-03T10:15:45Z</time></trkpt><trkpt lat="43.72279871453472" lon="11.35831237931442"><ele>368.0</ele><time>2026-05-03T10:16:20Z</time></trkpt><trkpt lat="43.722736745058555" lon="11.358344476741669"><ele>368.0</ele><time>2026-05-03T10:16:22Z</time></trkpt><trkpt lat="43.722634480021966" lon="11.358288104853473"><ele>368.0</ele><time>2026-05-03T10:16:27Z</time></trkpt><trkpt lat="43.72256648301662" lon="11.358330147539531"><ele>368.0</ele><time>2026-05-03T10:16:30Z</time></trkpt><trkpt lat="43.722551272521656" lon="11.358228814105528"><ele>370.83333333333337</ele><time>2026-05-03T10:16:35Z</time></trkpt><trkpt lat="43.72250650835201" lon="11.35815244866789"><ele>373.6666666666667</ele><time>2026-05-03T10:16:50Z</time></trkpt><trkpt lat="43.722438097659754" lon="11.358029652363648"><ele>376.5</ele><time>2026-05-03T10:16:53Z</time></trkpt><trkpt lat="43.72239972373727" lon="11.357940868835469"><ele>379.33333333333337</ele><time>2026-05-03T10:16:56Z</time></trkpt><trkpt lat="43.72237624269896" lon="11.357845766520493"><ele>382.1666666666667</ele><time>2026-05-03T10:17:00Z</time></trkpt><trkpt lat="43.72232619987382" lon="11.357788055274002"><ele>385.0</ele><time>2026-05-03T10:17:03Z</time></trkpt><trkpt lat="43.722261558382534" lon="11.35774624448145"><ele>385.00000000000006</ele><time>2026-05-03T10:17:09Z</time></trkpt><trkpt lat="43.72220704622834" lon="11.357662654261555"><ele>385.0</ele><time>2026-05-03T10:17:11Z</time></trkpt><trkpt lat="43.72213983562399" lon="11.357580169448317"><ele>385.0</ele><time>2026-05-03T10:17:13Z</time></trkpt><trkpt lat="43.722118228434304" lon="11.357497393307156"><ele>385.0</ele><time>2026-05-03T10:17:16Z</time></trkpt><trkpt lat="43.72214860380271" lon="11.357401363313047"><ele>385.00000000000006</ele><time>2026-05-03T10:17:18Z</time></trkpt><trkpt lat="43.72223706572485" lon="11.357309820177047"><ele>385.0</ele><time>2026-05-03T10:17:20Z</time></trkpt><trkpt lat="43.72225104172899" lon="11.357185556066721"><ele>385.2857142857143</ele><time>2026-05-03T10:17:22Z</time></trkpt><trkpt lat="43.722271887700614" lon="11.357099757143096"><ele>385.57142857142856</ele><time>2026-05-03T10:17:53Z</time></trkpt><trkpt lat="43.72227458777187" lon="11.35700384040245"><ele>385.8571428571429</ele><time>2026-05-03T10:17:56Z</time></trkpt><trkpt lat="43.72223232155238" lon="11.356939250471287"><ele>386.1428571428571</ele><time>2026-05-03T10:17:58Z</time></trkpt><trkpt lat="43.72218319467529" lon="11.35687161950334"><ele>386.42857142857144</ele><time>2026-05-03T10:18:00Z</time></trkpt><trkpt lat="43.722097493074145" lon="11.356799679573983"><ele>386.7142857142857</ele><time>2026-05-03T10:18:26Z</time></trkpt><trkpt lat="43.72202639050694" lon="11.356802242935027"><ele>387.0</ele><time>2026-05-03T10:18:29Z</time></trkpt><trkpt lat="43.72196700602494" lon="11.356882954517047"><ele>387.0</ele><time>2026-05-03T10:18:31Z</time></trkpt><trkpt lat="43.72192047077309" lon="11.356941917837348"><ele>387.0</ele><time>2026-05-03T10:18:33Z</time></trkpt><trkpt lat="43.72183039605903" lon="11.35694255232703"><ele>387.0</ele><time>2026-05-03T10:18:36Z</time></trkpt><trkpt lat="43.72177218249906" lon="11.356985908107244"><ele>387.0</ele><time>2026-05-03T10:18:38Z</time></trkpt><trkpt lat="43.721691833059744" lon="11.357029139325636"><ele>387.0</ele><time>2026-05-03T10:18:40Z</time></trkpt><trkpt lat="43.721608704509656" lon="11.357076113954205"><ele>387.0</ele><time>2026-05-03T10:18:42Z</time></trkpt><trkpt lat="43.72151935706561" lon="11.357116560589002"><ele>389.0</ele><time>2026-05-03T10:18:44Z</time></trkpt><trkpt lat="43.72145409873644" lon="11.357163217975327"><ele>391.0</ele><time>2026-05-03T10:18:46Z</time></trkpt><trkpt lat="43.72133550507566" lon="11.357352664613074"><ele>393.0</ele><time>2026-05-03T10:19:12Z</time></trkpt><trkpt lat="43.72133159640938" lon="11.357440004838262"><ele>395.0</ele><time>2026-05-03T10:19:23Z</time></trkpt><trkpt lat="43.72135363587878" lon="11.357543742950593"><ele>397.0</ele><time>2026-05-03T10:19:36Z</time></trkpt><trkpt lat="43.721381842873576" lon="11.357666007252654"><ele>398.6666666666667</ele><time>2026-05-03T10:19:39Z</time></trkpt><trkpt lat="43.72137083597522" lon="11.35777264437053"><ele>400.33333333333337</ele><time>2026-05-03T10:20:28Z</time></trkpt><trkpt lat="43.721440971761275" lon="11.357821409877563"><ele>402.0</ele><time>2026-05-03T10:22:17Z</time></trkpt><trkpt lat="43.72141004126607" lon="11.35770067387039"><ele>403.66666666666663</ele><time>2026-05-03T10:22:50Z</time></trkpt><trkpt lat="43.72138297902145" lon="11.357620643437722"><ele>405.3333333333333</ele><time>2026-05-03T10:23:04Z</time></trkpt><trkpt lat="43.721359640510265" lon="11.357509193176993"><ele>407.0</ele><time>2026-05-03T10:25:28Z</time></trkpt><trkpt lat="43.721361268411385" lon="11.357421736392428"><ele>406.99999999999994</ele><time>2026-05-03T10:25:37Z</time></trkpt><trkpt lat="43.72138721919945" lon="11.357332681300383"><ele>407.0</ele><time>2026-05-03T10:25:45Z</time></trkpt><trkpt lat="43.72144608438991" lon="11.357274499393931"><ele>407.0</ele><time>2026-05-03T10:25:51Z</time></trkpt><trkpt lat="43.721498689493586" lon="11.35719193315616"><ele>407.0</ele><time>2026-05-03T10:27:07Z</time></trkpt><trkpt lat="43.72157452627306" lon="11.357100507157849"><ele>406.99999999999994</ele><time>2026-05-03T10:27:30Z</time></trkpt><trkpt lat="43.72164344914448" lon="11.357041772025802"><ele>407.0</ele><time>2026-05-03T10:27:32Z</time></trkpt><trkpt lat="43.72174885674594" lon="11.357006900347702"><ele>405.0</ele><time>2026-05-03T10:27:35Z</time></trkpt><trkpt lat="43.72185349041917" lon="11.356949243518995"><ele>403.0</ele><time>2026-05-03T10:27:37Z</time></trkpt><trkpt lat="43.72195499125885" lon="11.356861424328047"><ele>401.0</ele><time>2026-05-03T10:27:39Z</time></trkpt><trkpt lat="43.72200793903669" lon="11.356806744088587"><ele>399.0</ele><time>2026-05-03T10:27:40Z</time></trkpt><trkpt lat="43.722125213539165" lon="11.356816297029036"><ele>397.0</ele><time>2026-05-03T10:27:42Z</time></trkpt><trkpt lat="43.72218632033022" lon="11.356754264177285"><ele>395.33333333333337</ele><time>2026-05-03T10:27:45Z</time></trkpt><trkpt lat="43.72225174218259" lon="11.35668785096923"><ele>393.6666666666667</ele><time>2026-05-03T10:27:48Z</time></trkpt><trkpt lat="43.72231105098621" lon="11.35664175672754"><ele>392.0</ele><time>2026-05-03T10:27:50Z</time></trkpt><trkpt lat="43.72237038151095" lon="11.356566229582885"><ele>390.33333333333337</ele><time>2026-05-03T10:27:56Z</time></trkpt><trkpt lat="43.722425472104604" lon="11.356466196644632"><ele>388.6666666666667</ele><time>2026-05-03T10:27:58Z</time></trkpt><trkpt lat="43.72237241739478" lon="11.356565376124204"><ele>387.0</ele><time>2026-05-03T10:28:01Z</time></trkpt><trkpt lat="43.722325933208715" lon="11.35663013604198"><ele>387.0</ele><time>2026-05-03T10:28:03Z</time></trkpt><trkpt lat="43.722241012816895" lon="11.356699264523254"><ele>387.0</ele><time>2026-05-03T10:28:05Z</time></trkpt><trkpt lat="43.722129839029975" lon="11.35672793961226"><ele>387.0</ele><time>2026-05-03T10:28:07Z</time></trkpt><trkpt lat="43.72205241214023" lon="11.356766300773788"><ele>387.0</ele><time>2026-05-03T10:28:09Z</time></trkpt><trkpt lat="43.72211476707975" lon="11.35682126933915"><ele>387.0</ele><time>2026-05-03T10:28:25Z</time></trkpt><trkpt lat="43.72206958354702" lon="11.35693784025415"><ele>387.0</ele><time>2026-05-03T10:28:37Z</time></trkpt><trkpt lat="43.72203690074135" lon="11.35706447289213"><ele>387.0</ele><time>2026-05-03T10:28:42Z</time></trkpt><trkpt lat="43.722005014950135" lon="11.357191896008352"><ele>387.0</ele><time>2026-05-03T10:28:44Z</time></trkpt><trkpt lat="43.72197298589072" lon="11.357286182963753"><ele>387.0</ele><time>2026-05-03T10:28:46Z</time></trkpt><trkpt lat="43.72193014892796" lon="11.357376964663844"><ele>387.0</ele><time>2026-05-03T10:28:48Z</time></trkpt><trkpt lat="43.72189186844373" lon="11.357495732840414"><ele>387.0</ele><time>2026-05-03T10:28:50Z</time></trkpt><trkpt lat="43.721883942574486" lon="11.357638049476275"><ele>386.6666666666667</ele><time>2026-05-03T10:28:52Z</time></trkpt><trkpt lat="43.72190700833149" lon="11.3577250283719"><ele>386.33333333333337</ele><time>2026-05-03T10:28:53Z</time></trkpt><trkpt lat="43.72194097157622" lon="11.357809382368103"><ele>386.0</ele><time>2026-05-03T10:28:54Z</time></trkpt><trkpt lat="43.722019948033484" lon="11.357927537933758"><ele>385.6666666666667</ele><time>2026-05-03T10:28:56Z</time></trkpt><trkpt lat="43.72205324793922" lon="11.35801379137662"><ele>385.33333333333337</ele><time>2026-05-03T10:28:58Z</time></trkpt><trkpt lat="43.722066024503384" lon="11.358111157548928"><ele>385.0</ele><time>2026-05-03T10:28:59Z</time></trkpt><trkpt lat="43.72210775175705" lon="11.358257730400629"><ele>385.0</ele><time>2026-05-03T10:29:01Z</time></trkpt><trkpt lat="43.722172862077876" lon="11.358316279469639"><ele>385.0</ele><time>2026-05-03T10:29:03Z</time></trkpt><trkpt lat="43.72221241879528" lon="11.358384497783485"><ele>385.0</ele><time>2026-05-03T10:29:06Z</time></trkpt><trkpt lat="43.722185691559204" lon="11.358218688259486"><ele>385.0</ele><time>2026-05-03T10:29:36Z</time></trkpt><trkpt lat="43.72212975016594" lon="11.358083542262216"><ele>385.0</ele><time>2026-05-03T10:29:38Z</time></trkpt><trkpt lat="43.72209256523427" lon="11.35796837646758"><ele>385.0</ele><time>2026-05-03T10:29:40Z</time></trkpt><trkpt lat="43.72202995985336" lon="11.35781144033858"><ele>385.0</ele><time>2026-05-03T10:29:42Z</time></trkpt><trkpt lat="43.721988141268184" lon="11.357734838775865"><ele>385.0</ele><time>2026-05-03T10:29:43Z</time></trkpt><trkpt lat="43.72195320496566" lon="11.357657737004821"><ele>385.0</ele><time>2026-05-03T10:29:44Z</time></trkpt><trkpt lat="43.72190569271505" lon="11.357518235316272"><ele>385.0</ele><time>2026-05-03T10:29:46Z</time></trkpt><trkpt lat="43.72195368210466" lon="11.357432244082503"><ele>385.0</ele><time>2026-05-03T10:29:47Z</time></trkpt><trkpt lat="43.722002998931316" lon="11.35727926432857"><ele>385.0</ele><time>2026-05-03T10:29:49Z</time></trkpt><trkpt lat="43.722032092582836" lon="11.357201232065595"><ele>385.0</ele><time>2026-05-03T10:29:50Z</time></trkpt><trkpt lat="43.722066586740034" lon="11.357069144902187"><ele>385.0</ele><time>2026-05-03T10:29:52Z</time></trkpt><trkpt lat="43.72208321828576" lon="11.356969785918325"><ele>385.0</ele><time>2026-05-03T10:29:53Z</time></trkpt><trkpt lat="43.72212711104693" lon="11.356852803128984"><ele>385.4</ele><time>2026-05-03T10:29:55Z</time></trkpt><trkpt lat="43.72217536386903" lon="11.356771004479436"><ele>385.8</ele><time>2026-05-03T10:29:56Z</time></trkpt><trkpt lat="43.72228262828241" lon="11.35666495846295"><ele>386.20000000000005</ele><time>2026-05-03T10:29:58Z</time></trkpt><trkpt lat="43.72236584064915" lon="11.356577347401348"><ele>386.6</ele><time>2026-05-03T10:30:00Z</time></trkpt><trkpt lat="43.722422381422064" lon="11.356474553520782"><ele>387.0</ele><time>2026-05-03T10:30:02Z</time></trkpt><trkpt lat="43.72246022307335" lon="11.356379203296454"><ele>386.8333333333333</ele><time>2026-05-03T10:30:04Z</time></trkpt><trkpt lat="43.72250399304602" lon="11.356306931557704"><ele>386.66666666666663</ele><time>2026-05-03T10:30:06Z</time></trkpt><trkpt lat="43.722528424033214" lon="11.35620937098436"><ele>386.5</ele><time>2026-05-03T10:30:08Z</time></trkpt><trkpt lat="43.72253224894351" lon="11.356103688769124"><ele>386.3333333333333</ele><time>2026-05-03T10:30:10Z</time></trkpt><trkpt lat="43.72255194442592" lon="11.355998795590583"><ele>386.16666666666663</ele><time>2026-05-03T10:30:11Z</time></trkpt><trkpt lat="43.722572129413756" lon="11.355915293025168"><ele>386.0</ele><time>2026-05-03T10:30:13Z</time></trkpt><trkpt lat="43.72260636972861" lon="11.355789742200901"><ele>385.99999999999994</ele><time>2026-05-03T10:30:15Z</time></trkpt><trkpt lat="43.722638681119015" lon="11.355672293615294"><ele>386.0</ele><time>2026-05-03T10:30:17Z</time></trkpt><trkpt lat="43.72265982237665" lon="11.355575817462682"><ele>386.0</ele><time>2026-05-03T10:30:19Z</time></trkpt><trkpt lat="43.7226613710443" lon="11.35548847293441"><ele>386.0</ele><time>2026-05-03T10:30:38Z</time></trkpt><trkpt lat="43.72251813651269" lon="11.355471443129398"><ele>385.99999999999994</ele><time>2026-05-03T10:30:47Z</time></trkpt><trkpt lat="43.7225897641116" lon="11.355476412269066"><ele>386.0</ele><time>2026-05-03T10:31:06Z</time></trkpt><trkpt lat="43.72263686624044" lon="11.355405767235995"><ele>384.00000000000006</ele><time>2026-05-03T10:31:08Z</time></trkpt><trkpt lat="43.72263172289848" lon="11.355318541248339"><ele>382.0</ele><time>2026-05-03T10:31:10Z</time></trkpt><trkpt lat="43.72262992694523" lon="11.355199528169726"><ele>380.0</ele><time>2026-05-03T10:31:13Z</time></trkpt><trkpt lat="43.722647625519436" lon="11.355100970575052"><ele>378.0</ele><time>2026-05-03T10:31:15Z</time></trkpt><trkpt lat="43.722680471760654" lon="11.355013083622238"><ele>376.0</ele><time>2026-05-03T10:31:17Z</time></trkpt><trkpt lat="43.722690301753396" lon="11.354911558682462"><ele>374.00000000000006</ele><time>2026-05-03T10:31:50Z</time></trkpt><trkpt lat="43.7226953887633" lon="11.354820576572255"><ele>372.0</ele><time>2026-05-03T10:31:53Z</time></trkpt><trkpt lat="43.72272044738639" lon="11.35494348614136"><ele>371.1666666666667</ele><time>2026-05-03T10:32:16Z</time></trkpt><trkpt lat="43.72276979011739" lon="11.355055237648909"><ele>370.3333333333333</ele><time>2026-05-03T10:32:18Z</time></trkpt><trkpt lat="43.72283568104395" lon="11.35512054266468"><ele>369.5</ele><time>2026-05-03T10:32:20Z</time></trkpt><trkpt lat="43.7228025311403" lon="11.35523740782937"><ele>368.66666666666663</ele><time>2026-05-03T10:32:26Z</time></trkpt><trkpt lat="43.7227942600326" lon="11.355342416885783"><ele>367.8333333333333</ele><time>2026-05-03T10:32:28Z</time></trkpt><trkpt lat="43.7227635240499" lon="11.355464486495393"><ele>367.0</ele><time>2026-05-03T10:32:30Z</time></trkpt><trkpt lat="43.72273351352625" lon="11.355551173891275"><ele>365.20000000000005</ele><time>2026-05-03T10:32:31Z</time></trkpt><trkpt lat="43.7227069021929" lon="11.355734026784548"><ele>363.4</ele><time>2026-05-03T10:32:33Z</time></trkpt><trkpt lat="43.722714698296805" lon="11.355837342776445"><ele>361.6</ele><time>2026-05-03T10:32:34Z</time></trkpt><trkpt lat="43.72273911379008" lon="11.355985938206347"><ele>359.79999999999995</ele><time>2026-05-03T10:32:36Z</time></trkpt><trkpt lat="43.7227559290284" lon="11.356092784043126"><ele>358.0</ele><time>2026-05-03T10:32:37Z</time></trkpt><trkpt lat="43.72277340917619" lon="11.356184577933439"><ele>358.0</ele><time>2026-05-03T10:32:38Z</time></trkpt><trkpt lat="43.722802956235775" lon="11.35633812948952"><ele>358.0</ele><time>2026-05-03T10:32:40Z</time></trkpt><trkpt lat="43.72281295068712" lon="11.356430230362198"><ele>358.0</ele><time>2026-05-03T10:32:41Z</time></trkpt><trkpt lat="43.722812251415405" lon="11.356633810018357"><ele>358.0</ele><time>2026-05-03T10:32:43Z</time></trkpt><trkpt lat="43.72279386032482" lon="11.356746856787808"><ele>358.0</ele><time>2026-05-03T10:32:44Z</time></trkpt><trkpt lat="43.72277339888858" lon="11.356837893864055"><ele>357.0</ele><time>2026-05-03T10:32:45Z</time></trkpt><trkpt lat="43.72274284115781" lon="11.356933862574415"><ele>356.0</ele><time>2026-05-03T10:32:46Z</time></trkpt><trkpt lat="43.72269263015898" lon="11.3570902461437"><ele>355.0</ele><time>2026-05-03T10:32:48Z</time></trkpt><trkpt lat="43.722658445314664" lon="11.357228225564661"><ele>354.0</ele><time>2026-05-03T10:32:50Z</time></trkpt><trkpt lat="43.72262920848536" lon="11.357332532253283"><ele>353.0</ele><time>2026-05-03T10:32:52Z</time></trkpt><trkpt lat="43.722578867383696" lon="11.357416189412422"><ele>353.59999999999997</ele><time>2026-05-03T10:32:54Z</time></trkpt><trkpt lat="43.722598855526215" lon="11.357615891922856"><ele>354.2</ele><time>2026-05-03T10:32:56Z</time></trkpt><trkpt lat="43.7226691496709" lon="11.357712119028065"><ele>354.8</ele><time>2026-05-03T10:32:57Z</time></trkpt><trkpt lat="43.72273371702395" lon="11.357792888957627"><ele>355.4</ele><time>2026-05-03T10:32:58Z</time></trkpt><trkpt lat="43.72281929218629" lon="11.357891530749239"><ele>356.0</ele><time>2026-05-03T10:32:59Z</time></trkpt><trkpt lat="43.7229224710293" lon="11.358006662901554"><ele>358.0</ele><time>2026-05-03T10:33:00Z</time></trkpt><trkpt lat="43.722993298458796" lon="11.358085695731853"><ele>360.0</ele><time>2026-05-03T10:33:01Z</time></trkpt><trkpt lat="43.723047984984156" lon="11.358152793575776"><ele>362.0</ele><time>2026-05-03T10:33:02Z</time></trkpt><trkpt lat="43.72311080425959" lon="11.358230519396514"><ele>364.0</ele><time>2026-05-03T10:33:03Z</time></trkpt><trkpt lat="43.72314203556408" lon="11.358326902202379"><ele>366.0</ele><time>2026-05-03T10:33:04Z</time></trkpt><trkpt lat="43.723179889481756" lon="11.358415871364043"><ele>368.0</ele><time>2026-05-03T10:33:05Z</time></trkpt><trkpt lat="43.723196852901594" lon="11.358529685989376"><ele>368.0</ele><time>2026-05-03T10:33:06Z</time></trkpt><trkpt lat="43.72322780632055" lon="11.358606007134165"><ele>368.0</ele><time>2026-05-03T10:33:07Z</time></trkpt><trkpt lat="43.72326017448982" lon="11.358727588503086"><ele>368.0</ele><time>2026-05-03T10:33:08Z</time></trkpt><trkpt lat="43.723290559600436" lon="11.358833535286283"><ele>368.0</ele><time>2026-05-03T10:33:09Z</time></trkpt><trkpt lat="43.72331683148881" lon="11.358923902093336"><ele>368.0</ele><time>2026-05-03T10:33:10Z</time></trkpt><trkpt lat="43.72331949234578" lon="11.359017917830673"><ele>368.0</ele><time>2026-05-03T10:33:11Z</time></trkpt><trkpt lat="43.72333706952097" lon="11.359184402494265"><ele>369.5</ele><time>2026-05-03T10:33:13Z</time></trkpt><trkpt lat="43.72333934890004" lon="11.359323401063897"><ele>371.0</ele><time>2026-05-03T10:33:15Z</time></trkpt><trkpt lat="43.72328054109337" lon="11.359422989138974"><ele>372.5</ele><time>2026-05-03T10:33:17Z</time></trkpt><trkpt lat="43.723222894811656" lon="11.359475967075712"><ele>374.0</ele><time>2026-05-03T10:33:18Z</time></trkpt><trkpt lat="43.72318487538367" lon="11.359573898129117"><ele>375.5</ele><time>2026-05-03T10:33:20Z</time></trkpt><trkpt lat="43.723134689047534" lon="11.359700937328173"><ele>377.0</ele><time>2026-05-03T10:33:22Z</time></trkpt><trkpt lat="43.72320875438697" lon="11.359865398264358"><ele>378.75</ele><time>2026-05-03T10:33:23Z</time></trkpt><trkpt lat="43.72327913266279" lon="11.359965735865075"><ele>380.5</ele><time>2026-05-03T10:33:24Z</time></trkpt><trkpt lat="43.72335775990922" lon="11.360051543142285"><ele>382.25</ele><time>2026-05-03T10:33:25Z</time></trkpt><trkpt lat="43.72346518915448" lon="11.360214076201295"><ele>384.0</ele><time>2026-05-03T10:33:26Z</time></trkpt><trkpt lat="43.72353749853885" lon="11.360357081524691"><ele>380.1666666666667</ele><time>2026-05-03T10:33:27Z</time></trkpt><trkpt lat="43.72359401111783" lon="11.360458130876216"><ele>376.3333333333333</ele><time>2026-05-03T10:33:28Z</time></trkpt><trkpt lat="43.72367203600393" lon="11.360601602826351"><ele>372.5</ele><time>2026-05-03T10:33:29Z</time></trkpt><trkpt lat="43.72370104533496" lon="11.36068098469324"><ele>368.66666666666663</ele><time>2026-05-03T10:33:30Z</time></trkpt><trkpt lat="43.72374791581107" lon="11.36076183177627"><ele>364.8333333333333</ele><time>2026-05-03T10:33:31Z</time></trkpt><trkpt lat="43.72377069502424" lon="11.360850456782138"><ele>361.0</ele><time>2026-05-03T10:33:32Z</time></trkpt><trkpt lat="43.72378569730651" lon="11.36101959518527"><ele>361.0</ele><time>2026-05-03T10:33:33Z</time></trkpt><trkpt lat="43.72378521199123" lon="11.36116819766066"><ele>361.0</ele><time>2026-05-03T10:33:34Z</time></trkpt><trkpt lat="43.72378266706018" lon="11.3613037970997"><ele>361.0</ele><time>2026-05-03T10:33:35Z</time></trkpt><trkpt lat="43.72378513178028" lon="11.361403500114042"><ele>361.0</ele><time>2026-05-03T10:33:36Z</time></trkpt><trkpt lat="43.723806523040125" lon="11.361585146634406"><ele>361.0</ele><time>2026-05-03T10:33:38Z</time></trkpt><trkpt lat="43.723825228181774" lon="11.361696173615753"><ele>362.16666666666663</ele><time>2026-05-03T10:33:39Z</time></trkpt><trkpt lat="43.72384921203987" lon="11.361822004372641"><ele>363.3333333333333</ele><time>2026-05-03T10:33:40Z</time></trkpt><trkpt lat="43.72387154774762" lon="11.361939258256681"><ele>364.5</ele><time>2026-05-03T10:33:41Z</time></trkpt><trkpt lat="43.72389047566389" lon="11.362038622534675"><ele>365.6666666666667</ele><time>2026-05-03T10:33:42Z</time></trkpt><trkpt lat="43.723892415074275" lon="11.362142367097926"><ele>366.83333333333337</ele><time>2026-05-03T10:33:43Z</time></trkpt><trkpt lat="43.723940218999225" lon="11.362286250429095"><ele>368.0</ele><time>2026-05-03T10:33:45Z</time></trkpt><trkpt lat="43.72394984848471" lon="11.362375751798028"><ele>368.59999999999997</ele><time>2026-05-03T10:33:46Z</time></trkpt><trkpt lat="43.723913815616164" lon="11.362481255422828"><ele>369.2</ele><time>2026-05-03T10:33:47Z</time></trkpt><trkpt lat="43.72389454926005" lon="11.362577872778921"><ele>369.8</ele><time>2026-05-03T10:33:48Z</time></trkpt><trkpt lat="43.72382499150613" lon="11.362746035033195"><ele>370.4</ele><time>2026-05-03T10:33:50Z</time></trkpt><trkpt lat="43.72377614150709" lon="11.3628096624367"><ele>371.0</ele><time>2026-05-03T10:33:51Z</time></trkpt><trkpt lat="43.72372860119517" lon="11.362958157711079"><ele>369.20000000000005</ele><time>2026-05-03T10:33:53Z</time></trkpt><trkpt lat="43.72368226350207" lon="11.363050205706129"><ele>367.40000000000003</ele><time>2026-05-03T10:33:54Z</time></trkpt><trkpt lat="43.723653821866925" lon="11.363194108915211"><ele>365.6</ele><time>2026-05-03T10:33:56Z</time></trkpt><trkpt lat="43.72366739454482" lon="11.363302797659243"><ele>363.8</ele><time>2026-05-03T10:33:57Z</time></trkpt><trkpt lat="43.723658024241885" lon="11.363427122896017"><ele>362.0</ele><time>2026-05-03T10:33:58Z</time></trkpt><trkpt lat="43.72363645289368" lon="11.36362058750893"><ele>362.0</ele><time>2026-05-03T10:34:00Z</time></trkpt><trkpt lat="43.723624403974334" lon="11.363718622921763"><ele>362.0</ele><time>2026-05-03T10:34:01Z</time></trkpt><trkpt lat="43.72359781095601" lon="11.363802109528086"><ele>362.0</ele><time>2026-05-03T10:34:02Z</time></trkpt><trkpt lat="43.72358002705541" lon="11.363952445384756"><ele>362.0</ele><time>2026-05-03T10:34:04Z</time></trkpt><trkpt lat="43.7234842884134" lon="11.364043444497433"><ele>362.0</ele><time>2026-05-03T10:34:06Z</time></trkpt><trkpt lat="43.72338598714049" lon="11.364093149670145"><ele>364.0</ele><time>2026-05-03T10:34:08Z</time></trkpt><trkpt lat="43.723290743992706" lon="11.36408057913267"><ele>366.0</ele><time>2026-05-03T10:34:10Z</time></trkpt><trkpt lat="43.72321789529751" lon="11.364026434282176"><ele>368.0</ele><time>2026-05-03T10:34:12Z</time></trkpt><trkpt lat="43.72313358314493" lon="11.364061037687188"><ele>370.0</ele><time>2026-05-03T10:34:15Z</time></trkpt><trkpt lat="43.7230838796613" lon="11.364118638363685"><ele>372.0</ele><time>2026-05-03T10:34:16Z</time></trkpt><trkpt lat="43.72309169601333" lon="11.364316706989971"><ele>372.0</ele><time>2026-05-03T10:34:18Z</time></trkpt><trkpt lat="43.72311936138282" lon="11.364434519471553"><ele>372.0</ele><time>2026-05-03T10:34:19Z</time></trkpt><trkpt lat="43.72318047058984" lon="11.364579414747343"><ele>372.0</ele><time>2026-05-03T10:34:20Z</time></trkpt><trkpt lat="43.72322531329372" lon="11.36469455647864"><ele>372.0</ele><time>2026-05-03T10:34:21Z</time></trkpt><trkpt lat="43.72324517869278" lon="11.364801383059211"><ele>372.0</ele><time>2026-05-03T10:34:22Z</time></trkpt><trkpt lat="43.72327272255597" lon="11.364899897464317"><ele>371.0</ele><time>2026-05-03T10:34:23Z</time></trkpt><trkpt lat="43.72330280251217" lon="11.365013972960988"><ele>370.0</ele><time>2026-05-03T10:34:24Z</time></trkpt><trkpt lat="43.72332833141923" lon="11.36511339845006"><ele>369.0</ele><time>2026-05-03T10:34:25Z</time></trkpt><trkpt lat="43.72336821984364" lon="11.365219699695249"><ele>368.0</ele><time>2026-05-03T10:34:26Z</time></trkpt><trkpt lat="43.7233888108714" lon="11.365315778670382"><ele>367.0</ele><time>2026-05-03T10:34:27Z</time></trkpt><trkpt lat="43.72341943701365" lon="11.365445685969739"><ele>366.0</ele><time>2026-05-03T10:34:29Z</time></trkpt><trkpt lat="43.723430415957075" lon="11.365536959063832"><ele>365.0</ele><time>2026-05-03T10:34:30Z</time></trkpt><trkpt lat="43.72345086520636" lon="11.365657560008442"><ele>364.0</ele><time>2026-05-03T10:34:32Z</time></trkpt><trkpt lat="43.72346105565261" lon="11.365794798701831"><ele>363.0</ele><time>2026-05-03T10:34:34Z</time></trkpt><trkpt lat="43.72342798405945" lon="11.365887115472809"><ele>362.0</ele><time>2026-05-03T10:34:36Z</time></trkpt><trkpt lat="43.723347243416875" lon="11.365925055370063"><ele>361.0</ele><time>2026-05-03T10:34:40Z</time></trkpt><trkpt lat="43.723268548725514" lon="11.365942963195097"><ele>360.0</ele><time>2026-05-03T10:34:42Z</time></trkpt><trkpt lat="43.72316399557944" lon="11.365963707310206"><ele>360.0</ele><time>2026-05-03T10:34:44Z</time></trkpt><trkpt lat="43.72306402542128" lon="11.365979368757708"><ele>360.0</ele><time>2026-05-03T10:34:45Z</time></trkpt><trkpt lat="43.72297322269054" lon="11.365973046586934"><ele>360.0</ele><time>2026-05-03T10:34:46Z</time></trkpt><trkpt lat="43.72289853549618" lon="11.366000595708805"><ele>360.0</ele><time>2026-05-03T10:34:47Z</time></trkpt><trkpt lat="43.722797477401095" lon="11.365992428503144"><ele>360.0</ele><time>2026-05-03T10:34:49Z</time></trkpt><trkpt lat="43.72274057690104" lon="11.36603054635518"><ele>360.0</ele><time>2026-05-03T10:34:50Z</time></trkpt><trkpt lat="43.72270637091843" lon="11.36618818152755"><ele>357.6</ele><time>2026-05-03T10:34:52Z</time></trkpt><trkpt lat="43.72276816826897" lon="11.366381868216315"><ele>355.2</ele><time>2026-05-03T10:34:55Z</time></trkpt><trkpt lat="43.72280971683423" lon="11.366496013148476"><ele>352.79999999999995</ele><time>2026-05-03T10:34:56Z</time></trkpt><trkpt lat="43.7228536453615" lon="11.366568444049149"><ele>350.4</ele><time>2026-05-03T10:34:57Z</time></trkpt><trkpt lat="43.72279065724077" lon="11.366692050726094"><ele>348.0</ele><time>2026-05-03T10:35:04Z</time></trkpt><trkpt lat="43.72272625544034" lon="11.366694736301776"><ele>352.8333333333333</ele><time>2026-05-03T10:35:06Z</time></trkpt><trkpt lat="43.722650992131086" lon="11.36671886165306"><ele>357.6666666666667</ele><time>2026-05-03T10:35:07Z</time></trkpt><trkpt lat="43.72259843809084" lon="11.366776517100766"><ele>362.5</ele><time>2026-05-03T10:35:08Z</time></trkpt><trkpt lat="43.722535356983364" lon="11.36681189536686"><ele>367.33333333333337</ele><time>2026-05-03T10:35:11Z</time></trkpt><trkpt lat="43.72247975980146" lon="11.366875237084106"><ele>372.1666666666667</ele><time>2026-05-03T10:35:14Z</time></trkpt><trkpt lat="43.722433449815405" lon="11.366954064750491"><ele>377.0</ele><time>2026-05-03T10:35:16Z</time></trkpt><trkpt lat="43.72243538615394" lon="11.367087024696088"><ele>376.5</ele><time>2026-05-03T10:35:18Z</time></trkpt><trkpt lat="43.72248689489349" lon="11.367210450168397"><ele>376.0</ele><time>2026-05-03T10:35:20Z</time></trkpt><trkpt lat="43.72251934331352" lon="11.367311502089489"><ele>375.5</ele><time>2026-05-03T10:35:22Z</time></trkpt><trkpt lat="43.72248736561304" lon="11.367427242989296"><ele>375.0</ele><time>2026-05-03T10:35:23Z</time></trkpt><trkpt lat="43.72248699538237" lon="11.367540275898175"><ele>374.5</ele><time>2026-05-03T10:35:24Z</time></trkpt><trkpt lat="43.72246423686222" lon="11.367644132287529"><ele>374.0</ele><time>2026-05-03T10:35:25Z</time></trkpt><trkpt lat="43.722437005042885" lon="11.36775806816746"><ele>374.0</ele><time>2026-05-03T10:35:26Z</time></trkpt><trkpt lat="43.722394842538066" lon="11.367900504068306"><ele>374.0</ele><time>2026-05-03T10:35:28Z</time></trkpt><trkpt lat="43.72234377423471" lon="11.367959523614813"><ele>374.0</ele><time>2026-05-03T10:35:30Z</time></trkpt><trkpt lat="43.72224438863283" lon="11.368041756315888"><ele>374.0</ele><time>2026-05-03T10:35:32Z</time></trkpt><trkpt lat="43.72217974662769" lon="11.368132361425104"><ele>374.0</ele><time>2026-05-03T10:35:34Z</time></trkpt><trkpt lat="43.722149852814816" lon="11.368235849181655"><ele>373.0</ele><time>2026-05-03T10:35:36Z</time></trkpt><trkpt lat="43.722129590825546" lon="11.368348565052276"><ele>372.0</ele><time>2026-05-03T10:35:38Z</time></trkpt><trkpt lat="43.72214050467189" lon="11.368468982917191"><ele>371.0</ele><time>2026-05-03T10:35:40Z</time></trkpt><trkpt lat="43.722122788498154" lon="11.368564969992553"><ele>370.0</ele><time>2026-05-03T10:35:42Z</time></trkpt><trkpt lat="43.72212043846055" lon="11.368673416270065"><ele>369.0</ele><time>2026-05-03T10:35:44Z</time></trkpt><trkpt lat="43.722127324727566" lon="11.368833911131672"><ele>368.0</ele><time>2026-05-03T10:35:46Z</time></trkpt><trkpt lat="43.72211954391398" lon="11.368942396942288"><ele>366.4</ele><time>2026-05-03T10:35:47Z</time></trkpt><trkpt lat="43.72212240926277" lon="11.369117642393421"><ele>364.79999999999995</ele><time>2026-05-03T10:35:49Z</time></trkpt><trkpt lat="43.72212985204631" lon="11.369205314318501"><ele>363.2</ele><time>2026-05-03T10:35:50Z</time></trkpt><trkpt lat="43.722153919819675" lon="11.36934921980591"><ele>361.6</ele><time>2026-05-03T10:35:52Z</time></trkpt><trkpt lat="43.722191846953464" lon="11.369474378051663"><ele>360.0</ele><time>2026-05-03T10:35:54Z</time></trkpt><trkpt lat="43.722209557857525" lon="11.369564422931498"><ele>360.0</ele><time>2026-05-03T10:35:56Z</time></trkpt><trkpt lat="43.72225307051319" lon="11.369679995621151"><ele>360.0</ele><time>2026-05-03T10:35:59Z</time></trkpt><trkpt lat="43.72229232104597" lon="11.369809615748144"><ele>360.0</ele><time>2026-05-03T10:36:01Z</time></trkpt><trkpt lat="43.72227702803605" lon="11.369905414031235"><ele>360.0</ele><time>2026-05-03T10:36:03Z</time></trkpt><trkpt lat="43.72221448401754" lon="11.370060156602518"><ele>360.0</ele><time>2026-05-03T10:36:05Z</time></trkpt><trkpt lat="43.7221568172916" lon="11.370145840359285"><ele>359.6666666666667</ele><time>2026-05-03T10:36:06Z</time></trkpt><trkpt lat="43.722107257162854" lon="11.370267787035846"><ele>359.3333333333333</ele><time>2026-05-03T10:36:07Z</time></trkpt><trkpt lat="43.722063086729015" lon="11.37040613964313"><ele>359.0</ele><time>2026-05-03T10:36:08Z</time></trkpt><trkpt lat="43.722024512100745" lon="11.370494861213407"><ele>358.66666666666663</ele><time>2026-05-03T10:36:09Z</time></trkpt><trkpt lat="43.721977909021106" lon="11.370575331755715"><ele>358.3333333333333</ele><time>2026-05-03T10:36:11Z</time></trkpt><trkpt lat="43.72192078010284" lon="11.370652018267519"><ele>358.0</ele><time>2026-05-03T10:36:13Z</time></trkpt><trkpt lat="43.72187233088113" lon="11.370721447840552"><ele>360.2</ele><time>2026-05-03T10:36:14Z</time></trkpt><trkpt lat="43.72173346724861" lon="11.37080636742107"><ele>362.4</ele><time>2026-05-03T10:36:16Z</time></trkpt><trkpt lat="43.72166420754818" lon="11.37087195841955"><ele>364.59999999999997</ele><time>2026-05-03T10:36:17Z</time></trkpt><trkpt lat="43.721609465795986" lon="11.370943963337943"><ele>366.79999999999995</ele><time>2026-05-03T10:36:18Z</time></trkpt><trkpt lat="43.7215534451047" lon="11.371029991554469"><ele>369.0</ele><time>2026-05-03T10:36:19Z</time></trkpt><trkpt lat="43.721468700830606" lon="11.371177559558816"><ele>369.0</ele><time>2026-05-03T10:36:21Z</time></trkpt><trkpt lat="43.721414730120316" lon="11.371249349366645"><ele>369.0</ele><time>2026-05-03T10:36:22Z</time></trkpt><trkpt lat="43.72136570497582" lon="11.371314025032207"><ele>369.0</ele><time>2026-05-03T10:36:23Z</time></trkpt><trkpt lat="43.721313206639735" lon="11.371368221584126"><ele>369.0</ele><time>2026-05-03T10:36:24Z</time></trkpt><trkpt lat="43.721254301690905" lon="11.371525485238513"><ele>369.0</ele><time>2026-05-03T10:36:26Z</time></trkpt><trkpt lat="43.72123632119049" lon="11.371630184732474"><ele>369.0</ele><time>2026-05-03T10:36:27Z</time></trkpt><trkpt lat="43.72120940269852" lon="11.371752613594134"><ele>367.8333333333333</ele><time>2026-05-03T10:36:28Z</time></trkpt><trkpt lat="43.72119365363685" lon="11.371870173648755"><ele>366.6666666666667</ele><time>2026-05-03T10:36:29Z</time></trkpt><trkpt lat="43.72118936251834" lon="11.371972610711637"><ele>365.5</ele><time>2026-05-03T10:36:30Z</time></trkpt><trkpt lat="43.721176504124855" lon="11.372065404796649"><ele>364.33333333333337</ele><time>2026-05-03T10:36:31Z</time></trkpt><trkpt lat="43.72117486761497" lon="11.37216340984555"><ele>363.1666666666667</ele><time>2026-05-03T10:36:32Z</time></trkpt><trkpt lat="43.721149514968054" lon="11.372261747298348"><ele>362.0</ele><time>2026-05-03T10:36:33Z</time></trkpt><trkpt lat="43.72113756726464" lon="11.372364982277189"><ele>360.6</ele><time>2026-05-03T10:36:34Z</time></trkpt><trkpt lat="43.72112528845689" lon="11.37246258610023"><ele>359.20000000000005</ele><time>2026-05-03T10:36:35Z</time></trkpt><trkpt lat="43.72111364098117" lon="11.37262027257366"><ele>357.8</ele><time>2026-05-03T10:36:37Z</time></trkpt><trkpt lat="43.72107297881503" lon="11.372733631193261"><ele>356.4</ele><time>2026-05-03T10:36:39Z</time></trkpt><trkpt lat="43.721041429733944" lon="11.372831340132121"><ele>355.0</ele><time>2026-05-03T10:36:41Z</time></trkpt><trkpt lat="43.720995402369056" lon="11.372945840412836"><ele>356.5</ele><time>2026-05-03T10:36:54Z</time></trkpt><trkpt lat="43.7209176948247" lon="11.373007623120031"><ele>358.0</ele><time>2026-05-03T10:36:56Z</time></trkpt><trkpt lat="43.720817576887654" lon="11.373032277377924"><ele>359.5</ele><time>2026-05-03T10:36:58Z</time></trkpt><trkpt lat="43.720756460744944" lon="11.373065389051808"><ele>361.0</ele><time>2026-05-03T10:36:59Z</time></trkpt><trkpt lat="43.72067036888468" lon="11.373131099632529"><ele>362.5</ele><time>2026-05-03T10:37:00Z</time></trkpt><trkpt lat="43.720594286651924" lon="11.373171908588585"><ele>364.0</ele><time>2026-05-03T10:37:01Z</time></trkpt><trkpt lat="43.72045158592276" lon="11.373219203712148"><ele>364.0</ele><time>2026-05-03T10:37:03Z</time></trkpt><trkpt lat="43.720361978665515" lon="11.37326391776289"><ele>364.0</ele><time>2026-05-03T10:37:04Z</time></trkpt><trkpt lat="43.72028712726278" lon="11.37331918810407"><ele>364.0</ele><time>2026-05-03T10:37:05Z</time></trkpt><trkpt lat="43.720215806301844" lon="11.373337940884673"><ele>364.0</ele><time>2026-05-03T10:37:06Z</time></trkpt><trkpt lat="43.72014346194699" lon="11.373366083105726"><ele>364.0</ele><time>2026-05-03T10:37:07Z</time></trkpt><trkpt lat="43.72005863261171" lon="11.373383271403426"><ele>364.0</ele><time>2026-05-03T10:37:08Z</time></trkpt><trkpt lat="43.719980341671636" lon="11.373391967103931"><ele>366.4</ele><time>2026-05-03T10:37:09Z</time></trkpt><trkpt lat="43.719915502441054" lon="11.373384554040289"><ele>368.79999999999995</ele><time>2026-05-03T10:37:10Z</time></trkpt><trkpt lat="43.719798852581675" lon="11.37334869018999"><ele>371.20000000000005</ele><time>2026-05-03T10:37:12Z</time></trkpt><trkpt lat="43.71967709481709" lon="11.373351759524201"><ele>373.6</ele><time>2026-05-03T10:37:14Z</time></trkpt><trkpt lat="43.71957810245697" lon="11.373399739756614"><ele>376.0</ele><time>2026-05-03T10:37:16Z</time></trkpt><trkpt lat="43.719567820762826" lon="11.373497262906318"><ele>376.0</ele><time>2026-05-03T10:37:18Z</time></trkpt><trkpt lat="43.71957188933361" lon="11.373644853382315"><ele>376.0</ele><time>2026-05-03T10:37:20Z</time></trkpt><trkpt lat="43.71965919496588" lon="11.373779609232653"><ele>376.0</ele><time>2026-05-03T10:37:22Z</time></trkpt><trkpt lat="43.71973460322025" lon="11.373921141325505"><ele>376.0</ele><time>2026-05-03T10:37:24Z</time></trkpt><trkpt lat="43.719753515784085" lon="11.374071861862445"><ele>374.6</ele><time>2026-05-03T10:37:25Z</time></trkpt><trkpt lat="43.71980804118621" lon="11.37415900998139"><ele>373.20000000000005</ele><time>2026-05-03T10:37:26Z</time></trkpt><trkpt lat="43.71984913242904" lon="11.374225371782542"><ele>371.79999999999995</ele><time>2026-05-03T10:37:27Z</time></trkpt><trkpt lat="43.71994475853617" lon="11.37435853059588"><ele>370.4</ele><time>2026-05-03T10:37:28Z</time></trkpt><trkpt lat="43.72003187328319" lon="11.37447979544145"><ele>369.0</ele><time>2026-05-03T10:37:29Z</time></trkpt><trkpt lat="43.72008599245182" lon="11.374582930530787"><ele>371.1666666666667</ele><time>2026-05-03T10:37:30Z</time></trkpt><trkpt lat="43.7201146265721" lon="11.37468863985754"><ele>373.3333333333333</ele><time>2026-05-03T10:37:31Z</time></trkpt><trkpt lat="43.72012080969666" lon="11.374805545671869"><ele>375.5</ele><time>2026-05-03T10:37:32Z</time></trkpt><trkpt lat="43.72016170247003" lon="11.374906393048866"><ele>377.66666666666663</ele><time>2026-05-03T10:37:33Z</time></trkpt><trkpt lat="43.7201928645998" lon="11.374991999537345"><ele>379.8333333333333</ele><time>2026-05-03T10:37:34Z</time></trkpt><trkpt lat="43.72024676195318" lon="11.375040883529826"><ele>382.0</ele><time>2026-05-03T10:37:35Z</time></trkpt><trkpt lat="43.72031056245105" lon="11.375146044774135"><ele>382.0</ele><time>2026-05-03T10:37:37Z</time></trkpt><trkpt lat="43.72030550276482" lon="11.375268512460988"><ele>382.0</ele><time>2026-05-03T10:37:39Z</time></trkpt><trkpt lat="43.72025059030985" lon="11.37536121037383"><ele>382.0</ele><time>2026-05-03T10:37:40Z</time></trkpt><trkpt lat="43.72015143447544" lon="11.375397200165487"><ele>382.0</ele><time>2026-05-03T10:37:42Z</time></trkpt><trkpt lat="43.72013183742494" lon="11.375587122298716"><ele>382.0</ele><time>2026-05-03T10:37:44Z</time></trkpt><trkpt lat="43.72012407575444" lon="11.375696562899291"><ele>382.8</ele><time>2026-05-03T10:37:46Z</time></trkpt><trkpt lat="43.72023798217873" lon="11.375942984116135"><ele>383.6</ele><time>2026-05-03T10:37:48Z</time></trkpt><trkpt lat="43.72024526021288" lon="11.37605752693895"><ele>384.40000000000003</ele><time>2026-05-03T10:37:49Z</time></trkpt><trkpt lat="43.7202409544849" lon="11.376156753784743"><ele>385.20000000000005</ele><time>2026-05-03T10:37:50Z</time></trkpt><trkpt lat="43.72023667915349" lon="11.376263557957978"><ele>386.0</ele><time>2026-05-03T10:37:51Z</time></trkpt><trkpt lat="43.720200144261916" lon="11.376367987543386"><ele>386.0</ele><time>2026-05-03T10:37:53Z</time></trkpt><trkpt lat="43.72018163293211" lon="11.376494029934685"><ele>386.0</ele><time>2026-05-03T10:37:54Z</time></trkpt><trkpt lat="43.720176089480624" lon="11.376672375181556"><ele>386.0</ele><time>2026-05-03T10:37:55Z</time></trkpt><trkpt lat="43.72016170529614" lon="11.376775529593264"><ele>386.0</ele><time>2026-05-03T10:37:56Z</time></trkpt><trkpt lat="43.72015154800416" lon="11.37696851249409"><ele>386.0</ele><time>2026-05-03T10:37:58Z</time></trkpt><trkpt lat="43.720128399191026" lon="11.377107234809701"><ele>383.8</ele><time>2026-05-03T10:38:00Z</time></trkpt><trkpt lat="43.720126869587844" lon="11.377232953812447"><ele>381.6</ele><time>2026-05-03T10:38:01Z</time></trkpt><trkpt lat="43.72010195953867" lon="11.37735544931476"><ele>379.4</ele><time>2026-05-03T10:38:02Z</time></trkpt><trkpt lat="43.72006591728558" lon="11.377455925689356"><ele>377.2</ele><time>2026-05-03T10:38:03Z</time></trkpt><trkpt lat="43.720027364197044" lon="11.37752856060646"><ele>375.0</ele><time>2026-05-03T10:38:04Z</time></trkpt><trkpt lat="43.71988881002415" lon="11.3776457003678"><ele>375.0</ele><time>2026-05-03T10:38:06Z</time></trkpt><trkpt lat="43.71980106708545" lon="11.377711360535137"><ele>375.0</ele><time>2026-05-03T10:38:07Z</time></trkpt><trkpt lat="43.71972582273913" lon="11.377783758967139"><ele>375.0</ele><time>2026-05-03T10:38:09Z</time></trkpt><trkpt lat="43.71965635590333" lon="11.377827219519926"><ele>375.0</ele><time>2026-05-03T10:38:10Z</time></trkpt><trkpt lat="43.71963381689667" lon="11.378048598094434"><ele>375.0</ele><time>2026-05-03T10:38:12Z</time></trkpt><trkpt lat="43.719677990658596" lon="11.378217563700971"><ele>373.3333333333333</ele><time>2026-05-03T10:38:13Z</time></trkpt><trkpt lat="43.719748082308705" lon="11.378389294335404"><ele>371.66666666666663</ele><time>2026-05-03T10:38:14Z</time></trkpt><trkpt lat="43.719850184379794" lon="11.378594702914937"><ele>370.0</ele><time>2026-05-03T10:38:15Z</time></trkpt><trkpt lat="43.71994830301923" lon="11.378764814307385"><ele>372.2</ele><time>2026-05-03T10:38:16Z</time></trkpt><trkpt lat="43.719999019289425" lon="11.378925593154648"><ele>374.4</ele><time>2026-05-03T10:38:17Z</time></trkpt><trkpt lat="43.7200484969892" lon="11.379062706026037"><ele>376.6</ele><time>2026-05-03T10:38:18Z</time></trkpt><trkpt lat="43.72007127754566" lon="11.37918578221143"><ele>378.8</ele><time>2026-05-03T10:38:19Z</time></trkpt><trkpt lat="43.72009678813763" lon="11.379286352078081"><ele>381.0</ele><time>2026-05-03T10:38:20Z</time></trkpt><trkpt lat="43.72012684461309" lon="11.379384000793243"><ele>381.0</ele><time>2026-05-03T10:38:21Z</time></trkpt><trkpt lat="43.72015951856201" lon="11.37947001865143"><ele>381.0</ele><time>2026-05-03T10:38:22Z</time></trkpt><trkpt lat="43.72021020117097" lon="11.379612915860548"><ele>381.0</ele><time>2026-05-03T10:38:23Z</time></trkpt><trkpt lat="43.72020690507675" lon="11.379715910929377"><ele>381.0</ele><time>2026-05-03T10:38:25Z</time></trkpt><trkpt lat="43.72020535264212" lon="11.379813336431942"><ele>381.0</ele><time>2026-05-03T10:38:28Z</time></trkpt><trkpt lat="43.72020773262356" lon="11.379940459343288"><ele>381.0</ele><time>2026-05-03T10:38:32Z</time></trkpt><trkpt lat="43.72021739621625" lon="11.380042134960663"><ele>383.0</ele><time>2026-05-03T10:38:34Z</time></trkpt><trkpt lat="43.72004892624984" lon="11.380080851253148"><ele>385.0</ele><time>2026-05-03T10:38:52Z</time></trkpt><trkpt lat="43.71991170803185" lon="11.379923480518304"><ele>387.0</ele><time>2026-05-03T10:38:54Z</time></trkpt><trkpt lat="43.719831171959356" lon="11.379831176017587"><ele>387.0</ele><time>2026-05-03T10:38:55Z</time></trkpt><trkpt lat="43.71971875829655" lon="11.379792417793055"><ele>387.0</ele><time>2026-05-03T10:38:57Z</time></trkpt><trkpt lat="43.71964387964797" lon="11.379813309092958"><ele>387.0</ele><time>2026-05-03T10:38:58Z</time></trkpt><trkpt lat="43.71954612150769" lon="11.379845047880458"><ele>387.0</ele><time>2026-05-03T10:38:59Z</time></trkpt><trkpt lat="43.719459224847064" lon="11.379860878694377"><ele>387.0</ele><time>2026-05-03T10:39:00Z</time></trkpt><trkpt lat="43.719375530728826" lon="11.379856806310492"><ele>387.8333333333333</ele><time>2026-05-03T10:39:01Z</time></trkpt><trkpt lat="43.71928231480806" lon="11.379832516065633"><ele>388.66666666666663</ele><time>2026-05-03T10:39:02Z</time></trkpt><trkpt lat="43.71920409319111" lon="11.37980857416596"><ele>389.5</ele><time>2026-05-03T10:39:03Z</time></trkpt><trkpt lat="43.71914777236909" lon="11.379754929843553"><ele>390.3333333333333</ele><time>2026-05-03T10:39:04Z</time></trkpt><trkpt lat="43.719058678032376" lon="11.379712277116452"><ele>391.16666666666663</ele><time>2026-05-03T10:39:05Z</time></trkpt><trkpt lat="43.71898602680708" lon="11.379666660027935"><ele>392.0</ele><time>2026-05-03T10:39:06Z</time></trkpt><trkpt lat="43.71891382332888" lon="11.37962509072742"><ele>392.0</ele><time>2026-05-03T10:39:07Z</time></trkpt><trkpt lat="43.71884031753669" lon="11.379577090490894"><ele>392.0</ele><time>2026-05-03T10:39:08Z</time></trkpt><trkpt lat="43.71876872000337" lon="11.379524283278991"><ele>392.0</ele><time>2026-05-03T10:39:09Z</time></trkpt><trkpt lat="43.71869614137833" lon="11.379455898709145"><ele>392.0</ele><time>2026-05-03T10:39:10Z</time></trkpt><trkpt lat="43.71861495855403" lon="11.379378149868733"><ele>392.0</ele><time>2026-05-03T10:39:11Z</time></trkpt><trkpt lat="43.71852902008733" lon="11.379297978776487"><ele>395.20000000000005</ele><time>2026-05-03T10:39:12Z</time></trkpt><trkpt lat="43.718425726642906" lon="11.379229659457819"><ele>398.4</ele><time>2026-05-03T10:39:13Z</time></trkpt><trkpt lat="43.718324844361774" lon="11.379166836774258"><ele>401.6</ele><time>2026-05-03T10:39:14Z</time></trkpt><trkpt lat="43.718233698569954" lon="11.379096214406882"><ele>404.79999999999995</ele><time>2026-05-03T10:39:15Z</time></trkpt><trkpt lat="43.71812952031742" lon="11.379026692356451"><ele>408.0</ele><time>2026-05-03T10:39:16Z</time></trkpt><trkpt lat="43.71802880856737" lon="11.37892545388964"><ele>407.5</ele><time>2026-05-03T10:39:17Z</time></trkpt><trkpt lat="43.71794743298274" lon="11.378796628482196"><ele>407.0</ele><time>2026-05-03T10:39:18Z</time></trkpt><trkpt lat="43.71785711008211" lon="11.378660015078076"><ele>406.5</ele><time>2026-05-03T10:39:19Z</time></trkpt><trkpt lat="43.71777255581077" lon="11.378549075474247"><ele>406.0</ele><time>2026-05-03T10:39:20Z</time></trkpt><trkpt lat="43.71770317167333" lon="11.37846061597832"><ele>408.6</ele><time>2026-05-03T10:39:21Z</time></trkpt><trkpt lat="43.717626987011194" lon="11.378384669797626"><ele>411.20000000000005</ele><time>2026-05-03T10:39:22Z</time></trkpt><trkpt lat="43.717534025673594" lon="11.37831707257109"><ele>413.79999999999995</ele><time>2026-05-03T10:39:23Z</time></trkpt><trkpt lat="43.717442070237006" lon="11.378259818815625"><ele>416.4</ele><time>2026-05-03T10:39:24Z</time></trkpt><trkpt lat="43.71735243745826" lon="11.378204709038457"><ele>419.0</ele><time>2026-05-03T10:39:25Z</time></trkpt><trkpt lat="43.71726247452705" lon="11.378154188983789"><ele>419.0</ele><time>2026-05-03T10:39:26Z</time></trkpt><trkpt lat="43.71717846586965" lon="11.378119125160728"><ele>419.0</ele><time>2026-05-03T10:39:27Z</time></trkpt><trkpt lat="43.717091278389105" lon="11.37806355259317"><ele>419.0</ele><time>2026-05-03T10:39:28Z</time></trkpt><trkpt lat="43.7169913271925" lon="11.378028927776278"><ele>419.0</ele><time>2026-05-03T10:39:29Z</time></trkpt><trkpt lat="43.71690801702514" lon="11.377968983466193"><ele>419.0</ele><time>2026-05-03T10:39:30Z</time></trkpt><trkpt lat="43.716826332855966" lon="11.37792239612463"><ele>422.16666666666663</ele><time>2026-05-03T10:39:31Z</time></trkpt><trkpt lat="43.71676051722826" lon="11.377859942990485"><ele>425.3333333333333</ele><time>2026-05-03T10:39:32Z</time></trkpt><trkpt lat="43.7167017236839" lon="11.377821519014159"><ele>428.5</ele><time>2026-05-03T10:39:33Z</time></trkpt><trkpt lat="43.71664275795667" lon="11.377770024614843"><ele>431.66666666666663</ele><time>2026-05-03T10:39:35Z</time></trkpt><trkpt lat="43.71663570570922" lon="11.377677165627711"><ele>434.8333333333333</ele><time>2026-05-03T10:43:36.997Z</time></trkpt><trkpt lat="43.71662739781648" lon="11.377537343734746"><ele>438.0</ele><time>2026-05-03T10:43:38.997Z</time></trkpt><trkpt lat="43.71662598830244" lon="11.37743177065978"><ele>438.0</ele><time>2026-05-03T10:43:39.997Z</time></trkpt><trkpt lat="43.71662188242731" lon="11.377312849272975"><ele>437.99999999999994</ele><time>2026-05-03T10:43:40.997Z</time></trkpt><trkpt lat="43.71659768429363" lon="11.377169023788518"><ele>437.99999999999994</ele><time>2026-05-03T10:43:41.997Z</time></trkpt><trkpt lat="43.716565281930244" lon="11.377019292227804"><ele>438.0</ele><time>2026-05-03T10:43:42.997Z</time></trkpt><trkpt lat="43.716543818672" lon="11.37686065016034"><ele>438.0</ele><time>2026-05-03T10:43:43.997Z</time></trkpt><trkpt lat="43.71652938109512" lon="11.37670650146313"><ele>440.0</ele><time>2026-05-03T10:43:44.997Z</time></trkpt><trkpt lat="43.71654380008152" lon="11.376599335465365"><ele>442.0</ele><time>2026-05-03T10:43:45.998Z</time></trkpt><trkpt lat="43.71654301173356" lon="11.376506588560131"><ele>444.0</ele><time>2026-05-03T10:43:46.998Z</time></trkpt><trkpt lat="43.716553971180524" lon="11.37641358124642"><ele>446.0</ele><time>2026-05-03T10:43:47.998Z</time></trkpt><trkpt lat="43.71659633846602" lon="11.376313124732285"><ele>448.0</ele><time>2026-05-03T10:43:49.998Z</time></trkpt><trkpt lat="43.71666819343873" lon="11.37633199339664"><ele>450.0</ele><time>2026-05-03T10:43:50.998Z</time></trkpt><trkpt lat="43.71676152310777" lon="11.376244898978133"><ele>453.2</ele><time>2026-05-03T10:43:52.998Z</time></trkpt><trkpt lat="43.716805368605556" lon="11.376174971548409"><ele>456.4</ele><time>2026-05-03T10:43:53.998Z</time></trkpt><trkpt lat="43.716797417163185" lon="11.376034970753789"><ele>459.6</ele><time>2026-05-03T10:43:54.998Z</time></trkpt><trkpt lat="43.71679625953846" lon="11.37587643768212"><ele>462.8</ele><time>2026-05-03T10:43:55.998Z</time></trkpt><trkpt lat="43.71681881504365" lon="11.375732837440976"><ele>466.0</ele><time>2026-05-03T10:43:56.998Z</time></trkpt><trkpt lat="43.71687872766076" lon="11.37561094499351"><ele>467.6</ele><time>2026-05-03T10:43:57.998Z</time></trkpt><trkpt lat="43.716934606486404" lon="11.375461001212557"><ele>469.20000000000005</ele><time>2026-05-03T10:43:58.998Z</time></trkpt><trkpt lat="43.71696399829875" lon="11.375353765038835"><ele>470.79999999999995</ele><time>2026-05-03T10:43:59.998Z</time></trkpt><trkpt lat="43.71697658343216" lon="11.375247543582956"><ele>472.4</ele><time>2026-05-03T10:44:00.999Z</time></trkpt><trkpt lat="43.716953579580824" lon="11.375125042011993"><ele>474.0</ele><time>2026-05-03T10:44:01.999Z</time></trkpt><trkpt lat="43.716874043123475" lon="11.37500641357254"><ele>474.0</ele><time>2026-05-03T10:44:02.999Z</time></trkpt><trkpt lat="43.71679083970996" lon="11.374896603425466"><ele>474.0</ele><time>2026-05-03T10:44:03.999Z</time></trkpt><trkpt lat="43.7167084087418" lon="11.374795779530833"><ele>474.0</ele><time>2026-05-03T10:44:04.999Z</time></trkpt><trkpt lat="43.71660751292394" lon="11.374759813124424"><ele>474.0</ele><time>2026-05-03T10:44:05.999Z</time></trkpt><trkpt lat="43.71652964409211" lon="11.374686679422261"><ele>474.0</ele><time>2026-05-03T10:44:06.999Z</time></trkpt><trkpt lat="43.716470004508125" lon="11.374600138859213"><ele>472.79999999999995</ele><time>2026-05-03T10:44:07.999Z</time></trkpt><trkpt lat="43.71643188370122" lon="11.374465772736533"><ele>471.59999999999997</ele><time>2026-05-03T10:44:08.999Z</time></trkpt><trkpt lat="43.716390919724105" lon="11.374339232312957"><ele>470.4</ele><time>2026-05-03T10:44:09.999Z</time></trkpt><trkpt lat="43.7163409309436" lon="11.374196004053841"><ele>469.2</ele><time>2026-05-03T10:44:10.999Z</time></trkpt><trkpt lat="43.716291756969945" lon="11.37413679280937"><ele>468.0</ele><time>2026-05-03T10:44:11.999Z</time></trkpt><trkpt lat="43.71620288089122" lon="11.374043771225548"><ele>468.0</ele><time>2026-05-03T10:44:12.999Z</time></trkpt><trkpt lat="43.716096748816625" lon="11.373984298011328"><ele>468.0</ele><time>2026-05-03T10:44:13.999Z</time></trkpt><trkpt lat="43.71596034180882" lon="11.373911506347694"><ele>468.0</ele><time>2026-05-03T10:44:14.999Z</time></trkpt><trkpt lat="43.715806652219435" lon="11.373887553707013"><ele>468.0</ele><time>2026-05-03T10:44:15.999Z</time></trkpt><trkpt lat="43.715680925213455" lon="11.37384946308438"><ele>473.0</ele><time>2026-05-03T10:44:16.999Z</time></trkpt><trkpt lat="43.7155797806352" lon="11.37380271372607"><ele>478.0</ele><time>2026-05-03T10:44:17.999Z</time></trkpt><trkpt lat="43.71547319626751" lon="11.373694605216304"><ele>483.0</ele><time>2026-05-03T10:44:18.999Z</time></trkpt><trkpt lat="43.71535954987686" lon="11.373556740952656"><ele>488.0</ele><time>2026-05-03T10:44:19.999Z</time></trkpt><trkpt lat="43.715235403589105" lon="11.373464365087083"><ele>495.0</ele><time>2026-05-03T10:44:20.999Z</time></trkpt><trkpt lat="43.715102312744555" lon="11.373416282884483"><ele>502.0</ele><time>2026-05-03T10:44:21.999Z</time></trkpt><trkpt lat="43.71499258202208" lon="11.373371370529162"><ele>509.0</ele><time>2026-05-03T10:44:22.999Z</time></trkpt><trkpt lat="43.71488355768245" lon="11.373347151998201"><ele>516.0</ele><time>2026-05-03T10:44:23.999Z</time></trkpt><trkpt lat="43.71477781953796" lon="11.373334543070163"><ele>516.0</ele><time>2026-05-03T10:44:24.999Z</time></trkpt><trkpt lat="43.71465712186804" lon="11.373359744310198"><ele>516.0</ele><time>2026-05-03T10:44:25.999Z</time></trkpt><trkpt lat="43.7145227501993" lon="11.37340696027442"><ele>516.0</ele><time>2026-05-03T10:44:26.999Z</time></trkpt><trkpt lat="43.71443649607586" lon="11.373405575266881"><ele>516.0</ele><time>2026-05-03T10:44:27.999Z</time></trkpt><trkpt lat="43.71436668449404" lon="11.373419869176717"><ele>516.0</ele><time>2026-05-03T10:44:28.999Z</time></trkpt><trkpt lat="43.71425051582757" lon="11.37337588785976"><ele>519.2</ele><time>2026-05-03T10:44:30.999Z</time></trkpt><trkpt lat="43.714212963917134" lon="11.3732547600213"><ele>522.4000000000001</ele><time>2026-05-03T10:44:31.999Z</time></trkpt><trkpt lat="43.714193070310316" lon="11.373142236129844"><ele>525.6</ele><time>2026-05-03T10:44:32.999Z</time></trkpt><trkpt lat="43.71423206227824" lon="11.373013962388878"><ele>528.8000000000001</ele><time>2026-05-03T10:44:33.999Z</time></trkpt><trkpt lat="43.71428385324666" lon="11.372882794626374"><ele>532.0</ele><time>2026-05-03T10:44:34.999Z</time></trkpt><trkpt lat="43.714281240087494" lon="11.372716752449472"><ele>534.25</ele><time>2026-05-03T10:44:35.999Z</time></trkpt><trkpt lat="43.71428107725562" lon="11.372584874899944"><ele>536.5</ele><time>2026-05-03T10:44:36.999Z</time></trkpt><trkpt lat="43.71414481677931" lon="11.3725576186612"><ele>538.75</ele><time>2026-05-03T10:44:38.999Z</time></trkpt><trkpt lat="43.71402292478989" lon="11.372614466146628"><ele>541.0</ele><time>2026-05-03T10:44:39.999Z</time></trkpt><trkpt lat="43.7139056310248" lon="11.372675285223327"><ele>541.0</ele><time>2026-05-03T10:44:40.999Z</time></trkpt><trkpt lat="43.71379559456126" lon="11.372761409506502"><ele>541.0</ele><time>2026-05-03T10:44:41.999Z</time></trkpt><trkpt lat="43.71371131087452" lon="11.37280483021472"><ele>541.0</ele><time>2026-05-03T10:44:43Z</time></trkpt><trkpt lat="43.7136355669719" lon="11.37287879129799"><ele>541.0</ele><time>2026-05-03T10:44:45Z</time></trkpt><trkpt lat="43.71358376353378" lon="11.372944882104113"><ele>541.0</ele><time>2026-05-03T10:44:49Z</time></trkpt><trkpt lat="43.7134849214411" lon="11.373061350358821"><ele>542.4</ele><time>2026-05-03T10:45:33Z</time></trkpt><trkpt lat="43.71340008881488" lon="11.373084595025349"><ele>543.8</ele><time>2026-05-03T10:45:34Z</time></trkpt><trkpt lat="43.71331148757172" lon="11.373106737789826"><ele>545.1999999999999</ele><time>2026-05-03T10:45:35Z</time></trkpt><trkpt lat="43.7132162739616" lon="11.373094475313467"><ele>546.6</ele><time>2026-05-03T10:45:36Z</time></trkpt><trkpt lat="43.71312019063276" lon="11.373071218834655"><ele>548.0</ele><time>2026-05-03T10:45:37Z</time></trkpt><trkpt lat="43.71303262670292" lon="11.373037311371853"><ele>551.8</ele><time>2026-05-03T10:45:38Z</time></trkpt><trkpt lat="43.71291790786602" lon="11.372985184755938"><ele>555.5999999999999</ele><time>2026-05-03T10:45:39Z</time></trkpt><trkpt lat="43.71284299171593" lon="11.37291735000442"><ele>559.4000000000001</ele><time>2026-05-03T10:45:40Z</time></trkpt><trkpt lat="43.71277436026914" lon="11.372844897970516"><ele>563.2</ele><time>2026-05-03T10:45:41Z</time></trkpt><trkpt lat="43.712699193385355" lon="11.372786343835251"><ele>567.0</ele><time>2026-05-03T10:45:42Z</time></trkpt><trkpt lat="43.71260827075441" lon="11.37270343304808"><ele>567.0</ele><time>2026-05-03T10:45:44Z</time></trkpt><trkpt lat="43.712537861024344" lon="11.372616145506335"><ele>567.0</ele><time>2026-05-03T10:45:46Z</time></trkpt><trkpt lat="43.71248219587429" lon="11.3725547417145"><ele>567.0</ele><time>2026-05-03T10:45:48Z</time></trkpt><trkpt lat="43.712419383412964" lon="11.37250114047821"><ele>567.0</ele><time>2026-05-03T10:45:51Z</time></trkpt><trkpt lat="43.71233669579889" lon="11.372397444557254"><ele>567.0</ele><time>2026-05-03T10:45:54Z</time></trkpt><trkpt lat="43.71228208908671" lon="11.372351002671602"><ele>567.0</ele><time>2026-05-03T10:45:55Z</time></trkpt><trkpt lat="43.71218543204419" lon="11.372256911526964"><ele>568.8333333333334</ele><time>2026-05-03T10:45:57Z</time></trkpt><trkpt lat="43.71211891771643" lon="11.372164308356894"><ele>570.6666666666666</ele><time>2026-05-03T10:45:59Z</time></trkpt><trkpt lat="43.7120505988195" lon="11.372097944146189"><ele>572.5</ele><time>2026-05-03T10:46:01Z</time></trkpt><trkpt lat="43.711990472869914" lon="11.372028175134126"><ele>574.3333333333333</ele><time>2026-05-03T10:46:03Z</time></trkpt><trkpt lat="43.71189270064917" lon="11.371978457646135"><ele>576.1666666666666</ele><time>2026-05-03T10:46:05Z</time></trkpt><trkpt lat="43.71182151411766" lon="11.371983071741179"><ele>578.0</ele><time>2026-05-03T10:46:06Z</time></trkpt><trkpt lat="43.71175724175509" lon="11.3720232736651"><ele>578.0</ele><time>2026-05-03T10:46:07Z</time></trkpt><trkpt lat="43.711692479110546" lon="11.372103655030019"><ele>578.0</ele><time>2026-05-03T10:46:08Z</time></trkpt><trkpt lat="43.71165220004253" lon="11.372210176327279"><ele>578.0</ele><time>2026-05-03T10:46:09Z</time></trkpt><trkpt lat="43.711589279936575" lon="11.37234463360091"><ele>578.0</ele><time>2026-05-03T10:46:11Z</time></trkpt><trkpt lat="43.71152788976439" lon="11.372434845242692"><ele>578.0</ele><time>2026-05-03T10:46:13Z</time></trkpt><trkpt lat="43.71145520775752" lon="11.37242714098371"><ele>577.5</ele><time>2026-05-03T10:46:14Z</time></trkpt><trkpt lat="43.71134902437514" lon="11.372388398072042"><ele>577.0</ele><time>2026-05-03T10:46:16Z</time></trkpt><trkpt lat="43.71127641876239" lon="11.372312193205211"><ele>576.5</ele><time>2026-05-03T10:46:17Z</time></trkpt><trkpt lat="43.7112105798854" lon="11.372276095162405"><ele>576.0</ele><time>2026-05-03T10:46:18Z</time></trkpt><trkpt lat="43.71113532084573" lon="11.372243359819167"><ele>575.5</ele><time>2026-05-03T10:46:19Z</time></trkpt><trkpt lat="43.711050414575986" lon="11.37220530576461"><ele>575.0</ele><time>2026-05-03T10:46:20Z</time></trkpt><trkpt lat="43.71097247064464" lon="11.372175727681762"><ele>576.8333333333333</ele><time>2026-05-03T10:46:21Z</time></trkpt><trkpt lat="43.71090236309638" lon="11.372148890640437"><ele>578.6666666666666</ele><time>2026-05-03T10:46:22Z</time></trkpt><trkpt lat="43.71084084522527" lon="11.372112669617987"><ele>580.5</ele><time>2026-05-03T10:46:23Z</time></trkpt><trkpt lat="43.710740082897054" lon="11.372029487087046"><ele>582.3333333333334</ele><time>2026-05-03T10:46:25Z</time></trkpt><trkpt lat="43.71068410936912" lon="11.371978043447557"><ele>584.1666666666667</ele><time>2026-05-03T10:46:26Z</time></trkpt><trkpt lat="43.71062757950065" lon="11.371919300699698"><ele>586.0</ele><time>2026-05-03T10:46:27Z</time></trkpt><trkpt lat="43.71057677149057" lon="11.371866675308997"><ele>586.0</ele><time>2026-05-03T10:46:28Z</time></trkpt><trkpt lat="43.710474066961815" lon="11.37175659392844"><ele>586.0</ele><time>2026-05-03T10:46:30Z</time></trkpt><trkpt lat="43.71041714122737" lon="11.371693253134168"><ele>586.0</ele><time>2026-05-03T10:46:31Z</time></trkpt><trkpt lat="43.71036179581591" lon="11.371634743529258"><ele>586.0</ele><time>2026-05-03T10:46:32Z</time></trkpt><trkpt lat="43.71031322972445" lon="11.371578173958694"><ele>586.0</ele><time>2026-05-03T10:46:33Z</time></trkpt><trkpt lat="43.71024572869776" lon="11.371478244889923"><ele>586.0</ele><time>2026-05-03T10:46:35Z</time></trkpt><trkpt lat="43.71018227050691" lon="11.371422729974087"><ele>586.6</ele><time>2026-05-03T10:46:37Z</time></trkpt><trkpt lat="43.710119152812354" lon="11.371438916102694"><ele>587.2</ele><time>2026-05-03T10:47:22.001Z</time></trkpt><trkpt lat="43.71005143582087" lon="11.371423968989227"><ele>587.8</ele><time>2026-05-03T10:48:37.001Z</time></trkpt><trkpt lat="43.70989612739588" lon="11.371548245084615"><ele>588.4</ele><time>2026-05-03T10:53:57.001Z</time></trkpt><trkpt lat="43.709850722843264" lon="11.371625810020321"><ele>589.0</ele><time>2026-05-03T10:53:58.001Z</time></trkpt><trkpt lat="43.70982471467272" lon="11.371768197351255"><ele>589.0</ele><time>2026-05-03T10:54:00.001Z</time></trkpt><trkpt lat="43.709768362114104" lon="11.371879111168862"><ele>589.0</ele><time>2026-05-03T10:54:02.001Z</time></trkpt><trkpt lat="43.709685902207546" lon="11.371921091791142"><ele>589.0</ele><time>2026-05-03T10:54:03.001Z</time></trkpt><trkpt lat="43.709617720445955" lon="11.371972566919693"><ele>589.0</ele><time>2026-05-03T10:54:04.001Z</time></trkpt><trkpt lat="43.70965016430907" lon="11.372062625054204"><ele>589.0</ele><time>2026-05-03T10:54:05.001Z</time></trkpt><trkpt lat="43.70959995579869" lon="11.372210699339135"><ele>589.8333333333334</ele><time>2026-05-03T10:54:07.001Z</time></trkpt><trkpt lat="43.7095453860192" lon="11.37229105561457"><ele>590.6666666666667</ele><time>2026-05-03T10:54:09.001Z</time></trkpt><trkpt lat="43.7094843722305" lon="11.3723433960371"><ele>591.5</ele><time>2026-05-03T10:54:12.001Z</time></trkpt><trkpt lat="43.709408664409594" lon="11.372336499179736"><ele>592.3333333333334</ele><time>2026-05-03T10:54:13.001Z</time></trkpt><trkpt lat="43.709328449196384" lon="11.37234197641736"><ele>593.1666666666666</ele><time>2026-05-03T10:54:16.001Z</time></trkpt><trkpt lat="43.709264679466656" lon="11.372379451806161"><ele>594.0</ele><time>2026-05-03T10:54:19.001Z</time></trkpt><trkpt lat="43.70930135813182" lon="11.372489017335463"><ele>597.3333333333334</ele><time>2026-05-03T10:54:38.001Z</time></trkpt><trkpt lat="43.70923056483717" lon="11.37247823391631"><ele>600.6666666666666</ele><time>2026-05-03T10:54:44.001Z</time></trkpt><trkpt lat="43.70916039917219" lon="11.37249212408714"><ele>604.0</ele><time>2026-05-03T10:54:45.001Z</time></trkpt><trkpt lat="43.70910166328406" lon="11.372524404834683"><ele>607.3333333333333</ele><time>2026-05-03T10:54:47.001Z</time></trkpt><trkpt lat="43.70900853118345" lon="11.37256259774408"><ele>610.6666666666666</ele><time>2026-05-03T10:54:50.001Z</time></trkpt><trkpt lat="43.70896338374778" lon="11.372688405897366"><ele>614.0</ele><time>2026-05-03T10:54:53.001Z</time></trkpt><trkpt lat="43.708900694604004" lon="11.372775100592166"><ele>614.0</ele><time>2026-05-03T10:54:56.001Z</time></trkpt><trkpt lat="43.70883692498351" lon="11.373018126581568"><ele>614.0</ele><time>2026-05-03T10:55:04.001Z</time></trkpt><trkpt lat="43.70881086262811" lon="11.373158223820855"><ele>614.0</ele><time>2026-05-03T10:55:06.001Z</time></trkpt><trkpt lat="43.7088310705983" lon="11.373274138571531"><ele>614.0</ele><time>2026-05-03T10:55:09.001Z</time></trkpt><trkpt lat="43.70878964687876" lon="11.373391229691666"><ele>615.6666666666666</ele><time>2026-05-03T10:55:12.001Z</time></trkpt><trkpt lat="43.7087841771318" lon="11.373479466104232"><ele>617.3333333333333</ele><time>2026-05-03T10:55:14.001Z</time></trkpt><trkpt lat="43.70874730266887" lon="11.37358855727239"><ele>619.0</ele><time>2026-05-03T10:55:17.001Z</time></trkpt><trkpt lat="43.708677820734195" lon="11.373659756202812"><ele>620.6666666666666</ele><time>2026-05-03T10:55:18.001Z</time></trkpt><trkpt lat="43.708619788783004" lon="11.373752136709923"><ele>622.3333333333334</ele><time>2026-05-03T10:55:21.001Z</time></trkpt><trkpt lat="43.70858640821995" lon="11.37383708398923"><ele>624.0</ele><time>2026-05-03T10:55:23.001Z</time></trkpt><trkpt lat="43.708558540019304" lon="11.373966274467163"><ele>624.8333333333334</ele><time>2026-05-03T10:55:25.001Z</time></trkpt><trkpt lat="43.708512217675974" lon="11.374033345376422"><ele>625.6666666666666</ele><time>2026-05-03T10:55:27.001Z</time></trkpt><trkpt lat="43.70847230493473" lon="11.374106549061212"><ele>626.5</ele><time>2026-05-03T10:55:30.001Z</time></trkpt><trkpt lat="43.70841167670565" lon="11.374224152300732"><ele>627.3333333333333</ele><time>2026-05-03T10:55:37.001Z</time></trkpt><trkpt lat="43.70849694857085" lon="11.374218570571452"><ele>628.1666666666666</ele><time>2026-05-03T10:56:36Z</time></trkpt><trkpt lat="43.70853832952917" lon="11.374129515196175"><ele>629.0</ele><time>2026-05-03T10:56:54Z</time></trkpt><trkpt lat="43.70860726832595" lon="11.374052226506304"><ele>629.0</ele><time>2026-05-03T10:57:00Z</time></trkpt><trkpt lat="43.7086265892255" lon="11.37396359932716"><ele>629.0</ele><time>2026-05-03T10:57:11.001Z</time></trkpt><trkpt lat="43.708680811126264" lon="11.373908240659981"><ele>629.0</ele><time>2026-05-03T10:57:18.001Z</time></trkpt><trkpt lat="43.70870776587382" lon="11.37382194623557"><ele>629.0</ele><time>2026-05-03T10:57:30.001Z</time></trkpt><trkpt lat="43.70874026219871" lon="11.373747069898902"><ele>629.0</ele><time>2026-05-03T10:57:37.001Z</time></trkpt><trkpt lat="43.70882461283967" lon="11.373692655468293"><ele>629.0</ele><time>2026-05-03T10:57:42.001Z</time></trkpt><trkpt lat="43.70883689519995" lon="11.373591257652826"><ele>629.0</ele><time>2026-05-03T10:57:56.001Z</time></trkpt><trkpt lat="43.70886701404138" lon="11.373494738761378"><ele>628.0</ele><time>2026-05-03T10:58:00.001Z</time></trkpt><trkpt lat="43.70886673477287" lon="11.373397113664941"><ele>627.0</ele><time>2026-05-03T10:58:07.001Z</time></trkpt><trkpt lat="43.70882707608945" lon="11.373321522668004"><ele>626.0</ele><time>2026-05-03T10:58:14.001Z</time></trkpt><trkpt lat="43.708833666065736" lon="11.373226246482355"><ele>625.0</ele><time>2026-05-03T10:58:23.001Z</time></trkpt><trkpt lat="43.70889702057005" lon="11.373166591807461"><ele>624.0</ele><time>2026-05-03T10:58:35Z</time></trkpt><trkpt lat="43.70894663895578" lon="11.372937130411461"><ele>622.5714285714286</ele><time>2026-05-03T10:58:53Z</time></trkpt><trkpt lat="43.70894622525029" lon="11.3728376767238"><ele>621.1428571428571</ele><time>2026-05-03T10:59:00Z</time></trkpt><trkpt lat="43.70892410644593" lon="11.372720136993799"><ele>619.7142857142857</ele><time>2026-05-03T10:59:05Z</time></trkpt><trkpt lat="43.70897485446167" lon="11.372654985761118"><ele>618.2857142857142</ele><time>2026-05-03T10:59:23Z</time></trkpt><trkpt lat="43.70903407591184" lon="11.37269408875864"><ele>616.8571428571429</ele><time>2026-05-03T10:59:31Z</time></trkpt><trkpt lat="43.709051094290636" lon="11.37260409193515"><ele>615.4285714285713</ele><time>2026-05-03T10:59:36Z</time></trkpt><trkpt lat="43.70910461974999" lon="11.372545761006482"><ele>614.0</ele><time>2026-05-03T10:59:46Z</time></trkpt><trkpt lat="43.709189424493346" lon="11.372523148402253"><ele>613.9999999999999</ele><time>2026-05-03T10:59:56Z</time></trkpt><trkpt lat="43.7092478702147" lon="11.37247570499476"><ele>614.0</ele><time>2026-05-03T11:00:02Z</time></trkpt><trkpt lat="43.70931746674564" lon="11.372477877865926"><ele>614.0</ele><time>2026-05-03T11:00:09Z</time></trkpt><trkpt lat="43.709396792260414" lon="11.37249807196325"><ele>614.0</ele><time>2026-05-03T11:00:16.001Z</time></trkpt><trkpt lat="43.70938119395339" lon="11.372400273060862"><ele>614.0</ele><time>2026-05-03T11:00:47Z</time></trkpt><trkpt lat="43.70944971522676" lon="11.37242205071835"><ele>613.9999999999999</ele><time>2026-05-03T11:02:02Z</time></trkpt><trkpt lat="43.70938275221426" lon="11.372446016802103"><ele>614.0</ele><time>2026-05-03T11:02:56Z</time></trkpt><trkpt lat="43.709317588545126" lon="11.372501515172912"><ele>613.9999999999999</ele><time>2026-05-03T11:03:52Z</time></trkpt><trkpt lat="43.70925935001844" lon="11.372457422443336"><ele>614.0</ele><time>2026-05-03T11:04:20Z</time></trkpt><trkpt lat="43.709187471285276" lon="11.372464252418103"><ele>614.0</ele><time>2026-05-03T11:04:36Z</time></trkpt><trkpt lat="43.70912872139135" lon="11.372502272831055"><ele>614.0</ele><time>2026-05-03T11:04:50Z</time></trkpt><trkpt lat="43.7090641795215" lon="11.372525956232016"><ele>614.0</ele><time>2026-05-03T11:04:59Z</time></trkpt><trkpt lat="43.70899325751806" lon="11.372576548780868"><ele>613.9999999999999</ele><time>2026-05-03T11:05:06Z</time></trkpt><trkpt lat="43.70894111260707" lon="11.372638587336093"><ele>614.0</ele><time>2026-05-03T11:05:20Z</time></trkpt><trkpt lat="43.70889810647961" lon="11.372751143510913"><ele>613.9999999999999</ele><time>2026-05-03T11:05:43Z</time></trkpt><trkpt lat="43.70888385115818" lon="11.37284783211274"><ele>614.0</ele><time>2026-05-03T11:06:21Z</time></trkpt><trkpt lat="43.708844161212106" lon="11.372939424962151"><ele>614.0</ele><time>2026-05-03T11:06:33Z</time></trkpt><trkpt lat="43.708838536942096" lon="11.373029160216024"><ele>614.0</ele><time>2026-05-03T11:06:43Z</time></trkpt><trkpt lat="43.70882588238333" lon="11.373114808331486"><ele>614.0</ele><time>2026-05-03T11:06:53Z</time></trkpt><trkpt lat="43.70882248856278" lon="11.373211209968325"><ele>613.9999999999999</ele><time>2026-05-03T11:07:00Z</time></trkpt><trkpt lat="43.708811827905464" lon="11.373306720242292"><ele>614.0</ele><time>2026-05-03T11:07:11Z</time></trkpt><trkpt lat="43.70885107748186" lon="11.37337577439491"><ele>616.0</ele><time>2026-05-03T11:07:22Z</time></trkpt><trkpt lat="43.70881253502675" lon="11.373449884634212"><ele>618.0</ele><time>2026-05-03T11:07:37Z</time></trkpt><trkpt lat="43.70873144690356" lon="11.373570561000735"><ele>620.0</ele><time>2026-05-03T11:07:48Z</time></trkpt><trkpt lat="43.70878457504903" lon="11.373633401445005"><ele>622.0</ele><time>2026-05-03T11:07:51Z</time></trkpt><trkpt lat="43.708744218780716" lon="11.37381804063132"><ele>624.0</ele><time>2026-05-03T11:08:17Z</time></trkpt><trkpt lat="43.70868128269033" lon="11.373857000772533"><ele>624.7142857142858</ele><time>2026-05-03T11:08:41Z</time></trkpt><trkpt lat="43.708632253834296" lon="11.373934727442148"><ele>625.4285714285713</ele><time>2026-05-03T11:08:52Z</time></trkpt><trkpt lat="43.70856972590261" lon="11.373965150505192"><ele>626.1428571428571</ele><time>2026-05-03T11:09:01Z</time></trkpt><trkpt lat="43.708514188924916" lon="11.374044060984371"><ele>626.8571428571429</ele><time>2026-05-03T11:09:07Z</time></trkpt><trkpt lat="43.7084682704436" lon="11.374134670487072"><ele>627.5714285714287</ele><time>2026-05-03T11:09:14Z</time></trkpt><trkpt lat="43.70842531408589" lon="11.374214020642134"><ele>628.2857142857142</ele><time>2026-05-03T11:09:20Z</time></trkpt><trkpt lat="43.70840772283035" lon="11.374311128532513"><ele>629.0</ele><time>2026-05-03T11:09:27Z</time></trkpt><trkpt lat="43.70834278058539" lon="11.3743098064214"><ele>632.6</ele><time>2026-05-03T11:19:44Z</time></trkpt><trkpt lat="43.70827246103168" lon="11.37437539152901"><ele>636.2</ele><time>2026-05-03T11:19:46Z</time></trkpt><trkpt lat="43.70818859812951" lon="11.374468648623186"><ele>639.8000000000001</ele><time>2026-05-03T11:19:48Z</time></trkpt><trkpt lat="43.70810305909832" lon="11.374432208346942"><ele>643.4</ele><time>2026-05-03T11:19:50Z</time></trkpt><trkpt lat="43.70797219944691" lon="11.374501759040633"><ele>647.0</ele><time>2026-05-03T11:19:53Z</time></trkpt><trkpt lat="43.70789270030409" lon="11.374565845354287"><ele>647.0</ele><time>2026-05-03T11:19:55Z</time></trkpt><trkpt lat="43.70778996559235" lon="11.374540624554212"><ele>647.0</ele><time>2026-05-03T11:19:57Z</time></trkpt><trkpt lat="43.70772606796845" lon="11.374472410801701"><ele>647.0</ele><time>2026-05-03T11:19:59Z</time></trkpt><trkpt lat="43.7077424546426" lon="11.374379042378939"><ele>647.0</ele><time>2026-05-03T11:20:01Z</time></trkpt><trkpt lat="43.707646125795804" lon="11.37430269141459"><ele>647.0</ele><time>2026-05-03T11:20:03Z</time></trkpt><trkpt lat="43.70752076878053" lon="11.374323615796534"><ele>649.8</ele><time>2026-05-03T11:20:05Z</time></trkpt><trkpt lat="43.70745488321204" lon="11.374298325972537"><ele>652.6</ele><time>2026-05-03T11:20:06Z</time></trkpt><trkpt lat="43.70735989471373" lon="11.374239434348342"><ele>655.4</ele><time>2026-05-03T11:20:08Z</time></trkpt><trkpt lat="43.707294722538386" lon="11.374180582476608"><ele>658.1999999999999</ele><time>2026-05-03T11:20:10Z</time></trkpt><trkpt lat="43.70720618495206" lon="11.374112954169043"><ele>661.0</ele><time>2026-05-03T11:20:12Z</time></trkpt><trkpt lat="43.707096187648794" lon="11.374127753526864"><ele>661.0</ele><time>2026-05-03T11:20:14Z</time></trkpt><trkpt lat="43.70700046321929" lon="11.374196757754078"><ele>661.0</ele><time>2026-05-03T11:20:17Z</time></trkpt><trkpt lat="43.70698417475871" lon="11.374315885209466"><ele>661.0</ele><time>2026-05-03T11:20:19Z</time></trkpt><trkpt lat="43.70693230005045" lon="11.374459214472893"><ele>661.0</ele><time>2026-05-03T11:20:22Z</time></trkpt><trkpt lat="43.706876546484445" lon="11.374525142303126"><ele>661.0</ele><time>2026-05-03T11:20:24Z</time></trkpt><trkpt lat="43.7068329377531" lon="11.3746005199924"><ele>663.4</ele><time>2026-05-03T11:20:25Z</time></trkpt><trkpt lat="43.70684998343778" lon="11.374345926621768"><ele>665.8</ele><time>2026-05-03T11:20:30Z</time></trkpt><trkpt lat="43.70679226516275" lon="11.374285501881786"><ele>668.1999999999999</ele><time>2026-05-03T11:20:31Z</time></trkpt><trkpt lat="43.70674479878248" lon="11.374198253852773"><ele>670.5999999999999</ele><time>2026-05-03T11:20:33Z</time></trkpt><trkpt lat="43.706682100531914" lon="11.374216788068486"><ele>673.0</ele><time>2026-05-03T11:20:36Z</time></trkpt><trkpt lat="43.706594374146896" lon="11.374256735770153"><ele>673.0</ele><time>2026-05-03T11:20:48Z</time></trkpt><trkpt lat="43.7065063019322" lon="11.37421206967165"><ele>673.0</ele><time>2026-05-03T11:20:50Z</time></trkpt><trkpt lat="43.70643675134615" lon="11.374105570498006"><ele>673.0</ele><time>2026-05-03T11:20:51Z</time></trkpt><trkpt lat="43.70635281506223" lon="11.37401971193952"><ele>673.0</ele><time>2026-05-03T11:20:52Z</time></trkpt><trkpt lat="43.70629581598877" lon="11.373922630727323"><ele>673.0</ele><time>2026-05-03T11:20:53Z</time></trkpt><trkpt lat="43.70623667003575" lon="11.373832248846817"><ele>672.8333333333334</ele><time>2026-05-03T11:20:54Z</time></trkpt><trkpt lat="43.70618284896834" lon="11.373749659077445"><ele>672.6666666666667</ele><time>2026-05-03T11:20:55Z</time></trkpt><trkpt lat="43.70614075758329" lon="11.37367818676572"><ele>672.5</ele><time>2026-05-03T11:20:56Z</time></trkpt><trkpt lat="43.70609368502456" lon="11.37360376213545"><ele>672.3333333333334</ele><time>2026-05-03T11:20:57Z</time></trkpt><trkpt lat="43.706017913637275" lon="11.37349746543689"><ele>672.1666666666666</ele><time>2026-05-03T11:20:59Z</time></trkpt><trkpt lat="43.70595037278665" lon="11.373426166853465"><ele>672.0</ele><time>2026-05-03T11:21:00Z</time></trkpt><trkpt lat="43.705890484703076" lon="11.373381980664194"><ele>672.0</ele><time>2026-05-03T11:21:01Z</time></trkpt><trkpt lat="43.70580924002987" lon="11.373263853611123"><ele>672.0</ele><time>2026-05-03T11:21:02Z</time></trkpt><trkpt lat="43.70573233435993" lon="11.373278042373713"><ele>672.0</ele><time>2026-05-03T11:21:03Z</time></trkpt><trkpt lat="43.705646454063185" lon="11.373260296724338"><ele>672.0</ele><time>2026-05-03T11:21:04Z</time></trkpt><trkpt lat="43.70556492553728" lon="11.373196365615382"><ele>672.0</ele><time>2026-05-03T11:21:05Z</time></trkpt><trkpt lat="43.70545628099523" lon="11.373116485068183"><ele>672.0</ele><time>2026-05-03T11:21:06Z</time></trkpt><trkpt lat="43.70532114720799" lon="11.373075608472938"><ele>672.0</ele><time>2026-05-03T11:21:07Z</time></trkpt><trkpt lat="43.70520456988301" lon="11.37302032789576"><ele>672.0</ele><time>2026-05-03T11:21:08Z</time></trkpt><trkpt lat="43.70510794433995" lon="11.372991480277522"><ele>672.0</ele><time>2026-05-03T11:21:09Z</time></trkpt><trkpt lat="43.705026962237866" lon="11.372992672220814"><ele>672.0</ele><time>2026-05-03T11:21:10Z</time></trkpt><trkpt lat="43.704934029625484" lon="11.37294279123534"><ele>672.1666666666666</ele><time>2026-05-03T11:21:12Z</time></trkpt><trkpt lat="43.70487141976128" lon="11.372962422132783"><ele>672.3333333333334</ele><time>2026-05-03T11:21:14Z</time></trkpt><trkpt lat="43.70480648935116" lon="11.372954612016631"><ele>672.5</ele><time>2026-05-03T11:21:23Z</time></trkpt><trkpt lat="43.70474189508155" lon="11.372988356036448"><ele>672.6666666666667</ele><time>2026-05-03T11:21:35Z</time></trkpt><trkpt lat="43.7046636372922" lon="11.373009459604367"><ele>672.8333333333334</ele><time>2026-05-03T11:21:37Z</time></trkpt><trkpt lat="43.70457969170245" lon="11.373001853993552"><ele>673.0</ele><time>2026-05-03T11:21:39Z</time></trkpt><trkpt lat="43.704489024341555" lon="11.372991617935856"><ele>670.2</ele><time>2026-05-03T11:21:41Z</time></trkpt><trkpt lat="43.70438217763369" lon="11.373008210976616"><ele>667.4</ele><time>2026-05-03T11:21:43Z</time></trkpt><trkpt lat="43.70427587914749" lon="11.372993194661795"><ele>664.6</ele><time>2026-05-03T11:21:45Z</time></trkpt><trkpt lat="43.70417313363784" lon="11.373013768752196"><ele>661.8000000000001</ele><time>2026-05-03T11:21:47Z</time></trkpt><trkpt lat="43.70410338310266" lon="11.372999398004712"><ele>659.0</ele><time>2026-05-03T11:21:49Z</time></trkpt><trkpt lat="43.704009422260775" lon="11.372984463928454"><ele>659.0</ele><time>2026-05-03T11:21:51Z</time></trkpt><trkpt lat="43.70391128957972" lon="11.37296385930881"><ele>659.0</ele><time>2026-05-03T11:21:53Z</time></trkpt><trkpt lat="43.703807434957504" lon="11.372950514743925"><ele>659.0</ele><time>2026-05-03T11:21:55Z</time></trkpt><trkpt lat="43.7037364409833" lon="11.372942531385508"><ele>659.0</ele><time>2026-05-03T11:21:57Z</time></trkpt><trkpt lat="43.70361459968892" lon="11.372940191530251"><ele>659.0</ele><time>2026-05-03T11:21:59Z</time></trkpt><trkpt lat="43.7035356647344" lon="11.372931850998748"><ele>657.4000000000001</ele><time>2026-05-03T11:22:00Z</time></trkpt><trkpt lat="43.703437796331706" lon="11.372951086962338"><ele>655.8</ele><time>2026-05-03T11:22:01Z</time></trkpt><trkpt lat="43.70337310238531" lon="11.372939065685646"><ele>654.2</ele><time>2026-05-03T11:22:03Z</time></trkpt><trkpt lat="43.703319417669384" lon="11.372986798288732"><ele>652.5999999999999</ele><time>2026-05-03T11:22:07Z</time></trkpt><trkpt lat="43.703236041088914" lon="11.373006036254655"><ele>651.0</ele><time>2026-05-03T11:22:13Z</time></trkpt><trkpt lat="43.70299081544217" lon="11.37309704545162"><ele>651.0</ele><time>2026-05-03T11:22:29Z</time></trkpt><trkpt lat="43.70284799145316" lon="11.3731958112945"><ele>651.0</ele><time>2026-05-03T11:22:30Z</time></trkpt><trkpt lat="43.70274887122292" lon="11.37322640044827"><ele>651.0</ele><time>2026-05-03T11:22:31Z</time></trkpt><trkpt lat="43.70266502785724" lon="11.373260983113475"><ele>651.0</ele><time>2026-05-03T11:22:32Z</time></trkpt><trkpt lat="43.7025862099611" lon="11.373358891641262"><ele>651.5999999999999</ele><time>2026-05-03T11:22:33Z</time></trkpt><trkpt lat="43.702488904581244" lon="11.373407107993202"><ele>652.2</ele><time>2026-05-03T11:22:35Z</time></trkpt><trkpt lat="43.70238823878506" lon="11.373496361566877"><ele>652.8</ele><time>2026-05-03T11:22:37Z</time></trkpt><trkpt lat="43.702293583132885" lon="11.37352322759654"><ele>653.4000000000001</ele><time>2026-05-03T11:22:39Z</time></trkpt><trkpt lat="43.70224365930334" lon="11.373603991113162"><ele>654.0</ele><time>2026-05-03T11:22:40Z</time></trkpt><trkpt lat="43.7021848870828" lon="11.373651078385613"><ele>654.0</ele><time>2026-05-03T11:22:41Z</time></trkpt><trkpt lat="43.70209693418288" lon="11.373729041522274"><ele>654.0</ele><time>2026-05-03T11:22:44Z</time></trkpt><trkpt lat="43.70205712563645" lon="11.373805525786656"><ele>654.0</ele><time>2026-05-03T11:22:46Z</time></trkpt><trkpt lat="43.70198790614907" lon="11.373843987556855"><ele>654.0</ele><time>2026-05-03T11:22:48Z</time></trkpt><trkpt lat="43.70194329904064" lon="11.373969195183474"><ele>654.0</ele><time>2026-05-03T11:22:50Z</time></trkpt><trkpt lat="43.701907056589874" lon="11.37413755824184"><ele>657.8333333333334</ele><time>2026-05-03T11:22:52Z</time></trkpt><trkpt lat="43.70187888951734" lon="11.374235139772297"><ele>661.6666666666666</ele><time>2026-05-03T11:22:53Z</time></trkpt><trkpt lat="43.70184600459619" lon="11.374311198878232"><ele>665.5</ele><time>2026-05-03T11:22:54Z</time></trkpt><trkpt lat="43.70178451064055" lon="11.374412840008091"><ele>669.3333333333333</ele><time>2026-05-03T11:22:56Z</time></trkpt><trkpt lat="43.701723450382026" lon="11.37453060359869"><ele>673.1666666666666</ele><time>2026-05-03T11:22:58Z</time></trkpt><trkpt lat="43.701650063734945" lon="11.374620999461882"><ele>677.0</ele><time>2026-05-03T11:23:00Z</time></trkpt><trkpt lat="43.70156490700013" lon="11.37468194575082"><ele>677.0</ele><time>2026-05-03T11:23:02Z</time></trkpt><trkpt lat="43.70151382096236" lon="11.374602618725811"><ele>677.0</ele><time>2026-05-03T11:23:15Z</time></trkpt><trkpt lat="43.701430119870096" lon="11.374570767270171"><ele>677.0</ele><time>2026-05-03T11:23:17Z</time></trkpt><trkpt lat="43.70134379592536" lon="11.374509734313383"><ele>677.0</ele><time>2026-05-03T11:23:20Z</time></trkpt><trkpt lat="43.70124369929889" lon="11.374517770765927"><ele>677.0</ele><time>2026-05-03T11:23:22Z</time></trkpt><trkpt lat="43.701167284187264" lon="11.374504185388492"><ele>677.0</ele><time>2026-05-03T11:23:24Z</time></trkpt><trkpt lat="43.70109975413819" lon="11.374508038595724"><ele>677.8333333333333</ele><time>2026-05-03T11:23:25Z</time></trkpt><trkpt lat="43.70100476087252" lon="11.374513549904048"><ele>678.6666666666666</ele><time>2026-05-03T11:23:27Z</time></trkpt><trkpt lat="43.700928186834524" lon="11.374510225030098"><ele>679.5</ele><time>2026-05-03T11:23:29Z</time></trkpt><trkpt lat="43.70085798448754" lon="11.37452676856844"><ele>680.3333333333334</ele><time>2026-05-03T11:23:30Z</time></trkpt><trkpt lat="43.70075158460209" lon="11.374478528701921"><ele>681.1666666666667</ele><time>2026-05-03T11:23:32Z</time></trkpt><trkpt lat="43.70067071315896" lon="11.374436072348905"><ele>682.0</ele><time>2026-05-03T11:23:34Z</time></trkpt><trkpt lat="43.700613790593955" lon="11.37438536699895"><ele>682.0</ele><time>2026-05-03T11:23:35Z</time></trkpt><trkpt lat="43.70053973286905" lon="11.374327114308041"><ele>682.0</ele><time>2026-05-03T11:23:36Z</time></trkpt><trkpt lat="43.700448705733" lon="11.374194454509892"><ele>682.0</ele><time>2026-05-03T11:23:38Z</time></trkpt><trkpt lat="43.70039878479139" lon="11.374131870542376"><ele>682.0</ele><time>2026-05-03T11:23:39Z</time></trkpt><trkpt lat="43.7003028040403" lon="11.37410915134602"><ele>682.0</ele><time>2026-05-03T11:23:42Z</time></trkpt><trkpt lat="43.7001848529983" lon="11.374031311674955"><ele>681.2</ele><time>2026-05-03T11:23:44Z</time></trkpt><trkpt lat="43.70012938386661" lon="11.373960144865443"><ele>680.4000000000001</ele><time>2026-05-03T11:23:46Z</time></trkpt><trkpt lat="43.70004947392869" lon="11.373937089295442"><ele>679.5999999999999</ele><time>2026-05-03T11:23:49Z</time></trkpt><trkpt lat="43.69996100299216" lon="11.373893203479485"><ele>678.8</ele><time>2026-05-03T11:23:50Z</time></trkpt><trkpt lat="43.69986478146685" lon="11.373808139881275"><ele>678.0</ele><time>2026-05-03T11:23:52Z</time></trkpt><trkpt lat="43.699783914658894" lon="11.373722774004069"><ele>678.0</ele><time>2026-05-03T11:23:54Z</time></trkpt><trkpt lat="43.69971234065365" lon="11.373604584120796"><ele>678.0</ele><time>2026-05-03T11:23:56Z</time></trkpt><trkpt lat="43.699625199918664" lon="11.373564471252806"><ele>678.0</ele><time>2026-05-03T11:23:58Z</time></trkpt><trkpt lat="43.69955423783318" lon="11.373558886689908"><ele>678.0</ele><time>2026-05-03T11:23:59Z</time></trkpt><trkpt lat="43.699433148219825" lon="11.373606190890795"><ele>678.0</ele><time>2026-05-03T11:24:01Z</time></trkpt><trkpt lat="43.699365823873336" lon="11.373679379791026"><ele>674.5999999999999</ele><time>2026-05-03T11:24:02Z</time></trkpt><trkpt lat="43.69928762115522" lon="11.373718875353493"><ele>671.1999999999999</ele><time>2026-05-03T11:24:03Z</time></trkpt><trkpt lat="43.69913458142826" lon="11.373764037836622"><ele>667.8</ele><time>2026-05-03T11:24:04Z</time></trkpt><trkpt lat="43.69905178524986" lon="11.373837635283572"><ele>664.4</ele><time>2026-05-03T11:24:05Z</time></trkpt><trkpt lat="43.699014339794246" lon="11.373925911702095"><ele>661.0</ele><time>2026-05-03T11:24:06Z</time></trkpt><trkpt lat="43.69896740130821" lon="11.374004078629113"><ele>661.5999999999999</ele><time>2026-05-03T11:24:07Z</time></trkpt><trkpt lat="43.69884019810846" lon="11.374114570942325"><ele>662.2</ele><time>2026-05-03T11:24:09Z</time></trkpt><trkpt lat="43.69874730256241" lon="11.374137400172422"><ele>662.8</ele><time>2026-05-03T11:24:10Z</time></trkpt><trkpt lat="43.69864280909929" lon="11.374119098403185"><ele>663.4000000000001</ele><time>2026-05-03T11:24:11Z</time></trkpt><trkpt lat="43.69859793175544" lon="11.374210860858593"><ele>664.0</ele><time>2026-05-03T11:24:12Z</time></trkpt><trkpt lat="43.69854448470485" lon="11.374274534450402"><ele>664.0</ele><time>2026-05-03T11:24:13Z</time></trkpt><trkpt lat="43.69851195085912" lon="11.374385339677046"><ele>664.0</ele><time>2026-05-03T11:24:14Z</time></trkpt><trkpt lat="43.698422554341576" lon="11.374481682855249"><ele>664.0</ele><time>2026-05-03T11:24:15Z</time></trkpt><trkpt lat="43.69840172263134" lon="11.37462538695054"><ele>664.0</ele><time>2026-05-03T11:24:16Z</time></trkpt><trkpt lat="43.698349247268595" lon="11.374708093300022"><ele>664.0</ele><time>2026-05-03T11:24:17Z</time></trkpt><trkpt lat="43.698303214129886" lon="11.374811212290435"><ele>663.4000000000001</ele><time>2026-05-03T11:24:18Z</time></trkpt><trkpt lat="43.69827000456512" lon="11.374907105805724"><ele>662.8</ele><time>2026-05-03T11:24:19Z</time></trkpt><trkpt lat="43.698191082145904" lon="11.374956029527354"><ele>662.2</ele><time>2026-05-03T11:24:21Z</time></trkpt><trkpt lat="43.69814281372478" lon="11.375068908886814"><ele>661.5999999999999</ele><time>2026-05-03T11:24:22Z</time></trkpt><trkpt lat="43.69811196193931" lon="11.375172687170204"><ele>661.0</ele><time>2026-05-03T11:24:23Z</time></trkpt><trkpt lat="43.69807635456113" lon="11.375369085696931"><ele>661.0</ele><time>2026-05-03T11:24:25Z</time></trkpt><trkpt lat="43.69799189540351" lon="11.375519387113636"><ele>661.0</ele><time>2026-05-03T11:24:27Z</time></trkpt><trkpt lat="43.69796003075994" lon="11.375642284317077"><ele>661.0</ele><time>2026-05-03T11:24:28Z</time></trkpt><trkpt lat="43.697942369780904" lon="11.375770384607868"><ele>661.0</ele><time>2026-05-03T11:24:29Z</time></trkpt><trkpt lat="43.6979193419257" lon="11.375857751369372"><ele>661.0</ele><time>2026-05-03T11:24:30Z</time></trkpt><trkpt lat="43.69786301200863" lon="11.37593848904872"><ele>661.5</ele><time>2026-05-03T11:24:32Z</time></trkpt><trkpt lat="43.69780623226046" lon="11.375999226021083"><ele>662.0</ele><time>2026-05-03T11:24:54Z</time></trkpt><trkpt lat="43.697710252944404" lon="11.37603797066466"><ele>662.5</ele><time>2026-05-03T11:24:57Z</time></trkpt><trkpt lat="43.69762020666123" lon="11.375968761356262"><ele>663.0</ele><time>2026-05-03T11:24:59Z</time></trkpt><trkpt lat="43.697541941422514" lon="11.375971486696061"><ele>663.5</ele><time>2026-05-03T11:25:01Z</time></trkpt><trkpt lat="43.6974666324499" lon="11.376023537466446"><ele>664.0</ele><time>2026-05-03T11:25:03Z</time></trkpt><trkpt lat="43.69739101243391" lon="11.37594635307785"><ele>664.0</ele><time>2026-05-03T11:25:06Z</time></trkpt><trkpt lat="43.69731691000667" lon="11.375941816993723"><ele>664.0</ele><time>2026-05-03T11:25:08Z</time></trkpt><trkpt lat="43.69721555789677" lon="11.375917653256142"><ele>664.0</ele><time>2026-05-03T11:25:11Z</time></trkpt><trkpt lat="43.69712584685093" lon="11.37593310670087"><ele>664.0</ele><time>2026-05-03T11:25:13Z</time></trkpt><trkpt lat="43.69704627881434" lon="11.375989479320396"><ele>664.0</ele><time>2026-05-03T11:25:16Z</time></trkpt><trkpt lat="43.69697323128221" lon="11.376064141048582"><ele>664.0</ele><time>2026-05-03T11:25:19Z</time></trkpt><trkpt lat="43.69692261503132" lon="11.376149670983144"><ele>661.6666666666667</ele><time>2026-05-03T11:25:23Z</time></trkpt><trkpt lat="43.69685702296035" lon="11.376215147211903"><ele>659.3333333333334</ele><time>2026-05-03T11:25:24Z</time></trkpt><trkpt lat="43.69679719710992" lon="11.376298018603327"><ele>657.0</ele><time>2026-05-03T11:25:27Z</time></trkpt><trkpt lat="43.696736518435294" lon="11.376331039142206"><ele>654.6666666666666</ele><time>2026-05-03T11:25:30Z</time></trkpt><trkpt lat="43.69665127139828" lon="11.376453610391318"><ele>652.3333333333333</ele><time>2026-05-03T11:25:32Z</time></trkpt><trkpt lat="43.69664743970134" lon="11.37655778996767"><ele>650.0</ele><time>2026-05-03T11:25:33Z</time></trkpt><trkpt lat="43.69659316505218" lon="11.37664974461226"><ele>648.6</ele><time>2026-05-03T11:25:35Z</time></trkpt><trkpt lat="43.696560723716324" lon="11.376735780267596"><ele>647.2</ele><time>2026-05-03T11:25:37Z</time></trkpt><trkpt lat="43.696523786497366" lon="11.376968680238313"><ele>645.8</ele><time>2026-05-03T11:25:42Z</time></trkpt><trkpt lat="43.696512931267776" lon="11.376870291267576"><ele>644.4</ele><time>2026-05-03T11:25:55Z</time></trkpt><trkpt lat="43.696430218340616" lon="11.376979818280919"><ele>643.0</ele><time>2026-05-03T11:25:59Z</time></trkpt><trkpt lat="43.69643033715771" lon="11.3770797927431"><ele>641.5</ele><time>2026-05-03T11:26:07Z</time></trkpt><trkpt lat="43.69638260048724" lon="11.377187426031803"><ele>640.0</ele><time>2026-05-03T11:26:30Z</time></trkpt><trkpt lat="43.69632423272359" lon="11.377231713647395"><ele>638.5</ele><time>2026-05-03T11:26:44Z</time></trkpt><trkpt lat="43.69633181046499" lon="11.377336022998918"><ele>637.0</ele><time>2026-05-03T11:26:47Z</time></trkpt><trkpt lat="43.69629341516844" lon="11.377422905514496"><ele>635.5</ele><time>2026-05-03T11:26:48Z</time></trkpt><trkpt lat="43.6962792590679" lon="11.37753291989872"><ele>634.0</ele><time>2026-05-03T11:26:51Z</time></trkpt><trkpt lat="43.69625846891352" lon="11.37761947559091"><ele>634.0</ele><time>2026-05-03T11:26:53Z</time></trkpt><trkpt lat="43.69622251753947" lon="11.377707765070332"><ele>634.0</ele><time>2026-05-03T11:26:55Z</time></trkpt><trkpt lat="43.69617493226928" lon="11.377777551725366"><ele>634.0</ele><time>2026-05-03T11:26:58Z</time></trkpt><trkpt lat="43.696115593138465" lon="11.377814187967752"><ele>634.0</ele><time>2026-05-03T11:27:00Z</time></trkpt><trkpt lat="43.69604772989308" lon="11.377877520729657"><ele>634.0</ele><time>2026-05-03T11:27:05Z</time></trkpt><trkpt lat="43.69599929296764" lon="11.377982691547635"><ele>634.0</ele><time>2026-05-03T11:27:09Z</time></trkpt><trkpt lat="43.69595250281213" lon="11.378064513941792"><ele>631.8333333333334</ele><time>2026-05-03T11:27:13Z</time></trkpt><trkpt lat="43.695915673420586" lon="11.378156941986663"><ele>629.6666666666667</ele><time>2026-05-03T11:27:17Z</time></trkpt><trkpt lat="43.69588352648571" lon="11.37823232137309"><ele>627.5</ele><time>2026-05-03T11:27:21Z</time></trkpt><trkpt lat="43.695820591633804" lon="11.378264207989645"><ele>625.3333333333334</ele><time>2026-05-03T11:27:24Z</time></trkpt><trkpt lat="43.695744775125696" lon="11.37830032514901"><ele>623.1666666666666</ele><time>2026-05-03T11:27:26Z</time></trkpt><trkpt lat="43.695655758094574" lon="11.378282066586914"><ele>621.0</ele><time>2026-05-03T11:27:28Z</time></trkpt><trkpt lat="43.69554936301438" lon="11.378295808724689"><ele>621.0</ele><time>2026-05-03T11:27:31Z</time></trkpt><trkpt lat="43.69547822161846" lon="11.378337123326824"><ele>621.0</ele><time>2026-05-03T11:27:34Z</time></trkpt><trkpt lat="43.695389172330124" lon="11.378351533317035"><ele>621.0</ele><time>2026-05-03T11:27:45Z</time></trkpt><trkpt lat="43.69537754352027" lon="11.378259901230466"><ele>621.0</ele><time>2026-05-03T11:28:00Z</time></trkpt><trkpt lat="43.6954194805001" lon="11.378327071425042"><ele>621.0</ele><time>2026-05-03T11:28:04Z</time></trkpt><trkpt lat="43.69536771140675" lon="11.378385333725804"><ele>621.0</ele><time>2026-05-03T11:28:10Z</time></trkpt><trkpt lat="43.69528089554424" lon="11.37840409437259"><ele>620.0</ele><time>2026-05-03T11:29:51Z</time></trkpt><trkpt lat="43.69519879986326" lon="11.378462742946956"><ele>619.0</ele><time>2026-05-03T11:29:52Z</time></trkpt><trkpt lat="43.69514982181503" lon="11.37860949430983"><ele>618.0</ele><time>2026-05-03T11:29:54Z</time></trkpt><trkpt lat="43.695068868504265" lon="11.378621448812316"><ele>617.0</ele><time>2026-05-03T11:29:55Z</time></trkpt><trkpt lat="43.69498490838331" lon="11.378576967244422"><ele>616.0</ele><time>2026-05-03T11:29:56Z</time></trkpt><trkpt lat="43.694944138546596" lon="11.378651135131715"><ele>615.0</ele><time>2026-05-03T11:29:58Z</time></trkpt><trkpt lat="43.69490529541036" lon="11.378579853372875"><ele>615.0</ele><time>2026-05-03T11:30:00Z</time></trkpt><trkpt lat="43.69475018402349" lon="11.378605690577796"><ele>615.0</ele><time>2026-05-03T11:30:17Z</time></trkpt><trkpt lat="43.69468890533579" lon="11.378645605147875"><ele>615.0</ele><time>2026-05-03T11:30:19Z</time></trkpt><trkpt lat="43.69461103758338" lon="11.378692296567282"><ele>615.0</ele><time>2026-05-03T11:30:21Z</time></trkpt><trkpt lat="43.694517267248486" lon="11.378747327796034"><ele>615.0</ele><time>2026-05-03T11:30:23Z</time></trkpt><trkpt lat="43.694448655642034" lon="11.378763604972223"><ele>615.4</ele><time>2026-05-03T11:30:24Z</time></trkpt><trkpt lat="43.694347995898084" lon="11.378798408766245"><ele>615.8</ele><time>2026-05-03T11:30:26Z</time></trkpt><trkpt lat="43.69423493725558" lon="11.378825135788338"><ele>616.2</ele><time>2026-05-03T11:30:28Z</time></trkpt><trkpt lat="43.69417175580173" lon="11.378838735645743"><ele>616.6</ele><time>2026-05-03T11:30:29Z</time></trkpt><trkpt lat="43.6940682563312" lon="11.378840425251079"><ele>617.0</ele><time>2026-05-03T11:30:31Z</time></trkpt><trkpt lat="43.693957469130716" lon="11.378866736659226"><ele>617.2</ele><time>2026-05-03T11:30:33Z</time></trkpt><trkpt lat="43.6938674866148" lon="11.378857396182738"><ele>617.4000000000001</ele><time>2026-05-03T11:30:35Z</time></trkpt><trkpt lat="43.69375533357073" lon="11.37892481290386"><ele>617.5999999999999</ele><time>2026-05-03T11:30:37Z</time></trkpt><trkpt lat="43.69369373112547" lon="11.379014740614709"><ele>617.8</ele><time>2026-05-03T11:30:39Z</time></trkpt><trkpt lat="43.69365030508478" lon="11.379131219282195"><ele>618.0</ele><time>2026-05-03T11:30:41Z</time></trkpt><trkpt lat="43.69363734716586" lon="11.379218240140522"><ele>618.0</ele><time>2026-05-03T11:30:42Z</time></trkpt><trkpt lat="43.693659857315765" lon="11.379347487596068"><ele>618.0</ele><time>2026-05-03T11:30:44Z</time></trkpt><trkpt lat="43.693716296133175" lon="11.379494291175005"><ele>618.0</ele><time>2026-05-03T11:30:46Z</time></trkpt><trkpt lat="43.69379110833039" lon="11.379597104084132"><ele>618.0</ele><time>2026-05-03T11:30:48Z</time></trkpt><trkpt lat="43.69387414897637" lon="11.379706258522617"><ele>618.0</ele><time>2026-05-03T11:30:50Z</time></trkpt><trkpt lat="43.69392045831233" lon="11.379811373082058"><ele>617.6</ele><time>2026-05-03T11:30:52Z</time></trkpt><trkpt lat="43.69397183565704" lon="11.379913516955403"><ele>617.1999999999999</ele><time>2026-05-03T11:30:53Z</time></trkpt><trkpt lat="43.694025903667374" lon="11.380014812112488"><ele>616.8</ele><time>2026-05-03T11:30:54Z</time></trkpt><trkpt lat="43.694067418670784" lon="11.38012849904374"><ele>616.4</ele><time>2026-05-03T11:30:55Z</time></trkpt><trkpt lat="43.694143171429424" lon="11.380240579030788"><ele>616.0</ele><time>2026-05-03T11:30:57Z</time></trkpt><trkpt lat="43.694150984722604" lon="11.380332062642736"><ele>616.0</ele><time>2026-05-03T11:30:58Z</time></trkpt><trkpt lat="43.69419610872874" lon="11.380421424775689"><ele>616.0</ele><time>2026-05-03T11:30:59Z</time></trkpt><trkpt lat="43.69425410537398" lon="11.380522742398194"><ele>616.0</ele><time>2026-05-03T11:31:01Z</time></trkpt><trkpt lat="43.69431456389183" lon="11.380703317879375"><ele>616.0</ele><time>2026-05-03T11:31:04Z</time></trkpt><trkpt lat="43.69432284454873" lon="11.380850634782679"><ele>616.0</ele><time>2026-05-03T11:31:06Z</time></trkpt><trkpt lat="43.69435152481362" lon="11.380945234485566"><ele>612.8</ele><time>2026-05-03T11:31:08Z</time></trkpt><trkpt lat="43.694424840718206" lon="11.381029122293906"><ele>609.6</ele><time>2026-05-03T11:31:10Z</time></trkpt><trkpt lat="43.69443349200326" lon="11.38113299490157"><ele>606.4</ele><time>2026-05-03T11:31:12Z</time></trkpt><trkpt lat="43.6944308018025" lon="11.38123435001904"><ele>603.2</ele><time>2026-05-03T11:31:14Z</time></trkpt><trkpt lat="43.69443263301042" lon="11.381417270982167"><ele>600.0</ele><time>2026-05-03T11:31:17Z</time></trkpt><trkpt lat="43.69450181079543" lon="11.381460173472108"><ele>599.8333333333334</ele><time>2026-05-03T11:31:18Z</time></trkpt><trkpt lat="43.694527077696954" lon="11.381548565594796"><ele>599.6666666666666</ele><time>2026-05-03T11:31:20Z</time></trkpt><trkpt lat="43.69455890412337" lon="11.381686458529536"><ele>599.5</ele><time>2026-05-03T11:31:22Z</time></trkpt><trkpt lat="43.69459655829368" lon="11.381768820045295"><ele>599.3333333333333</ele><time>2026-05-03T11:31:23Z</time></trkpt><trkpt lat="43.69463126084517" lon="11.381884478579881"><ele>599.1666666666666</ele><time>2026-05-03T11:31:25Z</time></trkpt><trkpt lat="43.69467564825926" lon="11.381967441184694"><ele>599.0</ele><time>2026-05-03T11:31:27Z</time></trkpt><trkpt lat="43.6947256200306" lon="11.382079845511466"><ele>599.0</ele><time>2026-05-03T11:31:29Z</time></trkpt><trkpt lat="43.69474623492086" lon="11.382162154874198"><ele>599.0</ele><time>2026-05-03T11:31:31Z</time></trkpt><trkpt lat="43.69478062973906" lon="11.382261864801801"><ele>599.0</ele><time>2026-05-03T11:31:33Z</time></trkpt><trkpt lat="43.694786100860775" lon="11.382369108349396"><ele>599.0</ele><time>2026-05-03T11:31:36Z</time></trkpt><trkpt lat="43.69478971183194" lon="11.382496566438673"><ele>599.0</ele><time>2026-05-03T11:31:39Z</time></trkpt><trkpt lat="43.694836754235396" lon="11.382590354795315"><ele>599.0</ele><time>2026-05-03T11:31:42Z</time></trkpt><trkpt lat="43.69485520369564" lon="11.382725246486505"><ele>598.5</ele><time>2026-05-03T11:31:44Z</time></trkpt><trkpt lat="43.694870186640706" lon="11.382821093007134"><ele>598.0</ele><time>2026-05-03T11:31:45Z</time></trkpt><trkpt lat="43.694886284829" lon="11.382916161004065"><ele>597.5</ele><time>2026-05-03T11:31:47Z</time></trkpt><trkpt lat="43.694893332222506" lon="11.383016082383627"><ele>597.0</ele><time>2026-05-03T11:31:49Z</time></trkpt><trkpt lat="43.69485539613801" lon="11.383089511900996"><ele>596.5</ele><time>2026-05-03T11:31:50Z</time></trkpt><trkpt lat="43.694880025556685" lon="11.383265483779986"><ele>596.0</ele><time>2026-05-03T11:31:52Z</time></trkpt><trkpt lat="43.694902654310305" lon="11.383401585841485"><ele>593.5</ele><time>2026-05-03T11:31:54Z</time></trkpt><trkpt lat="43.69493066485852" lon="11.383522890895765"><ele>591.0</ele><time>2026-05-03T11:31:56Z</time></trkpt><trkpt lat="43.69496393892712" lon="11.383624849995309"><ele>588.5</ele><time>2026-05-03T11:31:58Z</time></trkpt><trkpt lat="43.69504232723148" lon="11.383617000410808"><ele>586.0</ele><time>2026-05-03T11:33:18Z</time></trkpt><trkpt lat="43.694982145394036" lon="11.383643006190567"><ele>583.5</ele><time>2026-05-03T11:35:07Z</time></trkpt><trkpt lat="43.69499781006681" lon="11.383743460552184"><ele>581.0</ele><time>2026-05-03T11:36:01Z</time></trkpt><trkpt lat="43.6950067677916" lon="11.383843052794026"><ele>579.5</ele><time>2026-05-03T11:36:03Z</time></trkpt><trkpt lat="43.695006599974626" lon="11.383933135650869"><ele>578.0</ele><time>2026-05-03T11:36:04.998Z</time></trkpt><trkpt lat="43.69501362665353" lon="11.384029438228868"><ele>576.5</ele><time>2026-05-03T11:36:06.998Z</time></trkpt><trkpt lat="43.69503067992826" lon="11.384148971755964"><ele>575.0</ele><time>2026-05-03T11:36:08.998Z</time></trkpt><trkpt lat="43.69505059529752" lon="11.384258940352698"><ele>573.5</ele><time>2026-05-03T11:36:10.998Z</time></trkpt><trkpt lat="43.695098580296445" lon="11.384387534285196"><ele>572.0</ele><time>2026-05-03T11:36:12.998Z</time></trkpt><trkpt lat="43.69516209353025" lon="11.384494421617504"><ele>572.0</ele><time>2026-05-03T11:36:14.998Z</time></trkpt><trkpt lat="43.69521872628516" lon="11.384583939013137"><ele>572.0</ele><time>2026-05-03T11:36:16.998Z</time></trkpt><trkpt lat="43.69526907006554" lon="11.384646473539851"><ele>572.0</ele><time>2026-05-03T11:36:18.999Z</time></trkpt><trkpt lat="43.695311534942654" lon="11.384751964281875"><ele>572.0</ele><time>2026-05-03T11:36:20.999Z</time></trkpt><trkpt lat="43.69534540499631" lon="11.38485079018462"><ele>572.0</ele><time>2026-05-03T11:36:22.999Z</time></trkpt><trkpt lat="43.69541719100472" lon="11.384961880927275"><ele>572.0</ele><time>2026-05-03T11:36:24.999Z</time></trkpt><trkpt lat="43.69546518894003" lon="11.38507626925702"><ele>570.6666666666666</ele><time>2026-05-03T11:36:26.999Z</time></trkpt><trkpt lat="43.69551043735967" lon="11.38519963853194"><ele>569.3333333333333</ele><time>2026-05-03T11:36:28.999Z</time></trkpt><trkpt lat="43.69553440738903" lon="11.385289303767015"><ele>568.0</ele><time>2026-05-03T11:36:30.999Z</time></trkpt><trkpt lat="43.695520441965" lon="11.385382970795428"><ele>566.6666666666666</ele><time>2026-05-03T11:36:32.999Z</time></trkpt><trkpt lat="43.69552761167716" lon="11.385501742844959"><ele>565.3333333333334</ele><time>2026-05-03T11:36:35.999Z</time></trkpt><trkpt lat="43.69553785723691" lon="11.385593764082472"><ele>564.0</ele><time>2026-05-03T11:36:37.999Z</time></trkpt><trkpt lat="43.69555934499518" lon="11.385719075886708"><ele>562.5</ele><time>2026-05-03T11:36:39.999Z</time></trkpt><trkpt lat="43.69556684139153" lon="11.385813983495071"><ele>561.0</ele><time>2026-05-03T11:36:41.999Z</time></trkpt><trkpt lat="43.695515070638464" lon="11.385867488068872"><ele>559.5</ele><time>2026-05-03T11:36:45.999Z</time></trkpt><trkpt lat="43.69547694505378" lon="11.386013983683396"><ele>558.0</ele><time>2026-05-03T11:36:47.999Z</time></trkpt><trkpt lat="43.69546463298555" lon="11.386120003394666"><ele>556.5</ele><time>2026-05-03T11:36:50.999Z</time></trkpt><trkpt lat="43.69540940661785" lon="11.386236374599948"><ele>555.0</ele><time>2026-05-03T11:36:54Z</time></trkpt><trkpt lat="43.695365985543795" lon="11.386364204976614"><ele>553.2</ele><time>2026-05-03T11:36:57Z</time></trkpt><trkpt lat="43.6953212864915" lon="11.386456518712814"><ele>551.4</ele><time>2026-05-03T11:36:59Z</time></trkpt><trkpt lat="43.69528164800034" lon="11.38659709753587"><ele>549.6</ele><time>2026-05-03T11:37:02Z</time></trkpt><trkpt lat="43.69521797251092" lon="11.386689176360925"><ele>547.8</ele><time>2026-05-03T11:37:03Z</time></trkpt><trkpt lat="43.69518373872435" lon="11.386825975652577"><ele>546.0</ele><time>2026-05-03T11:37:04Z</time></trkpt><trkpt lat="43.69518610153144" lon="11.386917596444052"><ele>546.0</ele><time>2026-05-03T11:37:05Z</time></trkpt><trkpt lat="43.6951339282538" lon="11.387000827828716"><ele>546.0</ele><time>2026-05-03T11:37:06Z</time></trkpt><trkpt lat="43.6950770039766" lon="11.387091436631957"><ele>546.0</ele><time>2026-05-03T11:37:07Z</time></trkpt><trkpt lat="43.69503363417902" lon="11.387178115280907"><ele>546.0</ele><time>2026-05-03T11:37:08Z</time></trkpt><trkpt lat="43.69499713527894" lon="11.38725151773918"><ele>546.0</ele><time>2026-05-03T11:37:09Z</time></trkpt><trkpt lat="43.694965158690145" lon="11.387373850806005"><ele>546.0</ele><time>2026-05-03T11:37:11Z</time></trkpt><trkpt lat="43.694976840962546" lon="11.387495088106515"><ele>546.2</ele><time>2026-05-03T11:37:13Z</time></trkpt><trkpt lat="43.694978411689576" lon="11.387691819586191"><ele>546.4000000000001</ele><time>2026-05-03T11:37:15Z</time></trkpt><trkpt lat="43.69498571572318" lon="11.387864963793906"><ele>546.6</ele><time>2026-05-03T11:37:16Z</time></trkpt><trkpt lat="43.69498216632827" lon="11.387967826048204"><ele>546.8000000000001</ele><time>2026-05-03T11:37:17Z</time></trkpt><trkpt lat="43.6949898378408" lon="11.388064716868806"><ele>547.0</ele><time>2026-05-03T11:37:18Z</time></trkpt><trkpt lat="43.69498740601755" lon="11.388155960948597"><ele>546.3333333333334</ele><time>2026-05-03T11:37:19Z</time></trkpt><trkpt lat="43.694992936705795" lon="11.38830464672465"><ele>545.6666666666667</ele><time>2026-05-03T11:37:21Z</time></trkpt><trkpt lat="43.69498673836282" lon="11.388405599283988"><ele>545.0</ele><time>2026-05-03T11:37:23Z</time></trkpt><trkpt lat="43.69497221102988" lon="11.388525103019958"><ele>544.3333333333334</ele><time>2026-05-03T11:37:25Z</time></trkpt><trkpt lat="43.694959623931105" lon="11.388638777964532"><ele>543.6666666666666</ele><time>2026-05-03T11:37:28Z</time></trkpt><trkpt lat="43.69495594516955" lon="11.388734185507426"><ele>543.0</ele><time>2026-05-03T11:37:31Z</time></trkpt><trkpt lat="43.69498209936043" lon="11.388829156015875"><ele>541.0</ele><time>2026-05-03T11:37:34Z</time></trkpt><trkpt lat="43.69499274901633" lon="11.3889351391571"><ele>539.0</ele><time>2026-05-03T11:37:36Z</time></trkpt><trkpt lat="43.69495026057507" lon="11.3890665400504"><ele>537.0</ele><time>2026-05-03T11:37:40Z</time></trkpt><trkpt lat="43.694937175351605" lon="11.38916506312688"><ele>535.0</ele><time>2026-05-03T11:37:42Z</time></trkpt><trkpt lat="43.69491511944715" lon="11.389276012638105"><ele>533.0</ele><time>2026-05-03T11:37:45Z</time></trkpt><trkpt lat="43.69490207002698" lon="11.389380930801812"><ele>531.0</ele><time>2026-05-03T11:37:46Z</time></trkpt><trkpt lat="43.69489964867848" lon="11.389472135190866"><ele>531.0</ele><time>2026-05-03T11:37:47Z</time></trkpt><trkpt lat="43.694914628013514" lon="11.389598777460579"><ele>531.0</ele><time>2026-05-03T11:37:49Z</time></trkpt><trkpt lat="43.69499394059292" lon="11.38972053253546"><ele>531.0</ele><time>2026-05-03T11:37:51Z</time></trkpt><trkpt lat="43.69504641725869" lon="11.389837931439237"><ele>531.0</ele><time>2026-05-03T11:37:54Z</time></trkpt><trkpt lat="43.695085527118884" lon="11.389952465799476"><ele>531.0</ele><time>2026-05-03T11:37:57Z</time></trkpt><trkpt lat="43.69509317657184" lon="11.390042795801076"><ele>529.0</ele><time>2026-05-03T11:38:10Z</time></trkpt><trkpt lat="43.695166949478214" lon="11.390035923075029"><ele>527.0</ele><time>2026-05-03T11:38:18Z</time></trkpt><trkpt lat="43.69513115776134" lon="11.390110982123051"><ele>525.0</ele><time>2026-05-03T11:38:36Z</time></trkpt><trkpt lat="43.695103839438" lon="11.390218291314445"><ele>523.0</ele><time>2026-05-03T11:39:09Z</time></trkpt><trkpt lat="43.69508193035517" lon="11.390310520353367"><ele>521.0</ele><time>2026-05-03T11:39:11Z</time></trkpt><trkpt lat="43.69511587875611" lon="11.3904604431738"><ele>519.0</ele><time>2026-05-03T11:39:13Z</time></trkpt><trkpt lat="43.69518375961927" lon="11.39054983684833"><ele>516.0</ele><time>2026-05-03T11:39:14Z</time></trkpt><trkpt lat="43.695223153650836" lon="11.390677337906082"><ele>513.0</ele><time>2026-05-03T11:39:16Z</time></trkpt><trkpt lat="43.6952889876981" lon="11.390739142112897"><ele>510.0</ele><time>2026-05-03T11:39:18Z</time></trkpt><trkpt lat="43.69534445125786" lon="11.390831925043639"><ele>507.0</ele><time>2026-05-03T11:39:20Z</time></trkpt><trkpt lat="43.69539817529" lon="11.390938714622049"><ele>504.0</ele><time>2026-05-03T11:39:22Z</time></trkpt><trkpt lat="43.69547023277752" lon="11.391000600042238"><ele>501.0</ele><time>2026-05-03T11:39:24Z</time></trkpt><trkpt lat="43.69557274188816" lon="11.390999322906309"><ele>500.5</ele><time>2026-05-03T11:39:26Z</time></trkpt><trkpt lat="43.69564486116127" lon="11.39104670322235"><ele>500.0</ele><time>2026-05-03T11:39:28Z</time></trkpt><trkpt lat="43.695727775714225" lon="11.391074296356035"><ele>499.5</ele><time>2026-05-03T11:39:31Z</time></trkpt><trkpt lat="43.695767008619725" lon="11.391153522271042"><ele>499.0</ele><time>2026-05-03T11:39:33Z</time></trkpt><trkpt lat="43.695849528981604" lon="11.391173820507106"><ele>498.5</ele><time>2026-05-03T11:39:36.001Z</time></trkpt><trkpt lat="43.6959026386173" lon="11.391261183410574"><ele>498.0</ele><time>2026-05-03T11:39:38.001Z</time></trkpt><trkpt lat="43.69598642918674" lon="11.391283393116508"><ele>494.3333333333333</ele><time>2026-05-03T11:39:40.001Z</time></trkpt><trkpt lat="43.69608845340425" lon="11.39127456039294"><ele>490.66666666666663</ele><time>2026-05-03T11:39:42.001Z</time></trkpt><trkpt lat="43.69618748724487" lon="11.391273078211446"><ele>487.0</ele><time>2026-05-03T11:39:44.001Z</time></trkpt><trkpt lat="43.69627070574619" lon="11.391280466182865"><ele>483.3333333333333</ele><time>2026-05-03T11:39:46.001Z</time></trkpt><trkpt lat="43.69630487383011" lon="11.391383753744453"><ele>479.66666666666663</ele><time>2026-05-03T11:39:49.001Z</time></trkpt><trkpt lat="43.69628786707646" lon="11.391495461928999"><ele>476.0</ele><time>2026-05-03T11:39:52.001Z</time></trkpt><trkpt lat="43.69629692984929" lon="11.391596478401583"><ele>474.99999999999994</ele><time>2026-05-03T11:39:55.001Z</time></trkpt><trkpt lat="43.69636794218157" lon="11.391663592000109"><ele>474.0</ele><time>2026-05-03T11:39:58.001Z</time></trkpt><trkpt lat="43.6963717778828" lon="11.39177576361656"><ele>473.0</ele><time>2026-05-03T11:40:01.001Z</time></trkpt><trkpt lat="43.6963480140354" lon="11.391869578615427"><ele>472.0</ele><time>2026-05-03T11:40:03.001Z</time></trkpt><trkpt lat="43.69633401610882" lon="11.391962555385655"><ele>470.99999999999994</ele><time>2026-05-03T11:40:05.001Z</time></trkpt><trkpt lat="43.69632691980563" lon="11.392081896667644"><ele>470.0</ele><time>2026-05-03T11:40:08.001Z</time></trkpt><trkpt lat="43.69639403906376" lon="11.392133257529055"><ele>469.99999999999994</ele><time>2026-05-03T11:40:10.001Z</time></trkpt><trkpt lat="43.69647882057469" lon="11.39209625651857"><ele>470.0</ele><time>2026-05-03T11:40:12.001Z</time></trkpt><trkpt lat="43.69656557275384" lon="11.392051994856061"><ele>470.0</ele><time>2026-05-03T11:40:14.001Z</time></trkpt><trkpt lat="43.69664519069002" lon="11.392002003653962"><ele>470.0</ele><time>2026-05-03T11:40:16.001Z</time></trkpt><trkpt lat="43.696734679941066" lon="11.391990619181234"><ele>469.99999999999994</ele><time>2026-05-03T11:40:18.001Z</time></trkpt><trkpt lat="43.69680923116909" lon="11.391956669218906"><ele>470.0</ele><time>2026-05-03T11:40:20.001Z</time></trkpt><trkpt lat="43.69685421354329" lon="11.391885613572226"><ele>469.99999999999994</ele><time>2026-05-03T11:40:22.001Z</time></trkpt><trkpt lat="43.69689206363129" lon="11.391996596790369"><ele>470.0</ele><time>2026-05-03T11:40:27Z</time></trkpt><trkpt lat="43.696856355551546" lon="11.392131337616346"><ele>470.0</ele><time>2026-05-03T11:40:30Z</time></trkpt><trkpt lat="43.69682710403531" lon="11.392223490520282"><ele>470.0</ele><time>2026-05-03T11:40:32Z</time></trkpt><trkpt lat="43.696875424385226" lon="11.392301393608228"><ele>469.99999999999994</ele><time>2026-05-03T11:40:35Z</time></trkpt><trkpt lat="43.69695663518211" lon="11.3923052061707"><ele>470.0</ele><time>2026-05-03T11:40:38Z</time></trkpt><trkpt lat="43.69709336275655" lon="11.392283678462926"><ele>464.2</ele><time>2026-05-03T11:40:40Z</time></trkpt><trkpt lat="43.69715765301801" lon="11.39230869044837"><ele>458.4</ele><time>2026-05-03T11:40:43Z</time></trkpt><trkpt lat="43.697269552955674" lon="11.39219682079054"><ele>452.6</ele><time>2026-05-03T11:40:45Z</time></trkpt><trkpt lat="43.69733744995823" lon="11.392166296119237"><ele>446.8</ele><time>2026-05-03T11:40:46Z</time></trkpt><trkpt lat="43.697413506676455" lon="11.392161506846849"><ele>441.0</ele><time>2026-05-03T11:40:47Z</time></trkpt><trkpt lat="43.697461630258665" lon="11.392041084931638"><ele>441.0</ele><time>2026-05-03T11:40:49Z</time></trkpt><trkpt lat="43.697518124838155" lon="11.391976097907643"><ele>441.0</ele><time>2026-05-03T11:40:51Z</time></trkpt><trkpt lat="43.6975945603527" lon="11.392052452564801"><ele>441.0</ele><time>2026-05-03T11:40:55Z</time></trkpt><trkpt lat="43.697624602284655" lon="11.392132712092758"><ele>441.0</ele><time>2026-05-03T11:40:58Z</time></trkpt><trkpt lat="43.69755746952705" lon="11.392096006641658"><ele>441.0</ele><time>2026-05-03T11:41:09Z</time></trkpt><trkpt lat="43.69749564442383" lon="11.392133210498024"><ele>441.0</ele><time>2026-05-03T11:41:11Z</time></trkpt><trkpt lat="43.6974424070406" lon="11.392180650400906"><ele>441.0</ele><time>2026-05-03T11:41:13Z</time></trkpt><trkpt lat="43.69741685186112" lon="11.39226980026242"><ele>439.0</ele><time>2026-05-03T11:41:15.001Z</time></trkpt><trkpt lat="43.697414970563536" lon="11.392370880661373"><ele>437.0</ele><time>2026-05-03T11:41:17.001Z</time></trkpt><trkpt lat="43.69742549743512" lon="11.392495991052554"><ele>435.0</ele><time>2026-05-03T11:41:20.001Z</time></trkpt><trkpt lat="43.69745885214016" lon="11.392592974492727"><ele>433.0</ele><time>2026-05-03T11:41:22.001Z</time></trkpt><trkpt lat="43.69748408208645" lon="11.39271702568489"><ele>431.0</ele><time>2026-05-03T11:41:24.001Z</time></trkpt><trkpt lat="43.697463789166584" lon="11.392861424937987"><ele>429.0</ele><time>2026-05-03T11:41:25.001Z</time></trkpt><trkpt lat="43.69744530940903" lon="11.392971751888052"><ele>426.2</ele><time>2026-05-03T11:41:26.001Z</time></trkpt><trkpt lat="43.697373144749136" lon="11.393080014963388"><ele>423.4</ele><time>2026-05-03T11:41:28.001Z</time></trkpt><trkpt lat="43.69736082120198" lon="11.393189615580452"><ele>420.6</ele><time>2026-05-03T11:41:31.001Z</time></trkpt><trkpt lat="43.697449676980234" lon="11.393151472376232"><ele>417.8</ele><time>2026-05-03T11:41:36.001Z</time></trkpt><trkpt lat="43.69745902371368" lon="11.393284019637255"><ele>415.0</ele><time>2026-05-03T11:41:39.001Z</time></trkpt><trkpt lat="43.69743792172867" lon="11.393393990062627"><ele>415.0</ele><time>2026-05-03T11:41:41.001Z</time></trkpt><trkpt lat="43.69738760618621" lon="11.393484810074005"><ele>415.0</ele><time>2026-05-03T11:41:44.001Z</time></trkpt><trkpt lat="43.69731857869988" lon="11.39352051024057"><ele>415.0</ele><time>2026-05-03T11:41:47.001Z</time></trkpt><trkpt lat="43.69705026300309" lon="11.393765797899013"><ele>415.0</ele><time>2026-05-03T11:41:49.001Z</time></trkpt><trkpt lat="43.6969693900182" lon="11.393815819039872"><ele>415.0</ele><time>2026-05-03T11:41:50.001Z</time></trkpt><trkpt lat="43.69687534548283" lon="11.393861446335"><ele>415.0</ele><time>2026-05-03T11:41:51.001Z</time></trkpt><trkpt lat="43.696794991320054" lon="11.393927875326579"><ele>415.0</ele><time>2026-05-03T11:41:52.001Z</time></trkpt><trkpt lat="43.69671070975566" lon="11.394034110671727"><ele>415.0</ele><time>2026-05-03T11:41:55.001Z</time></trkpt><trkpt lat="43.696667948071685" lon="11.394106321655743"><ele>414.4</ele><time>2026-05-03T11:41:56.001Z</time></trkpt><trkpt lat="43.69667469514054" lon="11.39424374163427"><ele>413.8</ele><time>2026-05-03T11:41:57.001Z</time></trkpt><trkpt lat="43.69664441280842" lon="11.394339762134006"><ele>413.20000000000005</ele><time>2026-05-03T11:41:59.001Z</time></trkpt><trkpt lat="43.69665611236804" lon="11.394474523965066"><ele>412.6</ele><time>2026-05-03T11:42:02.001Z</time></trkpt><trkpt lat="43.69662115331083" lon="11.394656794350302"><ele>412.0</ele><time>2026-05-03T11:42:04.001Z</time></trkpt><trkpt lat="43.696616899459194" lon="11.394807718668114"><ele>408.6</ele><time>2026-05-03T11:42:06.001Z</time></trkpt><trkpt lat="43.69653219242598" lon="11.394930400183869"><ele>405.20000000000005</ele><time>2026-05-03T11:42:08.001Z</time></trkpt><trkpt lat="43.6964556277243" lon="11.39501515791464"><ele>401.8</ele><time>2026-05-03T11:42:09.001Z</time></trkpt><trkpt lat="43.69640148016792" lon="11.395060703528154"><ele>398.4</ele><time>2026-05-03T11:42:10.001Z</time></trkpt><trkpt lat="43.6963158889185" lon="11.395136354384181"><ele>395.0</ele><time>2026-05-03T11:42:11.001Z</time></trkpt><trkpt lat="43.696269108756944" lon="11.39520797183093"><ele>395.0</ele><time>2026-05-03T11:42:12.001Z</time></trkpt><trkpt lat="43.69616951231909" lon="11.39528683595477"><ele>395.0</ele><time>2026-05-03T11:42:14.001Z</time></trkpt><trkpt lat="43.69609512122575" lon="11.395347495262138"><ele>395.0</ele><time>2026-05-03T11:42:15.001Z</time></trkpt><trkpt lat="43.6960314695022" lon="11.395402183485388"><ele>395.0</ele><time>2026-05-03T11:42:16.001Z</time></trkpt><trkpt lat="43.695905163273814" lon="11.395480669948292"><ele>395.0</ele><time>2026-05-03T11:42:18.001Z</time></trkpt><trkpt lat="43.69584808597315" lon="11.395525947266734"><ele>393.66666666666663</ele><time>2026-05-03T11:42:19.001Z</time></trkpt><trkpt lat="43.69577760996695" lon="11.395526450994344"><ele>392.3333333333333</ele><time>2026-05-03T11:42:21.001Z</time></trkpt><trkpt lat="43.695728701656265" lon="11.395640765685252"><ele>391.0</ele><time>2026-05-03T11:42:24.001Z</time></trkpt><trkpt lat="43.69577055310692" lon="11.395741579880132"><ele>389.66666666666663</ele><time>2026-05-03T11:42:27.001Z</time></trkpt><trkpt lat="43.69574725493637" lon="11.395874799989702"><ele>388.3333333333333</ele><time>2026-05-03T11:42:29.001Z</time></trkpt><trkpt lat="43.69576624448011" lon="11.39595947781182"><ele>387.0</ele><time>2026-05-03T11:42:30.001Z</time></trkpt><trkpt lat="43.69578667178036" lon="11.396051495789692"><ele>387.0</ele><time>2026-05-03T11:42:32.001Z</time></trkpt><trkpt lat="43.69580587695667" lon="11.396151214403837"><ele>387.0</ele><time>2026-05-03T11:42:34.001Z</time></trkpt><trkpt lat="43.69585044719085" lon="11.396221092395898"><ele>387.0</ele><time>2026-05-03T11:42:35.001Z</time></trkpt><trkpt lat="43.695873972620014" lon="11.396311608802103"><ele>387.0</ele><time>2026-05-03T11:42:37.001Z</time></trkpt><trkpt lat="43.69596984173009" lon="11.396314902901096"><ele>387.0</ele><time>2026-05-03T11:42:39.001Z</time></trkpt><trkpt lat="43.69606963384483" lon="11.396220281703194"><ele>387.0</ele><time>2026-05-03T11:42:41Z</time></trkpt><trkpt lat="43.69615427874907" lon="11.396165325543869"><ele>385.20000000000005</ele><time>2026-05-03T11:42:43Z</time></trkpt><trkpt lat="43.69622934811767" lon="11.39615259188055"><ele>383.4</ele><time>2026-05-03T11:42:45Z</time></trkpt><trkpt lat="43.696306608412485" lon="11.396169238526362"><ele>381.6</ele><time>2026-05-03T11:42:47Z</time></trkpt><trkpt lat="43.69630948021277" lon="11.39630276172658"><ele>379.79999999999995</ele><time>2026-05-03T11:42:48Z</time></trkpt><trkpt lat="43.69630432078438" lon="11.396464484682369"><ele>378.0</ele><time>2026-05-03T11:42:50Z</time></trkpt><trkpt lat="43.696345356139226" lon="11.396592283989103"><ele>376.0</ele><time>2026-05-03T11:42:52Z</time></trkpt><trkpt lat="43.696376355555" lon="11.396707855663532"><ele>374.0</ele><time>2026-05-03T11:42:54Z</time></trkpt><trkpt lat="43.696438687295384" lon="11.396722061604375"><ele>372.0</ele><time>2026-05-03T11:42:56Z</time></trkpt><trkpt lat="43.696521065248575" lon="11.396749046987273"><ele>370.0</ele><time>2026-05-03T11:42:58Z</time></trkpt><trkpt lat="43.69658626906151" lon="11.39679902658591"><ele>368.0</ele><time>2026-05-03T11:43:00Z</time></trkpt><trkpt lat="43.69667045075651" lon="11.396863788056962"><ele>366.0</ele><time>2026-05-03T11:43:02Z</time></trkpt><trkpt lat="43.69675798403554" lon="11.396873559335207"><ele>366.0</ele><time>2026-05-03T11:43:05Z</time></trkpt><trkpt lat="43.69685096818509" lon="11.396818634080853"><ele>366.0</ele><time>2026-05-03T11:43:07Z</time></trkpt><trkpt lat="43.696919401474844" lon="11.396781523453088"><ele>366.0</ele><time>2026-05-03T11:43:09Z</time></trkpt><trkpt lat="43.69699837922885" lon="11.39673269646565"><ele>366.0</ele><time>2026-05-03T11:43:11.001Z</time></trkpt><trkpt lat="43.69706030952796" lon="11.396648006221763"><ele>366.0</ele><time>2026-05-03T11:43:13.001Z</time></trkpt><trkpt lat="43.69712793266115" lon="11.39669507090548"><ele>366.0</ele><time>2026-05-03T11:43:16.001Z</time></trkpt><trkpt lat="43.69717524204028" lon="11.396763430232848"><ele>363.6</ele><time>2026-05-03T11:43:18.001Z</time></trkpt><trkpt lat="43.69724440657" lon="11.39684053879192"><ele>361.20000000000005</ele><time>2026-05-03T11:43:20.001Z</time></trkpt><trkpt lat="43.69731135632029" lon="11.396940968992372"><ele>358.79999999999995</ele><time>2026-05-03T11:43:21.001Z</time></trkpt><trkpt lat="43.69734104385245" lon="11.397082757362377"><ele>356.4</ele><time>2026-05-03T11:43:23.001Z</time></trkpt><trkpt lat="43.69734163963943" lon="11.397173350914764"><ele>354.0</ele><time>2026-05-03T11:43:24.001Z</time></trkpt><trkpt lat="43.69723503177019" lon="11.397284994494635"><ele>351.8333333333333</ele><time>2026-05-03T11:43:27.001Z</time></trkpt><trkpt lat="43.69717188160041" lon="11.397354582984779"><ele>349.6666666666667</ele><time>2026-05-03T11:43:28.001Z</time></trkpt><trkpt lat="43.69713206676573" lon="11.397463050698638"><ele>347.5</ele><time>2026-05-03T11:43:30.001Z</time></trkpt><trkpt lat="43.697133710832624" lon="11.397631548194799"><ele>345.33333333333337</ele><time>2026-05-03T11:43:32.001Z</time></trkpt><trkpt lat="43.69714514751645" lon="11.397717543054767"><ele>343.1666666666667</ele><time>2026-05-03T11:43:33.001Z</time></trkpt><trkpt lat="43.69715435267882" lon="11.397804157680959"><ele>341.0</ele><time>2026-05-03T11:43:34.001Z</time></trkpt><trkpt lat="43.69716949597825" lon="11.39793933923458"><ele>341.0</ele><time>2026-05-03T11:43:36.001Z</time></trkpt><trkpt lat="43.697177015442016" lon="11.398034125021878"><ele>341.0</ele><time>2026-05-03T11:44:25.001Z</time></trkpt><trkpt lat="43.697166736619884" lon="11.398133616473409"><ele>341.0</ele><time>2026-05-03T11:44:26.001Z</time></trkpt><trkpt lat="43.69715907347689" lon="11.39801991175538"><ele>341.0</ele><time>2026-05-03T11:44:28.001Z</time></trkpt><trkpt lat="43.697184359806315" lon="11.397936267172867"><ele>341.0</ele><time>2026-05-03T11:49:24Z</time></trkpt><trkpt lat="43.697156329622324" lon="11.398052391678192"><ele>341.0</ele><time>2026-05-03T11:49:31Z</time></trkpt><trkpt lat="43.697177354900354" lon="11.39815635973812"><ele>339.33333333333337</ele><time>2026-05-03T11:49:34Z</time></trkpt><trkpt lat="43.697174739933914" lon="11.398247143488422"><ele>337.6666666666667</ele><time>2026-05-03T11:49:36Z</time></trkpt><trkpt lat="43.69718979339462" lon="11.39837657521729"><ele>336.0</ele><time>2026-05-03T11:49:39Z</time></trkpt><trkpt lat="43.69720863832272" lon="11.398464976590049"><ele>334.3333333333333</ele><time>2026-05-03T11:49:41Z</time></trkpt><trkpt lat="43.69725481680069" lon="11.398540185290239"><ele>332.66666666666663</ele><time>2026-05-03T11:49:43Z</time></trkpt><trkpt lat="43.69729258917058" lon="11.398639308957776"><ele>331.0</ele><time>2026-05-03T11:49:45Z</time></trkpt><trkpt lat="43.697329221969106" lon="11.398733258568887"><ele>331.0</ele><time>2026-05-03T11:49:47Z</time></trkpt><trkpt lat="43.69738920540945" lon="11.398780493319537"><ele>331.0</ele><time>2026-05-03T11:49:49Z</time></trkpt><trkpt lat="43.69744847347709" lon="11.398810057098801"><ele>331.0</ele><time>2026-05-03T11:49:51Z</time></trkpt><trkpt lat="43.69753351486967" lon="11.398775297483851"><ele>331.0</ele><time>2026-05-03T11:49:53Z</time></trkpt><trkpt lat="43.697595287728596" lon="11.398636915212446"><ele>331.0</ele><time>2026-05-03T11:49:55Z</time></trkpt><trkpt lat="43.69762065394178" lon="11.398543857840165"><ele>331.0</ele><time>2026-05-03T11:49:56Z</time></trkpt><trkpt lat="43.69764990226373" lon="11.398439881724716"><ele>331.0</ele><time>2026-05-03T11:49:57Z</time></trkpt><trkpt lat="43.69770714910492" lon="11.398340245350564"><ele>331.0</ele><time>2026-05-03T11:49:58Z</time></trkpt><trkpt lat="43.697741744783094" lon="11.39822758956996"><ele>331.0</ele><time>2026-05-03T11:49:59Z</time></trkpt><trkpt lat="43.69776096909151" lon="11.398127969518557"><ele>331.0</ele><time>2026-05-03T11:50:00Z</time></trkpt><trkpt lat="43.697818988125974" lon="11.398010883575298"><ele>331.0</ele><time>2026-05-03T11:50:02Z</time></trkpt><trkpt lat="43.69788390352292" lon="11.397914090991774"><ele>328.40000000000003</ele><time>2026-05-03T11:50:04Z</time></trkpt><trkpt lat="43.6979435331599" lon="11.397794499904483"><ele>325.8</ele><time>2026-05-03T11:50:06Z</time></trkpt><trkpt lat="43.69799790127272" lon="11.3976714186813"><ele>323.20000000000005</ele><time>2026-05-03T11:50:08.001Z</time></trkpt><trkpt lat="43.69802285077033" lon="11.397536287434493"><ele>320.6</ele><time>2026-05-03T11:50:10.001Z</time></trkpt><trkpt lat="43.69808799860005" lon="11.397421548764775"><ele>318.0</ele><time>2026-05-03T11:50:12.001Z</time></trkpt><trkpt lat="43.69814841111255" lon="11.397344177788009"><ele>318.0</ele><time>2026-05-03T11:50:13.001Z</time></trkpt><trkpt lat="43.69816997945464" lon="11.397221005191344"><ele>318.0</ele><time>2026-05-03T11:50:14.001Z</time></trkpt><trkpt lat="43.69816736154387" lon="11.39707905112352"><ele>318.0</ele><time>2026-05-03T11:50:16.001Z</time></trkpt><trkpt lat="43.69822253645129" lon="11.396994481300315"><ele>318.0</ele><time>2026-05-03T11:50:18.001Z</time></trkpt><trkpt lat="43.69834525120074" lon="11.396978523100149"><ele>318.0</ele><time>2026-05-03T11:50:20.001Z</time></trkpt><trkpt lat="43.69838818296997" lon="11.397089186074068"><ele>318.0</ele><time>2026-05-03T11:50:21.001Z</time></trkpt><trkpt lat="43.69844265714634" lon="11.397162815667768"><ele>318.0</ele><time>2026-05-03T11:50:22.001Z</time></trkpt><trkpt lat="43.698518277153596" lon="11.397221942246528"><ele>318.0</ele><time>2026-05-03T11:50:23.001Z</time></trkpt><trkpt lat="43.698608659445256" lon="11.397284327296713"><ele>318.0</ele><time>2026-05-03T11:50:24.001Z</time></trkpt><trkpt lat="43.698689276647805" lon="11.397336839247032"><ele>318.0</ele><time>2026-05-03T11:50:25.001Z</time></trkpt><trkpt lat="43.69876989248193" lon="11.397389198517791"><ele>318.0</ele><time>2026-05-03T11:50:26.001Z</time></trkpt><trkpt lat="43.69885331343698" lon="11.39746968546319"><ele>317.5</ele><time>2026-05-03T11:50:27.001Z</time></trkpt><trkpt lat="43.698925970633006" lon="11.397559446155745"><ele>317.0</ele><time>2026-05-03T11:50:28.001Z</time></trkpt><trkpt lat="43.69899815415857" lon="11.397645009410684"><ele>316.5</ele><time>2026-05-03T11:50:29.001Z</time></trkpt><trkpt lat="43.699074002976765" lon="11.3977251959617"><ele>316.0</ele><time>2026-05-03T11:50:30.001Z</time></trkpt><trkpt lat="43.69913776398626" lon="11.397799024489483"><ele>315.5</ele><time>2026-05-03T11:50:31.001Z</time></trkpt><trkpt lat="43.699184314144375" lon="11.39787140146926"><ele>315.0</ele><time>2026-05-03T11:50:32.001Z</time></trkpt><trkpt lat="43.69925917926181" lon="11.398004845362872"><ele>313.3333333333333</ele><time>2026-05-03T11:50:34.001Z</time></trkpt><trkpt lat="43.699297215304455" lon="11.398074988566249"><ele>311.6666666666667</ele><time>2026-05-03T11:50:35.001Z</time></trkpt><trkpt lat="43.69933725049365" lon="11.398148818449611"><ele>310.0</ele><time>2026-05-03T11:50:36.001Z</time></trkpt><trkpt lat="43.699374770836435" lon="11.39822133312102"><ele>308.33333333333337</ele><time>2026-05-03T11:50:37.001Z</time></trkpt><trkpt lat="43.69941233530456" lon="11.398294526771933"><ele>306.6666666666667</ele><time>2026-05-03T11:50:38.001Z</time></trkpt><trkpt lat="43.69948544140824" lon="11.39840173780154"><ele>305.0</ele><time>2026-05-03T11:50:40.001Z</time></trkpt><trkpt lat="43.6996174337998" lon="11.398492365792372"><ele>305.0</ele><time>2026-05-03T11:50:42.001Z</time></trkpt><trkpt lat="43.699692083068726" lon="11.398524114398874"><ele>305.0</ele><time>2026-05-03T11:50:43.001Z</time></trkpt><trkpt lat="43.699763638530214" lon="11.39855574620777"><ele>305.0</ele><time>2026-05-03T11:50:44.001Z</time></trkpt><trkpt lat="43.699832004142344" lon="11.398571419484833"><ele>305.0</ele><time>2026-05-03T11:50:45.001Z</time></trkpt><trkpt lat="43.699899469385464" lon="11.398576864186683"><ele>305.0</ele><time>2026-05-03T11:50:46.001Z</time></trkpt><trkpt lat="43.699968837774584" lon="11.398579148112596"><ele>305.0</ele><time>2026-05-03T11:50:47Z</time></trkpt><trkpt lat="43.70008413080769" lon="11.398530832057462"><ele>305.0</ele><time>2026-05-03T11:50:49Z</time></trkpt><trkpt lat="43.700147604931765" lon="11.398466904799976"><ele>305.0</ele><time>2026-05-03T11:50:50Z</time></trkpt><trkpt lat="43.70022777436398" lon="11.398342271581136"><ele>305.0</ele><time>2026-05-03T11:50:52Z</time></trkpt><trkpt lat="43.700334718703665" lon="11.398303690945069"><ele>305.0</ele><time>2026-05-03T11:50:54Z</time></trkpt><trkpt lat="43.70040227563395" lon="11.398293665394304"><ele>305.0</ele><time>2026-05-03T11:50:55Z</time></trkpt><trkpt lat="43.70048384784224" lon="11.398330111160822"><ele>304.5</ele><time>2026-05-03T11:50:56Z</time></trkpt><trkpt lat="43.70054073253429" lon="11.39840884707994"><ele>304.0</ele><time>2026-05-03T11:50:57Z</time></trkpt><trkpt lat="43.700562551550604" lon="11.398527536457342"><ele>303.5</ele><time>2026-05-03T11:50:58Z</time></trkpt><trkpt lat="43.70058897898071" lon="11.3986138462745"><ele>303.0</ele><time>2026-05-03T11:50:59Z</time></trkpt><trkpt lat="43.700618070638505" lon="11.398713209419869"><ele>302.5</ele><time>2026-05-03T11:51:00Z</time></trkpt><trkpt lat="43.70064757022978" lon="11.39881983892276"><ele>302.0</ele><time>2026-05-03T11:51:01Z</time></trkpt><trkpt lat="43.70067901190377" lon="11.398927854090116"><ele>300.1666666666667</ele><time>2026-05-03T11:51:02Z</time></trkpt><trkpt lat="43.70074327927316" lon="11.399082982707593"><ele>298.33333333333337</ele><time>2026-05-03T11:51:04Z</time></trkpt><trkpt lat="43.700780636821996" lon="11.399157792711648"><ele>296.5</ele><time>2026-05-03T11:51:05Z</time></trkpt><trkpt lat="43.70083096906463" lon="11.399238345434167"><ele>294.6666666666667</ele><time>2026-05-03T11:51:06Z</time></trkpt><trkpt lat="43.700887009251204" lon="11.399316053413486"><ele>292.8333333333333</ele><time>2026-05-03T11:51:07Z</time></trkpt><trkpt lat="43.700949141919274" lon="11.399389496493633"><ele>291.0</ele><time>2026-05-03T11:51:08Z</time></trkpt><trkpt lat="43.70101439847628" lon="11.399460114600114"><ele>291.0</ele><time>2026-05-03T11:51:09Z</time></trkpt><trkpt lat="43.701069092138354" lon="11.399521207597214"><ele>291.0</ele><time>2026-05-03T11:51:10Z</time></trkpt><trkpt lat="43.70112975244306" lon="11.399569510585733"><ele>291.0</ele><time>2026-05-03T11:51:11Z</time></trkpt><trkpt lat="43.70121804347394" lon="11.399661708664132"><ele>291.0</ele><time>2026-05-03T11:51:13Z</time></trkpt><trkpt lat="43.70127755028786" lon="11.39974376542409"><ele>291.0</ele><time>2026-05-03T11:51:15Z</time></trkpt><trkpt lat="43.70135533527298" lon="11.399813118546133"><ele>291.0</ele><time>2026-05-03T11:51:17Z</time></trkpt><trkpt lat="43.70143549372519" lon="11.39991455883835"><ele>289.1666666666667</ele><time>2026-05-03T11:51:19Z</time></trkpt><trkpt lat="43.701482292555895" lon="11.399979350725385"><ele>287.3333333333333</ele><time>2026-05-03T11:51:20Z</time></trkpt><trkpt lat="43.70153379921828" lon="11.400052650674294"><ele>285.5</ele><time>2026-05-03T11:51:21Z</time></trkpt><trkpt lat="43.70158068092978" lon="11.400120882026004"><ele>283.66666666666663</ele><time>2026-05-03T11:51:22Z</time></trkpt><trkpt lat="43.70163629776371" lon="11.400278735620095"><ele>281.8333333333333</ele><time>2026-05-03T11:51:24.001Z</time></trkpt><trkpt lat="43.70165017808922" lon="11.400434327820042"><ele>280.0</ele><time>2026-05-03T11:51:26.001Z</time></trkpt><trkpt lat="43.70154118395584" lon="11.400542597576345"><ele>277.3333333333333</ele><time>2026-05-03T11:51:28.001Z</time></trkpt><trkpt lat="43.70147451167188" lon="11.400614659690175"><ele>274.66666666666663</ele><time>2026-05-03T11:51:29.001Z</time></trkpt><trkpt lat="43.70141220748447" lon="11.400719335345121"><ele>272.0</ele><time>2026-05-03T11:51:30.001Z</time></trkpt><trkpt lat="43.701353128855764" lon="11.400814616907148"><ele>269.3333333333333</ele><time>2026-05-03T11:51:31.001Z</time></trkpt><trkpt lat="43.70129054015833" lon="11.400909311292077"><ele>266.6666666666667</ele><time>2026-05-03T11:51:32.001Z</time></trkpt><trkpt lat="43.70123348050005" lon="11.400983323648349"><ele>264.0</ele><time>2026-05-03T11:51:33.001Z</time></trkpt><trkpt lat="43.70117883570518" lon="11.401052487758742"><ele>264.0</ele><time>2026-05-03T11:51:34.001Z</time></trkpt><trkpt lat="43.70113625404273" lon="11.401118253376785"><ele>264.0</ele><time>2026-05-03T11:51:35.001Z</time></trkpt><trkpt lat="43.701255482085976" lon="11.401366767485523"><ele>264.0</ele><time>2026-05-03T11:51:39.001Z</time></trkpt><trkpt lat="43.70130370117048" lon="11.401467512126688"><ele>264.0</ele><time>2026-05-03T11:51:40.001Z</time></trkpt><trkpt lat="43.70135648555908" lon="11.401560025888092"><ele>263.3333333333333</ele><time>2026-05-03T11:51:41.001Z</time></trkpt><trkpt lat="43.70141047299992" lon="11.401639020724238"><ele>262.6666666666667</ele><time>2026-05-03T11:51:42.001Z</time></trkpt><trkpt lat="43.701478364286416" lon="11.401740098947464"><ele>262.0</ele><time>2026-05-03T11:51:44.001Z</time></trkpt><trkpt lat="43.70153069815232" lon="11.40181396728277"><ele>261.33333333333337</ele><time>2026-05-03T11:51:46.001Z</time></trkpt><trkpt lat="43.70158968820108" lon="11.401859652430677"><ele>260.6666666666667</ele><time>2026-05-03T11:51:50.001Z</time></trkpt><trkpt lat="43.701651342732816" lon="11.401909670289102"><ele>260.0</ele><time>2026-05-03T11:52:15.001Z</time></trkpt><trkpt lat="43.701709306513806" lon="11.401846095022421"><ele>260.0</ele><time>2026-05-03T11:52:39.002Z</time></trkpt><trkpt lat="43.70179506761035" lon="11.401763943321287"><ele>260.0</ele><time>2026-05-03T11:52:41.002Z</time></trkpt><trkpt lat="43.70187047049531" lon="11.401738119384044"><ele>260.0</ele><time>2026-05-03T11:52:43.002Z</time></trkpt><trkpt lat="43.701938929874984" lon="11.401681020716174"><ele>260.0</ele><time>2026-05-03T11:52:44.002Z</time></trkpt><trkpt lat="43.70203267406174" lon="11.401622759307992"><ele>260.0</ele><time>2026-05-03T11:52:45.002Z</time></trkpt><trkpt lat="43.702138492152876" lon="11.401563791883513"><ele>259.4</ele><time>2026-05-03T11:52:46.002Z</time></trkpt><trkpt lat="43.70223216178627" lon="11.40150823758377"><ele>258.8</ele><time>2026-05-03T11:52:47.002Z</time></trkpt><trkpt lat="43.70229863415489" lon="11.40148042121348"><ele>258.2</ele><time>2026-05-03T11:52:48.002Z</time></trkpt><trkpt lat="43.702399337306844" lon="11.401442807561786"><ele>257.6</ele><time>2026-05-03T11:52:50.002Z</time></trkpt><trkpt lat="43.7025051640344" lon="11.40141294740598"><ele>257.0</ele><time>2026-05-03T11:52:52.002Z</time></trkpt><trkpt lat="43.70263164286811" lon="11.401438502981177"><ele>254.6</ele><time>2026-05-03T11:52:54.001Z</time></trkpt><trkpt lat="43.70275305193015" lon="11.401488002644681"><ele>252.2</ele><time>2026-05-03T11:52:56.001Z</time></trkpt><trkpt lat="43.70286978824109" lon="11.401544416736208"><ele>249.8</ele><time>2026-05-03T11:52:58.001Z</time></trkpt><trkpt lat="43.70294319826441" lon="11.40157702338379"><ele>247.4</ele><time>2026-05-03T11:52:59.001Z</time></trkpt><trkpt lat="43.70300979400618" lon="11.401602992500615"><ele>245.0</ele><time>2026-05-03T11:53:00.001Z</time></trkpt><trkpt lat="43.70307494197172" lon="11.401628882899116"><ele>245.0</ele><time>2026-05-03T11:53:01.001Z</time></trkpt><trkpt lat="43.703146575014976" lon="11.401657350511549"><ele>245.0</ele><time>2026-05-03T11:53:02.001Z</time></trkpt><trkpt lat="43.70321596936715" lon="11.401684928438993"><ele>245.0</ele><time>2026-05-03T11:53:03.001Z</time></trkpt><trkpt lat="43.70333972949404" lon="11.4017344707823"><ele>245.0</ele><time>2026-05-03T11:53:05.001Z</time></trkpt><trkpt lat="43.70340161991258" lon="11.401759843690987"><ele>245.0</ele><time>2026-05-03T11:53:06.001Z</time></trkpt><trkpt lat="43.70352007430441" lon="11.401808405858496"><ele>243.6</ele><time>2026-05-03T11:53:08.001Z</time></trkpt><trkpt lat="43.70363037553784" lon="11.40185517173192"><ele>242.2</ele><time>2026-05-03T11:53:10.001Z</time></trkpt><trkpt lat="43.703736867310965" lon="11.401908894602611"><ele>240.8</ele><time>2026-05-03T11:53:12.001Z</time></trkpt><trkpt lat="43.70379563756148" lon="11.401942186430944"><ele>239.4</ele><time>2026-05-03T11:53:13.001Z</time></trkpt><trkpt lat="43.703855013645054" lon="11.401975821441502"><ele>238.0</ele><time>2026-05-03T11:53:14.001Z</time></trkpt><trkpt lat="43.70395585747667" lon="11.402052456781359"><ele>238.0</ele><time>2026-05-03T11:53:16.001Z</time></trkpt><trkpt lat="43.704023768360976" lon="11.402090376642171"><ele>238.0</ele><time>2026-05-03T11:53:17.001Z</time></trkpt><trkpt lat="43.70408541955864" lon="11.402124538849645"><ele>238.0</ele><time>2026-05-03T11:53:18.001Z</time></trkpt><trkpt lat="43.70420162819628" lon="11.40216294021985"><ele>238.0</ele><time>2026-05-03T11:53:20.001Z</time></trkpt><trkpt lat="43.704304105392744" lon="11.402217842013558"><ele>238.0</ele><time>2026-05-03T11:53:22.001Z</time></trkpt><trkpt lat="43.70439459541295" lon="11.402289126352695"><ele>239.0</ele><time>2026-05-03T11:53:24.001Z</time></trkpt><trkpt lat="43.70449041202766" lon="11.402324304952892"><ele>240.0</ele><time>2026-05-03T11:53:26.001Z</time></trkpt><trkpt lat="43.70454936749666" lon="11.402360900520073"><ele>241.0</ele><time>2026-05-03T11:53:27.001Z</time></trkpt><trkpt lat="43.70465045160777" lon="11.402428008761408"><ele>242.0</ele><time>2026-05-03T11:53:29.001Z</time></trkpt><trkpt lat="43.70474373070912" lon="11.402498428148222"><ele>243.0</ele><time>2026-05-03T11:53:31.001Z</time></trkpt><trkpt lat="43.70483252048814" lon="11.40257420336043"><ele>243.0</ele><time>2026-05-03T11:53:33.001Z</time></trkpt><trkpt lat="43.704925129875626" lon="11.40266120037995"><ele>243.0</ele><time>2026-05-03T11:53:35.001Z</time></trkpt><trkpt lat="43.70497724138005" lon="11.402710359820391"><ele>243.0</ele><time>2026-05-03T11:53:36.001Z</time></trkpt><trkpt lat="43.70503372436599" lon="11.402764562179998"><ele>243.0</ele><time>2026-05-03T11:53:37.001Z</time></trkpt><trkpt lat="43.70509324101189" lon="11.402822552756207"><ele>243.0</ele><time>2026-05-03T11:53:38.001Z</time></trkpt><trkpt lat="43.70515398288296" lon="11.40288173713399"><ele>243.0</ele><time>2026-05-03T11:53:40.001Z</time></trkpt><trkpt lat="43.70512319138243" lon="11.403096686436557"><ele>243.4</ele><time>2026-05-03T11:53:57.001Z</time></trkpt><trkpt lat="43.70506328428919" lon="11.403219046466399"><ele>243.8</ele><time>2026-05-03T11:53:58.001Z</time></trkpt><trkpt lat="43.704979287847706" lon="11.403308861666597"><ele>244.2</ele><time>2026-05-03T11:53:59.001Z</time></trkpt><trkpt lat="43.70494291444737" lon="11.40342030693339"><ele>244.6</ele><time>2026-05-03T11:54:00.001Z</time></trkpt><trkpt lat="43.704871254980816" lon="11.403517269533992"><ele>245.0</ele><time>2026-05-03T11:54:01.001Z</time></trkpt><trkpt lat="43.70482250168008" lon="11.403618682094013"><ele>245.0</ele><time>2026-05-03T11:54:02.001Z</time></trkpt><trkpt lat="43.704776199381115" lon="11.403721281275754"><ele>245.0</ele><time>2026-05-03T11:54:03.001Z</time></trkpt><trkpt lat="43.70471969376186" lon="11.403836661547343"><ele>245.0</ele><time>2026-05-03T11:54:04.001Z</time></trkpt><trkpt lat="43.70463951568579" lon="11.403940240077164"><ele>245.0</ele><time>2026-05-03T11:54:05.001Z</time></trkpt><trkpt lat="43.70459025456716" lon="11.404040909913235"><ele>245.0</ele><time>2026-05-03T11:54:06.001Z</time></trkpt><trkpt lat="43.704548950146595" lon="11.404152452945102"><ele>245.2</ele><time>2026-05-03T11:54:07.001Z</time></trkpt><trkpt lat="43.70449460407527" lon="11.40425198733449"><ele>245.4</ele><time>2026-05-03T11:54:08.001Z</time></trkpt><trkpt lat="43.704437508787336" lon="11.404362632938613"><ele>245.60000000000002</ele><time>2026-05-03T11:54:09.001Z</time></trkpt><trkpt lat="43.70438296318432" lon="11.404469346167112"><ele>245.8</ele><time>2026-05-03T11:54:10.001Z</time></trkpt><trkpt lat="43.7043174142169" lon="11.40455501045934"><ele>246.0</ele><time>2026-05-03T11:54:11.001Z</time></trkpt><trkpt lat="43.70426234225964" lon="11.404646384490016"><ele>245.0</ele><time>2026-05-03T11:54:12.001Z</time></trkpt><trkpt lat="43.704209465021854" lon="11.404739956589896"><ele>244.0</ele><time>2026-05-03T11:54:13.001Z</time></trkpt><trkpt lat="43.70415337331341" lon="11.4048374635431"><ele>243.0</ele><time>2026-05-03T11:54:14.001Z</time></trkpt><trkpt lat="43.70409847712748" lon="11.404932862338054"><ele>242.0</ele><time>2026-05-03T11:54:15.001Z</time></trkpt><trkpt lat="43.704044459682876" lon="11.405015740273242"><ele>241.0</ele><time>2026-05-03T11:54:16.001Z</time></trkpt><trkpt lat="43.70398868867545" lon="11.405081724108372"><ele>240.0</ele><time>2026-05-03T11:54:17.001Z</time></trkpt><trkpt lat="43.703928357500715" lon="11.405145151846066"><ele>240.0</ele><time>2026-05-03T11:54:18.001Z</time></trkpt><trkpt lat="43.703868147324016" lon="11.405201024063581"><ele>240.0</ele><time>2026-05-03T11:54:19.001Z</time></trkpt><trkpt lat="43.70380592852798" lon="11.405236278712406"><ele>240.0</ele><time>2026-05-03T11:54:20.001Z</time></trkpt><trkpt lat="43.70373966011108" lon="11.40526946292127"><ele>240.0</ele><time>2026-05-03T11:54:21.001Z</time></trkpt><trkpt lat="43.703668722361144" lon="11.405299957479341"><ele>240.0</ele><time>2026-05-03T11:54:22.001Z</time></trkpt><trkpt lat="43.70359480477385" lon="11.405329806435029"><ele>240.0</ele><time>2026-05-03T11:54:23.001Z</time></trkpt><trkpt lat="43.70352151410015" lon="11.405357308410943"><ele>240.0</ele><time>2026-05-03T11:54:24.001Z</time></trkpt><trkpt lat="43.703454207135955" lon="11.405384437169264"><ele>239.0</ele><time>2026-05-03T11:54:25.001Z</time></trkpt><trkpt lat="43.70338864871703" lon="11.40540548500884"><ele>238.0</ele><time>2026-05-03T11:54:26.001Z</time></trkpt><trkpt lat="43.703322925001395" lon="11.405424471531312"><ele>237.0</ele><time>2026-05-03T11:54:27.001Z</time></trkpt><trkpt lat="43.70325564653038" lon="11.405430803383581"><ele>236.0</ele><time>2026-05-03T11:54:28.001Z</time></trkpt><trkpt lat="43.70319101237893" lon="11.405441318785662"><ele>235.0</ele><time>2026-05-03T11:54:29.001Z</time></trkpt><trkpt lat="43.70312308705901" lon="11.405452594070065"><ele>234.0</ele><time>2026-05-03T11:54:30.001Z</time></trkpt><trkpt lat="43.70304839957778" lon="11.405471070265294"><ele>233.0</ele><time>2026-05-03T11:54:31.001Z</time></trkpt><trkpt lat="43.70296940498377" lon="11.40548645242489"><ele>232.83333333333334</ele><time>2026-05-03T11:54:32.001Z</time></trkpt><trkpt lat="43.702888772922606" lon="11.405497978412457"><ele>232.66666666666669</ele><time>2026-05-03T11:54:33.002Z</time></trkpt><trkpt lat="43.70280991464853" lon="11.405510346383277"><ele>232.5</ele><time>2026-05-03T11:54:34.002Z</time></trkpt><trkpt lat="43.70273606049056" lon="11.40552221084507"><ele>232.33333333333331</ele><time>2026-05-03T11:54:35.002Z</time></trkpt><trkpt lat="43.70265606769215" lon="11.405528006747444"><ele>232.16666666666666</ele><time>2026-05-03T11:54:36.002Z</time></trkpt><trkpt lat="43.702570543758945" lon="11.405525118936229"><ele>232.0</ele><time>2026-05-03T11:54:37.002Z</time></trkpt><trkpt lat="43.7024795912707" lon="11.40552541888859"><ele>232.33333333333331</ele><time>2026-05-03T11:54:38.002Z</time></trkpt><trkpt lat="43.70238934134413" lon="11.405531172536882"><ele>232.66666666666666</ele><time>2026-05-03T11:54:39.002Z</time></trkpt><trkpt lat="43.70229079294317" lon="11.405532868345437"><ele>233.0</ele><time>2026-05-03T11:54:40.002Z</time></trkpt><trkpt lat="43.70220100187885" lon="11.405533981365908"><ele>233.33333333333331</ele><time>2026-05-03T11:54:41.002Z</time></trkpt><trkpt lat="43.70210981022873" lon="11.405530809260748"><ele>233.66666666666666</ele><time>2026-05-03T11:54:42.002Z</time></trkpt><trkpt lat="43.702031311889236" lon="11.40552302521734"><ele>234.0</ele><time>2026-05-03T11:54:43.002Z</time></trkpt><trkpt lat="43.7019677315495" lon="11.40551711900968"><ele>235.39999999999998</ele><time>2026-05-03T11:54:44.002Z</time></trkpt><trkpt lat="43.701859833175405" lon="11.405486023367873"><ele>236.79999999999998</ele><time>2026-05-03T11:54:46.002Z</time></trkpt><trkpt lat="43.701761865229365" lon="11.405466006303254"><ele>238.20000000000002</ele><time>2026-05-03T11:54:48.002Z</time></trkpt><trkpt lat="43.7016519140468" lon="11.405453463305077"><ele>239.60000000000002</ele><time>2026-05-03T11:54:49.002Z</time></trkpt><trkpt lat="43.70155418887689" lon="11.405432299877774"><ele>241.0</ele><time>2026-05-03T11:54:50.002Z</time></trkpt><trkpt lat="43.70145284798481" lon="11.405427713114307"><ele>240.99999999999997</ele><time>2026-05-03T11:54:51.002Z</time></trkpt><trkpt lat="43.70135385873512" lon="11.405406384150568"><ele>241.0</ele><time>2026-05-03T11:54:52.002Z</time></trkpt><trkpt lat="43.70127889192082" lon="11.405356052080386"><ele>241.0</ele><time>2026-05-03T11:54:54.002Z</time></trkpt><trkpt lat="43.701216962367006" lon="11.405323189941457"><ele>241.0</ele><time>2026-05-03T11:54:56.002Z</time></trkpt><trkpt lat="43.70127179982283" lon="11.405448848193137"><ele>240.99999999999997</ele><time>2026-05-03T11:54:59.002Z</time></trkpt><trkpt lat="43.70133295335598" lon="11.405477963844021"><ele>241.0</ele><time>2026-05-03T11:55:00.002Z</time></trkpt><trkpt lat="43.701422592206015" lon="11.405494663402681"><ele>241.20000000000002</ele><time>2026-05-03T11:55:01.002Z</time></trkpt><trkpt lat="43.701487809094274" lon="11.405517691547876"><ele>241.40000000000003</ele><time>2026-05-03T11:55:02.002Z</time></trkpt><trkpt lat="43.7015964610063" lon="11.405539947985504"><ele>241.6</ele><time>2026-05-03T11:55:04.001Z</time></trkpt><trkpt lat="43.70166265446788" lon="11.405563792021052"><ele>241.8</ele><time>2026-05-03T11:55:05.001Z</time></trkpt><trkpt lat="43.701776207928596" lon="11.405576246509868"><ele>242.0</ele><time>2026-05-03T11:55:06.001Z</time></trkpt><trkpt lat="43.701896727053764" lon="11.405596472804147"><ele>242.0</ele><time>2026-05-03T11:55:07.001Z</time></trkpt><trkpt lat="43.70197312489182" lon="11.405610834761385"><ele>242.0</ele><time>2026-05-03T11:55:08.001Z</time></trkpt><trkpt lat="43.70204743796432" lon="11.405646150908039"><ele>242.0</ele><time>2026-05-03T11:55:10.001Z</time></trkpt><trkpt lat="43.7020781594012" lon="11.405555715492767"><ele>242.0</ele><time>2026-05-03T11:55:14.001Z</time></trkpt><trkpt lat="43.70193832492217" lon="11.405513934320242"><ele>242.0</ele><time>2026-05-03T11:55:16.001Z</time></trkpt><trkpt lat="43.701813331203326" lon="11.405502441216038"><ele>241.75</ele><time>2026-05-03T11:55:17.001Z</time></trkpt><trkpt lat="43.701665060354976" lon="11.40546894514221"><ele>241.5</ele><time>2026-05-03T11:55:18.001Z</time></trkpt><trkpt lat="43.7015258459278" lon="11.40544883434999"><ele>241.25</ele><time>2026-05-03T11:55:19.001Z</time></trkpt><trkpt lat="43.701423564042194" lon="11.40543429897793"><ele>241.0</ele><time>2026-05-03T11:55:20.001Z</time></trkpt><trkpt lat="43.7013451039391" lon="11.405417066970855"><ele>241.0</ele><time>2026-05-03T11:55:21.001Z</time></trkpt><trkpt lat="43.70125911436492" lon="11.405408974419357"><ele>241.00000000000003</ele><time>2026-05-03T11:55:23.001Z</time></trkpt><trkpt lat="43.701151529130804" lon="11.405409475215668"><ele>241.00000000000003</ele><time>2026-05-03T11:55:40.001Z</time></trkpt><trkpt lat="43.701066146708676" lon="11.40547184722154"><ele>241.0</ele><time>2026-05-03T11:55:41.001Z</time></trkpt><trkpt lat="43.700956227792" lon="11.405562176150823"><ele>241.0</ele><time>2026-05-03T11:55:42.001Z</time></trkpt><trkpt lat="43.700811454424304" lon="11.405678607560288"><ele>241.0</ele><time>2026-05-03T11:55:43.001Z</time></trkpt><trkpt lat="43.70067653325211" lon="11.405845278458724"><ele>241.0</ele><time>2026-05-03T11:55:44.001Z</time></trkpt><trkpt lat="43.70053071334865" lon="11.406063459278172"><ele>241.0</ele><time>2026-05-03T11:55:45.001Z</time></trkpt><trkpt lat="43.70037166548589" lon="11.406333065696735"><ele>240.0</ele><time>2026-05-03T11:55:46.001Z</time></trkpt><trkpt lat="43.700210713698276" lon="11.40662361232185"><ele>239.0</ele><time>2026-05-03T11:55:47.001Z</time></trkpt><trkpt lat="43.70005963693336" lon="11.406881255869601"><ele>239.0</ele><time>2026-05-03T11:55:48.001Z</time></trkpt><trkpt lat="43.69994129489764" lon="11.407085023930318"><ele>239.0</ele><time>2026-05-03T11:55:49.001Z</time></trkpt><trkpt lat="43.699843743690224" lon="11.407260302829574"><ele>239.0</ele><time>2026-05-03T11:55:50.001Z</time></trkpt><trkpt lat="43.699756702999046" lon="11.40740573552736"><ele>238.0</ele><time>2026-05-03T11:55:51.001Z</time></trkpt><trkpt lat="43.699668463462324" lon="11.407532550564824"><ele>237.0</ele><time>2026-05-03T11:55:52.001Z</time></trkpt><trkpt lat="43.69957313761744" lon="11.407622148026253"><ele>236.0</ele><time>2026-05-03T11:55:53.001Z</time></trkpt><trkpt lat="43.69946826236645" lon="11.407709203503282"><ele>235.0</ele><time>2026-05-03T11:55:54.001Z</time></trkpt><trkpt lat="43.69935453205749" lon="11.407816918827148"><ele>233.0</ele><time>2026-05-03T11:55:55.001Z</time></trkpt><trkpt lat="43.699225763604666" lon="11.407912462667285"><ele>231.0</ele><time>2026-05-03T11:55:56.001Z</time></trkpt><trkpt lat="43.69913720110742" lon="11.408028166781738"><ele>229.0</ele><time>2026-05-03T11:55:57.001Z</time></trkpt><trkpt lat="43.69905895051865" lon="11.408105136760861"><ele>227.0</ele><time>2026-05-03T11:55:58.001Z</time></trkpt><trkpt lat="43.69898336998013" lon="11.408182175838311"><ele>226.25</ele><time>2026-05-03T11:55:59.001Z</time></trkpt><trkpt lat="43.69892515080464" lon="11.408279566881763"><ele>225.5</ele><time>2026-05-03T11:56:00.001Z</time></trkpt><trkpt lat="43.698883307802" lon="11.408424734232277"><ele>224.75</ele><time>2026-05-03T11:56:01.001Z</time></trkpt><trkpt lat="43.69888023573231" lon="11.408620858181425"><ele>224.0</ele><time>2026-05-03T11:56:02.001Z</time></trkpt><trkpt lat="43.69890832255571" lon="11.408801031897802"><ele>224.0</ele><time>2026-05-03T11:56:03.001Z</time></trkpt><trkpt lat="43.69889411376586" lon="11.408950503710871"><ele>224.0</ele><time>2026-05-03T11:56:04.001Z</time></trkpt><trkpt lat="43.69884589950577" lon="11.409107567503417"><ele>224.0</ele><time>2026-05-03T11:56:05.001Z</time></trkpt><trkpt lat="43.698785989841554" lon="11.409297810225706"><ele>224.0</ele><time>2026-05-03T11:56:06.001Z</time></trkpt><trkpt lat="43.69868118013455" lon="11.40943557754777"><ele>224.0</ele><time>2026-05-03T11:56:07.001Z</time></trkpt><trkpt lat="43.698594174078934" lon="11.409541548418565"><ele>224.0</ele><time>2026-05-03T11:56:08.001Z</time></trkpt><trkpt lat="43.69850461295209" lon="11.40963099456956"><ele>224.0</ele><time>2026-05-03T11:56:09.001Z</time></trkpt><trkpt lat="43.698395697869955" lon="11.409683640563202"><ele>224.0</ele><time>2026-05-03T11:56:10.001Z</time></trkpt><trkpt lat="43.6982742897558" lon="11.409729722686658"><ele>220.6</ele><time>2026-05-03T11:56:11.001Z</time></trkpt><trkpt lat="43.6981580928783" lon="11.409793460380921"><ele>217.2</ele><time>2026-05-03T11:56:12.001Z</time></trkpt><trkpt lat="43.698046557687064" lon="11.40982078226903"><ele>213.79999999999998</ele><time>2026-05-03T11:56:13.001Z</time></trkpt><trkpt lat="43.69795709997357" lon="11.409883282193325"><ele>210.39999999999998</ele><time>2026-05-03T11:56:14.001Z</time></trkpt><trkpt lat="43.69786805251386" lon="11.409934777596579"><ele>207.0</ele><time>2026-05-03T11:56:15.001Z</time></trkpt><trkpt lat="43.6977942325421" lon="11.409980140187924"><ele>204.8</ele><time>2026-05-03T11:56:16.001Z</time></trkpt><trkpt lat="43.69772756933701" lon="11.410007599788154"><ele>202.6</ele><time>2026-05-03T11:56:17.001Z</time></trkpt><trkpt lat="43.69765287186477" lon="11.410043666559677"><ele>200.4</ele><time>2026-05-03T11:56:18.001Z</time></trkpt><trkpt lat="43.69755989604212" lon="11.410097995934702"><ele>198.20000000000002</ele><time>2026-05-03T11:56:19.001Z</time></trkpt><trkpt lat="43.69744078085156" lon="11.410152504892725"><ele>196.0</ele><time>2026-05-03T11:56:20.001Z</time></trkpt><trkpt lat="43.697326932804934" lon="11.410222180991227"><ele>196.0</ele><time>2026-05-03T11:56:21.001Z</time></trkpt><trkpt lat="43.69721189544366" lon="11.410269623951816"><ele>196.0</ele><time>2026-05-03T11:56:22.001Z</time></trkpt><trkpt lat="43.69708371401865" lon="11.410364270829637"><ele>196.0</ele><time>2026-05-03T11:56:23.001Z</time></trkpt><trkpt lat="43.69698029990037" lon="11.410487434984999"><ele>196.0</ele><time>2026-05-03T11:56:24.001Z</time></trkpt><trkpt lat="43.696891085036484" lon="11.410605768461407"><ele>194.5</ele><time>2026-05-03T11:56:25.001Z</time></trkpt><trkpt lat="43.69680939980331" lon="11.41072922563464"><ele>193.0</ele><time>2026-05-03T11:56:26.001Z</time></trkpt><trkpt lat="43.696735025537016" lon="11.410849521322993"><ele>191.5</ele><time>2026-05-03T11:56:27.001Z</time></trkpt><trkpt lat="43.696661905893194" lon="11.410963182143346"><ele>190.0</ele><time>2026-05-03T11:56:28.001Z</time></trkpt><trkpt lat="43.69659239796516" lon="11.411074594849103"><ele>190.0</ele><time>2026-05-03T11:56:29.001Z</time></trkpt><trkpt lat="43.696526362992884" lon="11.411191726032747"><ele>190.0</ele><time>2026-05-03T11:56:30.001Z</time></trkpt><trkpt lat="43.69646024152195" lon="11.411311457823356"><ele>190.0</ele><time>2026-05-03T11:56:31.001Z</time></trkpt><trkpt lat="43.696401260642354" lon="11.41143768091426"><ele>190.0</ele><time>2026-05-03T11:56:32.001Z</time></trkpt><trkpt lat="43.69633609910133" lon="11.411546590191254"><ele>190.0</ele><time>2026-05-03T11:56:33.001Z</time></trkpt><trkpt lat="43.696266316222896" lon="11.411676467851443"><ele>189.8</ele><time>2026-05-03T11:56:34.001Z</time></trkpt><trkpt lat="43.6961924763277" lon="11.411781440698604"><ele>189.6</ele><time>2026-05-03T11:56:35.001Z</time></trkpt><trkpt lat="43.696118463051235" lon="11.41188141931896"><ele>189.39999999999998</ele><time>2026-05-03T11:56:36.001Z</time></trkpt><trkpt lat="43.696027035092136" lon="11.411965810983759"><ele>189.2</ele><time>2026-05-03T11:56:37.001Z</time></trkpt><trkpt lat="43.69593171399569" lon="11.412054797192344"><ele>189.0</ele><time>2026-05-03T11:56:38.001Z</time></trkpt><trkpt lat="43.695831607736366" lon="11.412163789126513"><ele>187.0</ele><time>2026-05-03T11:56:39.001Z</time></trkpt><trkpt lat="43.69571047915125" lon="11.412230183876758"><ele>185.0</ele><time>2026-05-03T11:56:40.001Z</time></trkpt><trkpt lat="43.69559359792048" lon="11.41232112899465"><ele>183.0</ele><time>2026-05-03T11:56:41.001Z</time></trkpt><trkpt lat="43.695533010186885" lon="11.412454389068122"><ele>181.0</ele><time>2026-05-03T11:56:42.001Z</time></trkpt><trkpt lat="43.69545152033921" lon="11.412572488534398"><ele>181.0</ele><time>2026-05-03T11:56:43.001Z</time></trkpt><trkpt lat="43.69538874302709" lon="11.41270555006351"><ele>181.0</ele><time>2026-05-03T11:56:44.001Z</time></trkpt><trkpt lat="43.69535614555884" lon="11.412854311261817"><ele>181.0</ele><time>2026-05-03T11:56:45.001Z</time></trkpt><trkpt lat="43.69533520057108" lon="11.412999121403743"><ele>181.0</ele><time>2026-05-03T11:56:46.001Z</time></trkpt><trkpt lat="43.69531861908332" lon="11.41313483380873"><ele>181.0</ele><time>2026-05-03T11:56:47.001Z</time></trkpt><trkpt lat="43.6953084873215" lon="11.413259894169444"><ele>181.0</ele><time>2026-05-03T11:56:48.001Z</time></trkpt><trkpt lat="43.69529937334002" lon="11.413354543151547"><ele>181.0</ele><time>2026-05-03T11:56:49.001Z</time></trkpt><trkpt lat="43.69529006886886" lon="11.413478693056248"><ele>181.0</ele><time>2026-05-03T11:56:50.001Z</time></trkpt><trkpt lat="43.695278407473566" lon="11.413595437008096"><ele>181.0</ele><time>2026-05-03T11:56:51.001Z</time></trkpt><trkpt lat="43.69525528270751" lon="11.413700695376367"><ele>181.0</ele><time>2026-05-03T11:56:52.001Z</time></trkpt><trkpt lat="43.695215963887904" lon="11.413842408715466"><ele>181.0</ele><time>2026-05-03T11:56:53.001Z</time></trkpt><trkpt lat="43.69522645157555" lon="11.414009164109013"><ele>180.75</ele><time>2026-05-03T11:56:54.001Z</time></trkpt><trkpt lat="43.69524525145622" lon="11.414196633716497"><ele>180.5</ele><time>2026-05-03T11:56:55.001Z</time></trkpt><trkpt lat="43.695271177052135" lon="11.414396394160029"><ele>180.25</ele><time>2026-05-03T11:56:56.001Z</time></trkpt><trkpt lat="43.695293316073915" lon="11.414598273602044"><ele>180.0</ele><time>2026-05-03T11:56:57.001Z</time></trkpt><trkpt lat="43.69530136408403" lon="11.414772226743153"><ele>180.0</ele><time>2026-05-03T11:56:58.001Z</time></trkpt><trkpt lat="43.695310638706395" lon="11.41493753513802"><ele>180.0</ele><time>2026-05-03T11:56:59.001Z</time></trkpt><trkpt lat="43.69531523322498" lon="11.415106805807875"><ele>180.0</ele><time>2026-05-03T11:57:00.001Z</time></trkpt><trkpt lat="43.695346950088584" lon="11.415296761710419"><ele>180.0</ele><time>2026-05-03T11:57:01.001Z</time></trkpt><trkpt lat="43.69541291800358" lon="11.41549780105077"><ele>179.33333333333334</ele><time>2026-05-03T11:57:02.001Z</time></trkpt><trkpt lat="43.69550553592396" lon="11.415712287154877"><ele>178.66666666666669</ele><time>2026-05-03T11:57:03.001Z</time></trkpt><trkpt lat="43.69563751372586" lon="11.415945249135783"><ele>178.0</ele><time>2026-05-03T11:57:04.001Z</time></trkpt><trkpt lat="43.6957622891554" lon="11.416117473025901"><ele>178.0</ele><time>2026-05-03T11:57:05.001Z</time></trkpt><trkpt lat="43.695840943463935" lon="11.416259278978297"><ele>178.0</ele><time>2026-05-03T11:57:06.001Z</time></trkpt><trkpt lat="43.69587920700394" lon="11.416412622363437"><ele>178.0</ele><time>2026-05-03T11:57:07.001Z</time></trkpt><trkpt lat="43.695880103644654" lon="11.416580366052669"><ele>178.0</ele><time>2026-05-03T11:57:08.001Z</time></trkpt><trkpt lat="43.69586814767681" lon="11.41674216923824"><ele>178.25</ele><time>2026-05-03T11:57:09.001Z</time></trkpt><trkpt lat="43.69581880405545" lon="11.416883842254602"><ele>178.5</ele><time>2026-05-03T11:57:10.001Z</time></trkpt><trkpt lat="43.695756668342966" lon="11.417034568211843"><ele>178.75</ele><time>2026-05-03T11:57:11.001Z</time></trkpt><trkpt lat="43.695739513059934" lon="11.417219229347094"><ele>179.0</ele><time>2026-05-03T11:57:12.001Z</time></trkpt><trkpt lat="43.69578083396589" lon="11.417430126303675"><ele>178.25</ele><time>2026-05-03T11:57:13.001Z</time></trkpt><trkpt lat="43.695855365833225" lon="11.417626784635218"><ele>177.5</ele><time>2026-05-03T11:57:14.001Z</time></trkpt><trkpt lat="43.69589325585455" lon="11.417785383587285"><ele>176.75</ele><time>2026-05-03T11:57:15.001Z</time></trkpt><trkpt lat="43.69590280276128" lon="11.417918834428123"><ele>176.0</ele><time>2026-05-03T11:57:16.001Z</time></trkpt><trkpt lat="43.695846157861894" lon="11.41806566557385"><ele>173.66666666666666</ele><time>2026-05-03T11:57:17.001Z</time></trkpt><trkpt lat="43.69576345344735" lon="11.418224216701327"><ele>171.33333333333334</ele><time>2026-05-03T11:57:18.001Z</time></trkpt><trkpt lat="43.69567961437453" lon="11.418403952394156"><ele>169.0</ele><time>2026-05-03T11:57:19.001Z</time></trkpt><trkpt lat="43.69559462121414" lon="11.418623387969541"><ele>167.66666666666669</ele><time>2026-05-03T11:57:20.001Z</time></trkpt><trkpt lat="43.69554286097629" lon="11.418898691375617"><ele>166.33333333333334</ele><time>2026-05-03T11:57:21.001Z</time></trkpt><trkpt lat="43.69551909599229" lon="11.419185545057278"><ele>165.0</ele><time>2026-05-03T11:57:22.001Z</time></trkpt><trkpt lat="43.69550274946702" lon="11.419415769396387"><ele>165.0</ele><time>2026-05-03T11:57:23.001Z</time></trkpt><trkpt lat="43.69547920819452" lon="11.419604254484112"><ele>165.0</ele><time>2026-05-03T11:57:24.001Z</time></trkpt><trkpt lat="43.69549068521554" lon="11.419802049949727"><ele>165.0</ele><time>2026-05-03T11:57:25.001Z</time></trkpt><trkpt lat="43.69549909752147" lon="11.42000245412724"><ele>165.0</ele><time>2026-05-03T11:57:26.001Z</time></trkpt><trkpt lat="43.69551675587108" lon="11.420176303896161"><ele>164.5</ele><time>2026-05-03T11:57:27.001Z</time></trkpt><trkpt lat="43.69555242283162" lon="11.420332790944471"><ele>164.0</ele><time>2026-05-03T11:57:28.001Z</time></trkpt><trkpt lat="43.69564278367379" lon="11.420495365919898"><ele>163.5</ele><time>2026-05-03T11:57:29.001Z</time></trkpt><trkpt lat="43.695769775643356" lon="11.420649922219727"><ele>163.0</ele><time>2026-05-03T11:57:30.001Z</time></trkpt><trkpt lat="43.695925878210105" lon="11.420754457159292"><ele>163.0</ele><time>2026-05-03T11:57:31.001Z</time></trkpt><trkpt lat="43.6960324030305" lon="11.420879026427366"><ele>163.0</ele><time>2026-05-03T11:57:32.001Z</time></trkpt><trkpt lat="43.696131281299266" lon="11.42096978039394"><ele>163.0</ele><time>2026-05-03T11:57:33.001Z</time></trkpt><trkpt lat="43.696213939440035" lon="11.42108781166524"><ele>163.0</ele><time>2026-05-03T11:57:34.001Z</time></trkpt><trkpt lat="43.69625142047604" lon="11.42121703342021"><ele>161.25</ele><time>2026-05-03T11:57:35.001Z</time></trkpt><trkpt lat="43.69629591337441" lon="11.4213767838246"><ele>159.5</ele><time>2026-05-03T11:57:36.001Z</time></trkpt><trkpt lat="43.69633148324004" lon="11.421547291551498"><ele>157.75</ele><time>2026-05-03T11:57:37.001Z</time></trkpt><trkpt lat="43.696372101935836" lon="11.421717065684794"><ele>156.0</ele><time>2026-05-03T11:57:38.001Z</time></trkpt><trkpt lat="43.69642446468162" lon="11.421875581721183"><ele>156.0</ele><time>2026-05-03T11:57:39.001Z</time></trkpt><trkpt lat="43.69647017154359" lon="11.42202758834674"><ele>156.0</ele><time>2026-05-03T11:57:40.001Z</time></trkpt><trkpt lat="43.69650579242608" lon="11.42218413159678"><ele>156.0</ele><time>2026-05-03T11:57:41.001Z</time></trkpt><trkpt lat="43.696533721188956" lon="11.422323195370945"><ele>156.0</ele><time>2026-05-03T11:57:42.001Z</time></trkpt><trkpt lat="43.69655480563198" lon="11.422457602510658"><ele>156.0</ele><time>2026-05-03T11:57:43.001Z</time></trkpt><trkpt lat="43.696573816092126" lon="11.422592496723835"><ele>156.0</ele><time>2026-05-03T11:57:44.001Z</time></trkpt><trkpt lat="43.6965809981842" lon="11.42271812651868"><ele>156.0</ele><time>2026-05-03T11:57:45.001Z</time></trkpt><trkpt lat="43.69657006714726" lon="11.422844644408892"><ele>156.0</ele><time>2026-05-03T11:57:46.001Z</time></trkpt><trkpt lat="43.69653943831707" lon="11.422966101940712"><ele>156.0</ele><time>2026-05-03T11:57:47.001Z</time></trkpt><trkpt lat="43.69649121340114" lon="11.423086710751072"><ele>156.0</ele><time>2026-05-03T11:57:48.001Z</time></trkpt><trkpt lat="43.6964327020219" lon="11.423200678737972"><ele>155.8</ele><time>2026-05-03T11:57:49.001Z</time></trkpt><trkpt lat="43.69636923949006" lon="11.42331557865042"><ele>155.6</ele><time>2026-05-03T11:57:50.001Z</time></trkpt><trkpt lat="43.69630941123879" lon="11.423441322096403"><ele>155.4</ele><time>2026-05-03T11:57:51.001Z</time></trkpt><trkpt lat="43.69624243000962" lon="11.423565000009514"><ele>155.2</ele><time>2026-05-03T11:57:52.001Z</time></trkpt><trkpt lat="43.69617632081709" lon="11.423692387477404"><ele>155.0</ele><time>2026-05-03T11:57:53.001Z</time></trkpt><trkpt lat="43.69610336600331" lon="11.423830372882005"><ele>156.75</ele><time>2026-05-03T11:57:54.001Z</time></trkpt><trkpt lat="43.696036686558095" lon="11.423968562863312"><ele>158.5</ele><time>2026-05-03T11:57:55.001Z</time></trkpt><trkpt lat="43.69597767689122" lon="11.424123887926173"><ele>160.25</ele><time>2026-05-03T11:57:56.001Z</time></trkpt><trkpt lat="43.695923450217265" lon="11.424289999173164"><ele>162.0</ele><time>2026-05-03T11:57:57.001Z</time></trkpt><trkpt lat="43.69587904867749" lon="11.424460733251127"><ele>162.0</ele><time>2026-05-03T11:57:58.001Z</time></trkpt><trkpt lat="43.69583566367064" lon="11.424630613047349"><ele>162.0</ele><time>2026-05-03T11:57:59.001Z</time></trkpt><trkpt lat="43.6957936343515" lon="11.424799554139422"><ele>162.0</ele><time>2026-05-03T11:58:00.001Z</time></trkpt><trkpt lat="43.69575047060013" lon="11.42496918671785"><ele>162.0</ele><time>2026-05-03T11:58:01.001Z</time></trkpt><trkpt lat="43.69571052650419" lon="11.425141792465515"><ele>160.75</ele><time>2026-05-03T11:58:02.001Z</time></trkpt><trkpt lat="43.69567191641369" lon="11.425312144840648"><ele>159.5</ele><time>2026-05-03T11:58:03.001Z</time></trkpt><trkpt lat="43.69563706536853" lon="11.425483806885236"><ele>158.25</ele><time>2026-05-03T11:58:04.001Z</time></trkpt><trkpt lat="43.69560312380945" lon="11.425658276301535"><ele>157.0</ele><time>2026-05-03T11:58:05.001Z</time></trkpt><trkpt lat="43.69556507517698" lon="11.425833594569195"><ele>155.33333333333334</ele><time>2026-05-03T11:58:06.001Z</time></trkpt><trkpt lat="43.695524855705536" lon="11.4260140888268"><ele>153.66666666666666</ele><time>2026-05-03T11:58:07.001Z</time></trkpt><trkpt lat="43.69547700951759" lon="11.426232436862012"><ele>152.0</ele><time>2026-05-03T11:58:08.001Z</time></trkpt><trkpt lat="43.69542954207387" lon="11.426464144083287"><ele>151.25</ele><time>2026-05-03T11:58:09.001Z</time></trkpt><trkpt lat="43.69537476432743" lon="11.42664521209396"><ele>150.5</ele><time>2026-05-03T11:58:10.001Z</time></trkpt><trkpt lat="43.695294220745375" lon="11.426783224098003"><ele>149.75</ele><time>2026-05-03T11:58:11.001Z</time></trkpt><trkpt lat="43.69518783864776" lon="11.426901081385553"><ele>149.0</ele><time>2026-05-03T11:58:12.001Z</time></trkpt><trkpt lat="43.69507518092371" lon="11.427020142576556"><ele>151.0</ele><time>2026-05-03T11:58:13.001Z</time></trkpt><trkpt lat="43.69496206882181" lon="11.427118421579944"><ele>153.0</ele><time>2026-05-03T11:58:14.001Z</time></trkpt><trkpt lat="43.694847974341016" lon="11.427251407115552"><ele>155.0</ele><time>2026-05-03T11:58:15.001Z</time></trkpt><trkpt lat="43.69474554557736" lon="11.427427401346238"><ele>157.0</ele><time>2026-05-03T11:58:16.001Z</time></trkpt><trkpt lat="43.69466627871024" lon="11.42762117507524"><ele>157.0</ele><time>2026-05-03T11:58:17.001Z</time></trkpt><trkpt lat="43.694591196920044" lon="11.427794713377473"><ele>157.0</ele><time>2026-05-03T11:58:18.001Z</time></trkpt><trkpt lat="43.69451553237926" lon="11.427942725370862"><ele>157.0</ele><time>2026-05-03T11:58:19.001Z</time></trkpt><trkpt lat="43.69443733280134" lon="11.42806910844571"><ele>157.0</ele><time>2026-05-03T11:58:20.001Z</time></trkpt><trkpt lat="43.69434494362377" lon="11.428223375115056"><ele>156.66666666666669</ele><time>2026-05-03T11:58:21.001Z</time></trkpt><trkpt lat="43.69422821871785" lon="11.42842797821631"><ele>156.33333333333334</ele><time>2026-05-03T11:58:22.001Z</time></trkpt><trkpt lat="43.69409217099339" lon="11.428689284126646"><ele>156.0</ele><time>2026-05-03T11:58:23.001Z</time></trkpt><trkpt lat="43.69393992066763" lon="11.428974080567363"><ele>156.0</ele><time>2026-05-03T11:58:24.001Z</time></trkpt><trkpt lat="43.69379096547252" lon="11.429253760438552"><ele>156.0</ele><time>2026-05-03T11:58:25.001Z</time></trkpt><trkpt lat="43.69367253801049" lon="11.429478936189195"><ele>155.5</ele><time>2026-05-03T11:58:26.001Z</time></trkpt><trkpt lat="43.69357229359442" lon="11.42965753994564"><ele>155.0</ele><time>2026-05-03T11:58:27.001Z</time></trkpt><trkpt lat="43.69347001751463" lon="11.429807727625683"><ele>154.5</ele><time>2026-05-03T11:58:28.001Z</time></trkpt><trkpt lat="43.6934117795359" lon="11.429905327224615"><ele>154.0</ele><time>2026-05-03T11:58:29.001Z</time></trkpt><trkpt lat="43.69332429761622" lon="11.429991177924474"><ele>154.0</ele><time>2026-05-03T11:58:30.001Z</time></trkpt><trkpt lat="43.69320631819191" lon="11.430050523793868"><ele>154.0</ele><time>2026-05-03T11:58:31.001Z</time></trkpt><trkpt lat="43.69306976694874" lon="11.430110525413745"><ele>154.0</ele><time>2026-05-03T11:58:32.001Z</time></trkpt><trkpt lat="43.69290734125629" lon="11.430114811438157"><ele>154.0</ele><time>2026-05-03T11:58:33.001Z</time></trkpt><trkpt lat="43.6927432425769" lon="11.43013300354579"><ele>154.5</ele><time>2026-05-03T11:58:34.001Z</time></trkpt><trkpt lat="43.692591418157285" lon="11.430169463375139"><ele>155.0</ele><time>2026-05-03T11:58:35.001Z</time></trkpt><trkpt lat="43.69245888343215" lon="11.430233438669342"><ele>155.5</ele><time>2026-05-03T11:58:36.001Z</time></trkpt><trkpt lat="43.69238826332711" lon="11.430297700705268"><ele>156.0</ele><time>2026-05-03T11:58:37.001Z</time></trkpt><trkpt lat="43.692292852413615" lon="11.430424245514526"><ele>154.66666666666666</ele><time>2026-05-03T11:58:38.001Z</time></trkpt><trkpt lat="43.69221747390382" lon="11.43058322710955"><ele>153.33333333333331</ele><time>2026-05-03T11:58:39.001Z</time></trkpt><trkpt lat="43.69218480354049" lon="11.430776878997765"><ele>152.0</ele><time>2026-05-03T11:58:40.001Z</time></trkpt><trkpt lat="43.69215042453243" lon="11.431022343891748"><ele>152.0</ele><time>2026-05-03T11:58:41.001Z</time></trkpt><trkpt lat="43.692131670531" lon="11.431247145180114"><ele>152.0</ele><time>2026-05-03T11:58:42.001Z</time></trkpt><trkpt lat="43.69210302810155" lon="11.43146808520305"><ele>152.0</ele><time>2026-05-03T11:58:43.001Z</time></trkpt><trkpt lat="43.69207184535655" lon="11.431679077192982"><ele>151.66666666666666</ele><time>2026-05-03T11:58:44.001Z</time></trkpt><trkpt lat="43.69202822552868" lon="11.431914185707955"><ele>151.33333333333334</ele><time>2026-05-03T11:58:45.001Z</time></trkpt><trkpt lat="43.69200696136635" lon="11.432095124871111"><ele>151.0</ele><time>2026-05-03T11:58:46.001Z</time></trkpt><trkpt lat="43.6919822996428" lon="11.432290798646877"><ele>150.75</ele><time>2026-05-03T11:58:47.001Z</time></trkpt><trkpt lat="43.691954854091826" lon="11.43248371821186"><ele>150.5</ele><time>2026-05-03T11:58:48.001Z</time></trkpt><trkpt lat="43.69191940509965" lon="11.432694707397294"><ele>150.25</ele><time>2026-05-03T11:58:49.001Z</time></trkpt><trkpt lat="43.69187025478042" lon="11.432891383483819"><ele>150.0</ele><time>2026-05-03T11:58:50.001Z</time></trkpt><trkpt lat="43.691800459375315" lon="11.433090118295835"><ele>153.33333333333334</ele><time>2026-05-03T11:58:51.001Z</time></trkpt><trkpt lat="43.69172317636082" lon="11.433319677446562"><ele>156.66666666666669</ele><time>2026-05-03T11:58:52.001Z</time></trkpt><trkpt lat="43.69168060849635" lon="11.433520876000358"><ele>160.0</ele><time>2026-05-03T11:58:53.001Z</time></trkpt><trkpt lat="43.691633783621604" lon="11.433696539915921"><ele>160.5</ele><time>2026-05-03T11:58:54.001Z</time></trkpt><trkpt lat="43.69159184333199" lon="11.433840972292433"><ele>161.0</ele><time>2026-05-03T11:58:55.001Z</time></trkpt><trkpt lat="43.69152051021801" lon="11.433945462022958"><ele>161.5</ele><time>2026-05-03T11:58:56.001Z</time></trkpt><trkpt lat="43.69143200358306" lon="11.434039667378965"><ele>162.0</ele><time>2026-05-03T11:58:57.001Z</time></trkpt><trkpt lat="43.691334695332614" lon="11.43416734592691"><ele>162.0</ele><time>2026-05-03T11:58:58.001Z</time></trkpt><trkpt lat="43.691230952929345" lon="11.434286785216882"><ele>162.0</ele><time>2026-05-03T11:58:59.001Z</time></trkpt><trkpt lat="43.691122107211015" lon="11.434416192372508"><ele>162.0</ele><time>2026-05-03T11:59:00.001Z</time></trkpt><trkpt lat="43.69101634966031" lon="11.43454867130573"><ele>162.0</ele><time>2026-05-03T11:59:01.001Z</time></trkpt><trkpt lat="43.69092398360977" lon="11.434654376998154"><ele>164.0</ele><time>2026-05-03T11:59:02.001Z</time></trkpt><trkpt lat="43.69086104120651" lon="11.434729122808843"><ele>166.0</ele><time>2026-05-03T11:59:03.001Z</time></trkpt><trkpt lat="43.69080855702387" lon="11.434815526728467"><ele>168.0</ele><time>2026-05-03T11:59:04.001Z</time></trkpt><trkpt lat="43.69073862875171" lon="11.43487938269275"><ele>170.0</ele><time>2026-05-03T11:59:05.001Z</time></trkpt><trkpt lat="43.690658280685795" lon="11.43496668775848"><ele>172.0</ele><time>2026-05-03T11:59:06.001Z</time></trkpt><trkpt lat="43.69058044235543" lon="11.435060671155146"><ele>172.0</ele><time>2026-05-03T11:59:07.001Z</time></trkpt><trkpt lat="43.69049351985286" lon="11.43513186083086"><ele>172.0</ele><time>2026-05-03T11:59:08.001Z</time></trkpt><trkpt lat="43.690420509621035" lon="11.435226986771028"><ele>172.0</ele><time>2026-05-03T11:59:09.001Z</time></trkpt><trkpt lat="43.690343628239525" lon="11.435293674292033"><ele>172.0</ele><time>2026-05-03T11:59:10.001Z</time></trkpt><trkpt lat="43.69026723128677" lon="11.435358808248754"><ele>172.0</ele><time>2026-05-03T11:59:11.001Z</time></trkpt><trkpt lat="43.69020233805269" lon="11.435386822498051"><ele>172.83333333333334</ele><time>2026-05-03T11:59:12.001Z</time></trkpt><trkpt lat="43.69013265263558" lon="11.43544914559453"><ele>173.66666666666669</ele><time>2026-05-03T11:59:13.001Z</time></trkpt><trkpt lat="43.69004231584123" lon="11.435473231603883"><ele>174.5</ele><time>2026-05-03T11:59:14.001Z</time></trkpt><trkpt lat="43.68995735650346" lon="11.43550701400856"><ele>175.33333333333334</ele><time>2026-05-03T11:59:15.001Z</time></trkpt><trkpt lat="43.68986622159282" lon="11.435537489674331"><ele>176.16666666666666</ele><time>2026-05-03T11:59:16.001Z</time></trkpt><trkpt lat="43.689785854976144" lon="11.435586276825155"><ele>177.0</ele><time>2026-05-03T11:59:17.001Z</time></trkpt><trkpt lat="43.68969936956364" lon="11.435592232439701"><ele>177.0</ele><time>2026-05-03T11:59:18.001Z</time></trkpt><trkpt lat="43.689619991936084" lon="11.435611357682776"><ele>177.0</ele><time>2026-05-03T11:59:19.001Z</time></trkpt><trkpt lat="43.68954007964486" lon="11.435638080850156"><ele>177.0</ele><time>2026-05-03T11:59:20.001Z</time></trkpt><trkpt lat="43.689447156676785" lon="11.435639523114947"><ele>177.0</ele><time>2026-05-03T11:59:21.001Z</time></trkpt><trkpt lat="43.68938340297902" lon="11.435655911596616"><ele>177.0</ele><time>2026-05-03T11:59:22.001Z</time></trkpt><trkpt lat="43.689250249580276" lon="11.435668703736418"><ele>177.83333333333334</ele><time>2026-05-03T11:59:24.001Z</time></trkpt><trkpt lat="43.689183149189546" lon="11.435667187322535"><ele>178.66666666666666</ele><time>2026-05-03T11:59:25.001Z</time></trkpt><trkpt lat="43.68910281818766" lon="11.435672746932887"><ele>179.5</ele><time>2026-05-03T11:59:26.001Z</time></trkpt><trkpt lat="43.6890071056453" lon="11.435718031538112"><ele>180.33333333333331</ele><time>2026-05-03T11:59:28.001Z</time></trkpt><trkpt lat="43.68893450672316" lon="11.435730800117744"><ele>181.16666666666666</ele><time>2026-05-03T11:59:29.001Z</time></trkpt><trkpt lat="43.68885850008847" lon="11.435749115850621"><ele>182.0</ele><time>2026-05-03T11:59:30.001Z</time></trkpt><trkpt lat="43.688769584438" lon="11.43578410756064"><ele>182.0</ele><time>2026-05-03T11:59:31.001Z</time></trkpt><trkpt lat="43.68869878436087" lon="11.435880779610455"><ele>182.0</ele><time>2026-05-03T11:59:32.001Z</time></trkpt><trkpt lat="43.68862071527122" lon="11.43599249851639"><ele>182.0</ele><time>2026-05-03T11:59:33.001Z</time></trkpt><trkpt lat="43.68853895286089" lon="11.43609916958957"><ele>182.0</ele><time>2026-05-03T11:59:34.001Z</time></trkpt><trkpt lat="43.68844303934058" lon="11.436230168465885"><ele>179.66666666666666</ele><time>2026-05-03T11:59:35.001Z</time></trkpt><trkpt lat="43.68834104823007" lon="11.436393877822074"><ele>177.33333333333334</ele><time>2026-05-03T11:59:36Z</time></trkpt><trkpt lat="43.68824014954735" lon="11.436565953482189"><ele>175.0</ele><time>2026-05-03T11:59:37Z</time></trkpt><trkpt lat="43.68814627278526" lon="11.436725221104881"><ele>175.0</ele><time>2026-05-03T11:59:38Z</time></trkpt><trkpt lat="43.6880560678957" lon="11.436865763748166"><ele>175.0</ele><time>2026-05-03T11:59:39Z</time></trkpt><trkpt lat="43.68797008519373" lon="11.43700824304884"><ele>175.0</ele><time>2026-05-03T11:59:40Z</time></trkpt><trkpt lat="43.68787228399603" lon="11.43713025509731"><ele>175.0</ele><time>2026-05-03T11:59:41Z</time></trkpt><trkpt lat="43.68777415727728" lon="11.437243565009835"><ele>171.25</ele><time>2026-05-03T11:59:42Z</time></trkpt><trkpt lat="43.68767125140318" lon="11.437339745611878"><ele>167.5</ele><time>2026-05-03T11:59:43Z</time></trkpt><trkpt lat="43.68755263683628" lon="11.437416161131319"><ele>163.75</ele><time>2026-05-03T11:59:44Z</time></trkpt><trkpt lat="43.68743427306545" lon="11.437486971263702"><ele>160.0</ele><time>2026-05-03T11:59:45Z</time></trkpt><trkpt lat="43.68731594741315" lon="11.43754567701669"><ele>160.0</ele><time>2026-05-03T11:59:46Z</time></trkpt><trkpt lat="43.687203209262584" lon="11.437610258145602"><ele>160.0</ele><time>2026-05-03T11:59:47Z</time></trkpt><trkpt lat="43.68708042916891" lon="11.437703418699966"><ele>160.0</ele><time>2026-05-03T11:59:48Z</time></trkpt><trkpt lat="43.686963829711225" lon="11.437811935931958"><ele>160.0</ele><time>2026-05-03T11:59:49Z</time></trkpt><trkpt lat="43.68684280747777" lon="11.437911121128483"><ele>156.5</ele><time>2026-05-03T11:59:50Z</time></trkpt><trkpt lat="43.686731271783955" lon="11.438001047379164"><ele>153.0</ele><time>2026-05-03T11:59:51Z</time></trkpt><trkpt lat="43.68661659537802" lon="11.4380790606351"><ele>149.5</ele><time>2026-05-03T11:59:52Z</time></trkpt><trkpt lat="43.686490189616066" lon="11.438142854770147"><ele>146.0</ele><time>2026-05-03T11:59:53Z</time></trkpt><trkpt lat="43.68636429329242" lon="11.438200044968818"><ele>146.0</ele><time>2026-05-03T11:59:54Z</time></trkpt><trkpt lat="43.68624176559022" lon="11.43823505738037"><ele>146.0</ele><time>2026-05-03T11:59:55Z</time></trkpt><trkpt lat="43.686132461937" lon="11.438250991534213"><ele>146.0</ele><time>2026-05-03T11:59:56Z</time></trkpt><trkpt lat="43.68601954591019" lon="11.438232120303839"><ele>146.0</ele><time>2026-05-03T11:59:57Z</time></trkpt><trkpt lat="43.68590359812709" lon="11.438148015095726"><ele>143.5</ele><time>2026-05-03T11:59:58Z</time></trkpt><trkpt lat="43.68577665169319" lon="11.438099691124794"><ele>141.0</ele><time>2026-05-03T11:59:59Z</time></trkpt><trkpt lat="43.685664943336924" lon="11.43806182477155"><ele>138.5</ele><time>2026-05-03T12:00:00Z</time></trkpt><trkpt lat="43.6855580441176" lon="11.438053763693404"><ele>136.0</ele><time>2026-05-03T12:00:01Z</time></trkpt><trkpt lat="43.68545888837243" lon="11.438104067940117"><ele>136.0</ele><time>2026-05-03T12:00:02Z</time></trkpt><trkpt lat="43.68538215216831" lon="11.438256607033862"><ele>136.0</ele><time>2026-05-03T12:00:03Z</time></trkpt><trkpt lat="43.68533221431663" lon="11.438457419972513"><ele>136.0</ele><time>2026-05-03T12:00:04Z</time></trkpt><trkpt lat="43.68529325171047" lon="11.43869889566634"><ele>137.0</ele><time>2026-05-03T12:00:05Z</time></trkpt><trkpt lat="43.68523786446944" lon="11.438956580645227"><ele>138.0</ele><time>2026-05-03T12:00:06Z</time></trkpt><trkpt lat="43.68517367530478" lon="11.439189799150586"><ele>139.0</ele><time>2026-05-03T12:00:07Z</time></trkpt><trkpt lat="43.68510837687168" lon="11.439407291834263"><ele>139.0</ele><time>2026-05-03T12:00:08Z</time></trkpt><trkpt lat="43.68510071572637" lon="11.43961281408292"><ele>139.0</ele><time>2026-05-03T12:00:09Z</time></trkpt><trkpt lat="43.68509704476298" lon="11.439819993346518"><ele>139.0</ele><time>2026-05-03T12:00:10Z</time></trkpt><trkpt lat="43.685082949474776" lon="11.440018111084536"><ele>139.0</ele><time>2026-05-03T12:00:11Z</time></trkpt><trkpt lat="43.685049816587004" lon="11.440208482087556"><ele>138.25</ele><time>2026-05-03T12:00:12Z</time></trkpt><trkpt lat="43.68500327829648" lon="11.440381189418789"><ele>137.5</ele><time>2026-05-03T12:00:13Z</time></trkpt><trkpt lat="43.68493257650135" lon="11.440557807156665"><ele>136.75</ele><time>2026-05-03T12:00:14Z</time></trkpt><trkpt lat="43.6848479274594" lon="11.440735904031262"><ele>136.0</ele><time>2026-05-03T12:00:15Z</time></trkpt><trkpt lat="43.6847672776511" lon="11.44091385155868"><ele>135.75</ele><time>2026-05-03T12:00:16Z</time></trkpt><trkpt lat="43.684693670812734" lon="11.441050528150404"><ele>135.5</ele><time>2026-05-03T12:00:17Z</time></trkpt><trkpt lat="43.68460499123864" lon="11.441147794926668"><ele>135.25</ele><time>2026-05-03T12:00:18Z</time></trkpt><trkpt lat="43.68448955439556" lon="11.441177372941555"><ele>135.0</ele><time>2026-05-03T12:00:19Z</time></trkpt><trkpt lat="43.68434742810768" lon="11.441215564442688"><ele>136.33333333333334</ele><time>2026-05-03T12:00:20Z</time></trkpt><trkpt lat="43.68420436511439" lon="11.4413071095156"><ele>137.66666666666669</ele><time>2026-05-03T12:00:21Z</time></trkpt><trkpt lat="43.6840819186111" lon="11.441418535614988"><ele>139.0</ele><time>2026-05-03T12:00:22Z</time></trkpt><trkpt lat="43.68396589633493" lon="11.441547363738811"><ele>139.0</ele><time>2026-05-03T12:00:23Z</time></trkpt><trkpt lat="43.68385449943684" lon="11.441721661506097"><ele>139.0</ele><time>2026-05-03T12:00:24Z</time></trkpt><trkpt lat="43.68376187549434" lon="11.441943141771862"><ele>139.0</ele><time>2026-05-03T12:00:25Z</time></trkpt><trkpt lat="43.683681645820506" lon="11.442138510090611"><ele>139.75</ele><time>2026-05-03T12:00:26Z</time></trkpt><trkpt lat="43.68360792674266" lon="11.44230482137122"><ele>140.5</ele><time>2026-05-03T12:00:27Z</time></trkpt><trkpt lat="43.683529496182416" lon="11.442449012184952"><ele>141.25</ele><time>2026-05-03T12:00:28Z</time></trkpt><trkpt lat="43.68344406282607" lon="11.442573060411975"><ele>142.0</ele><time>2026-05-03T12:00:29Z</time></trkpt><trkpt lat="43.68336229872074" lon="11.442671228163615"><ele>142.0</ele><time>2026-05-03T12:00:30Z</time></trkpt><trkpt lat="43.68328466163593" lon="11.442757082457987"><ele>142.0</ele><time>2026-05-03T12:00:31Z</time></trkpt><trkpt lat="43.68320590320813" lon="11.442830683729294"><ele>142.0</ele><time>2026-05-03T12:00:32Z</time></trkpt><trkpt lat="43.683115576190424" lon="11.442868837778056"><ele>142.0</ele><time>2026-05-03T12:00:33Z</time></trkpt><trkpt lat="43.683030819919914" lon="11.44293746424633"><ele>142.0</ele><time>2026-05-03T12:00:34Z</time></trkpt><trkpt lat="43.68293572110445" lon="11.442972665712947"><ele>141.6</ele><time>2026-05-03T12:00:35Z</time></trkpt><trkpt lat="43.68283637662361" lon="11.442997757362754"><ele>141.2</ele><time>2026-05-03T12:00:36Z</time></trkpt><trkpt lat="43.68271750813015" lon="11.443071153557801"><ele>140.8</ele><time>2026-05-03T12:00:37Z</time></trkpt><trkpt lat="43.68262034079384" lon="11.443090295765273"><ele>140.4</ele><time>2026-05-03T12:00:38Z</time></trkpt><trkpt lat="43.682518012002745" lon="11.443136045911842"><ele>140.0</ele><time>2026-05-03T12:00:39Z</time></trkpt><trkpt lat="43.68239328891744" lon="11.443169207970538"><ele>140.0</ele><time>2026-05-03T12:00:40Z</time></trkpt><trkpt lat="43.68230119405811" lon="11.44320877183718"><ele>140.0</ele><time>2026-05-03T12:00:41Z</time></trkpt><trkpt lat="43.68219164268111" lon="11.443262560931139"><ele>140.0</ele><time>2026-05-03T12:00:42Z</time></trkpt><trkpt lat="43.68208591825076" lon="11.443341099464993"><ele>140.0</ele><time>2026-05-03T12:00:43Z</time></trkpt><trkpt lat="43.68200609386952" lon="11.443437863648057"><ele>140.0</ele><time>2026-05-03T12:00:44Z</time></trkpt><trkpt lat="43.68191733769023" lon="11.4435305024311"><ele>139.0</ele><time>2026-05-03T12:00:45Z</time></trkpt><trkpt lat="43.681832689965844" lon="11.443625221323835"><ele>138.0</ele><time>2026-05-03T12:00:46Z</time></trkpt><trkpt lat="43.68174374503044" lon="11.4437175498201"><ele>137.0</ele><time>2026-05-03T12:00:47Z</time></trkpt><trkpt lat="43.681651772075305" lon="11.443791229623976"><ele>136.0</ele><time>2026-05-03T12:00:48Z</time></trkpt><trkpt lat="43.681560447398184" lon="11.443856823329751"><ele>135.0</ele><time>2026-05-03T12:00:49Z</time></trkpt><trkpt lat="43.68145911498347" lon="11.443903646442557"><ele>134.6</ele><time>2026-05-03T12:00:50Z</time></trkpt><trkpt lat="43.68135826264973" lon="11.443933790283179"><ele>134.2</ele><time>2026-05-03T12:00:51Z</time></trkpt><trkpt lat="43.681255972542196" lon="11.443972828466013"><ele>133.8</ele><time>2026-05-03T12:00:52Z</time></trkpt><trkpt lat="43.68117183842186" lon="11.443998466516836"><ele>133.4</ele><time>2026-05-03T12:00:53Z</time></trkpt><trkpt lat="43.68105069469653" lon="11.444041327196327"><ele>133.0</ele><time>2026-05-03T12:00:54Z</time></trkpt><trkpt lat="43.68094394082413" lon="11.444070005487903"><ele>132.0</ele><time>2026-05-03T12:00:55Z</time></trkpt><trkpt lat="43.68085006443006" lon="11.444102561905398"><ele>131.0</ele><time>2026-05-03T12:00:56Z</time></trkpt><trkpt lat="43.680746957333945" lon="11.444135954113303"><ele>130.0</ele><time>2026-05-03T12:00:57Z</time></trkpt><trkpt lat="43.68065169275644" lon="11.444196165320554"><ele>129.0</ele><time>2026-05-03T12:00:58Z</time></trkpt><trkpt lat="43.68054304354665" lon="11.444247805189434"><ele>128.0</ele><time>2026-05-03T12:00:59Z</time></trkpt><trkpt lat="43.680433976216214" lon="11.444303684494114"><ele>128.0</ele><time>2026-05-03T12:01:00Z</time></trkpt><trkpt lat="43.68035953801542" lon="11.44438106776484"><ele>128.0</ele><time>2026-05-03T12:01:01Z</time></trkpt><trkpt lat="43.68027546164896" lon="11.444454057121316"><ele>128.0</ele><time>2026-05-03T12:01:02Z</time></trkpt><trkpt lat="43.680192415467424" lon="11.444523047102864"><ele>128.0</ele><time>2026-05-03T12:01:03Z</time></trkpt><trkpt lat="43.680114792308856" lon="11.444594151732502"><ele>128.0</ele><time>2026-05-03T12:01:04Z</time></trkpt><trkpt lat="43.680038276582856" lon="11.444659740792753"><ele>126.80000000000001</ele><time>2026-05-03T12:01:05Z</time></trkpt><trkpt lat="43.67994780498348" lon="11.444703213818125"><ele>125.60000000000001</ele><time>2026-05-03T12:01:06Z</time></trkpt><trkpt lat="43.67984444613588" lon="11.444730806148298"><ele>124.39999999999999</ele><time>2026-05-03T12:01:07Z</time></trkpt><trkpt lat="43.67977234206835" lon="11.444798079120703"><ele>123.19999999999999</ele><time>2026-05-03T12:01:08Z</time></trkpt><trkpt lat="43.67967415867718" lon="11.444867191048095"><ele>122.0</ele><time>2026-05-03T12:01:09Z</time></trkpt><trkpt lat="43.67961564120762" lon="11.44491666869513"><ele>122.0</ele><time>2026-05-03T12:01:10Z</time></trkpt><trkpt lat="43.67953640486212" lon="11.444973814311945"><ele>121.99999999999999</ele><time>2026-05-03T12:01:11Z</time></trkpt><trkpt lat="43.67945855355091" lon="11.445035125259672"><ele>121.99999999999999</ele><time>2026-05-03T12:01:12Z</time></trkpt><trkpt lat="43.67938632726765" lon="11.445087558457926"><ele>122.0</ele><time>2026-05-03T12:01:13Z</time></trkpt><trkpt lat="43.6793235401857" lon="11.445127348705935"><ele>122.0</ele><time>2026-05-03T12:01:14Z</time></trkpt><trkpt lat="43.67921230132262" lon="11.445195987084578"><ele>122.49999999999999</ele><time>2026-05-03T12:01:16.001Z</time></trkpt><trkpt lat="43.67914729790314" lon="11.445206279430657"><ele>123.0</ele><time>2026-05-03T12:01:18Z</time></trkpt><trkpt lat="43.6790917316489" lon="11.445277500114685"><ele>123.5</ele><time>2026-05-03T12:01:20Z</time></trkpt><trkpt lat="43.67903050004682" lon="11.445310631879849"><ele>124.0</ele><time>2026-05-03T12:01:21Z</time></trkpt><trkpt lat="43.67895576477792" lon="11.445377150676956"><ele>124.49999999999999</ele><time>2026-05-03T12:01:23Z</time></trkpt><trkpt lat="43.67886349929838" lon="11.445459467911425"><ele>125.0</ele><time>2026-05-03T12:01:25Z</time></trkpt><trkpt lat="43.678795683305076" lon="11.44553129050366"><ele>125.0</ele><time>2026-05-03T12:01:28Z</time></trkpt><trkpt lat="43.678881551947384" lon="11.445485428222701"><ele>125.0</ele><time>2026-05-03T12:01:33Z</time></trkpt><trkpt lat="43.678977741933586" lon="11.445455753133974"><ele>125.0</ele><time>2026-05-03T12:01:35Z</time></trkpt><trkpt lat="43.67902292498706" lon="11.445393176980698"><ele>125.0</ele><time>2026-05-03T12:01:36Z</time></trkpt><trkpt lat="43.67911269457187" lon="11.445317056069797"><ele>125.0</ele><time>2026-05-03T12:01:38Z</time></trkpt><trkpt lat="43.679206924240226" lon="11.445271730827988"><ele>125.14285714285714</ele><time>2026-05-03T12:01:40Z</time></trkpt><trkpt lat="43.67928975421147" lon="11.445223060495639"><ele>125.28571428571429</ele><time>2026-05-03T12:01:42Z</time></trkpt><trkpt lat="43.67935661044109" lon="11.445281806289413"><ele>125.42857142857143</ele><time>2026-05-03T12:01:45Z</time></trkpt><trkpt lat="43.679333512825565" lon="11.445376228691142"><ele>125.57142857142857</ele><time>2026-05-03T12:03:27Z</time></trkpt><trkpt lat="43.67932761382049" lon="11.445280706029353"><ele>125.71428571428572</ele><time>2026-05-03T12:05:05Z</time></trkpt><trkpt lat="43.67926816208085" lon="11.44523734592957"><ele>125.85714285714286</ele><time>2026-05-03T12:05:13Z</time></trkpt><trkpt lat="43.67919842738973" lon="11.445249788724208"><ele>126.0</ele><time>2026-05-03T12:05:20Z</time></trkpt><trkpt lat="43.679160051817064" lon="11.445320659240203"><ele>126.0</ele><time>2026-05-03T12:05:28Z</time></trkpt><trkpt lat="43.679111301343255" lon="11.445384257465966"><ele>126.0</ele><time>2026-05-03T12:05:34Z</time></trkpt><trkpt lat="43.679186614426264" lon="11.445270639225248"><ele>126.0</ele><time>2026-05-03T12:06:03Z</time></trkpt><trkpt lat="43.67918788966061" lon="11.445179203853607"><ele>126.0</ele><time>2026-05-03T12:06:10Z</time></trkpt><trkpt lat="43.67924975760032" lon="11.445143872295516"><ele>126.0</ele><time>2026-05-03T12:06:13Z</time></trkpt></trkseg></trk></gpx>